Wetterdaten: Freitag, 17.02.2017
Datum Zeit Temp. A. Feuchte A. Luftdruck Regen Wind Richtung Richtung Taupunkt Windben Empfang
17.02.2017 00:00 3,4 C 96 % 1025,4 hPa 0,0 l/m 0,0 km/h (0 Bft) N 3 2,8 C 0,0 km/h (0 Bft) 100 %
17.02.2017 00:02 3,4 C 96 % 1025,4 hPa 0,0 l/m 0,0 km/h (0 Bft) N 3 2,8 C 0,0 km/h (0 Bft) 100 %
17.02.2017 00:03 3,4 C 96 % 1025,4 hPa 0,0 l/m 0,4 km/h (0 Bft) SW 214 2,8 C 3,1 km/h (1 Bft) 100 %
17.02.2017 00:04 3,3 C 97 % 1025,4 hPa 0,2 l/m 0,6 km/h (0 Bft) W-SW 240 2,9 C 3,1 km/h (1 Bft) 100 %
17.02.2017 00:05 3,4 C 97 % 1025,4 hPa 0,0 l/m 0,0 km/h (0 Bft) W-SW 240 3,0 C 0,0 km/h (0 Bft) 100 %
17.02.2017 00:06 3,4 C 97 % 1025,4 hPa 0,0 l/m 0,0 km/h (0 Bft) W-SW 240 3,0 C 0,0 km/h (0 Bft) 100 %
17.02.2017 00:07 3,4 C 97 % 1025,4 hPa 0,0 l/m 0,1 km/h (0 Bft) W-SW 243 3,0 C 3,1 km/h (1 Bft) 100 %
17.02.2017 00:08 3,4 C 97 % 1025,4 hPa 0,0 l/m 0,0 km/h (0 Bft) W-SW 243 3,0 C 0,0 km/h (0 Bft) 100 %
17.02.2017 00:09 3,4 C 97 % 1025,5 hPa 0,0 l/m 0,0 km/h (0 Bft) W-SW 243 3,0 C 0,0 km/h (0 Bft) 100 %
17.02.2017 00:10 3,4 C 97 % 1025,4 hPa 0,0 l/m 0,0 km/h (0 Bft) W-SW 243 3,0 C 0,0 km/h (0 Bft) 100 %
17.02.2017 00:11 3,4 C 97 % 1025,4 hPa 0,0 l/m 0,0 km/h (0 Bft) W-SW 245 3,0 C 0,0 km/h (0 Bft) 100 %
17.02.2017 00:12 3,4 C 97 % 1025,4 hPa 0,0 l/m 0,1 km/h (0 Bft) W-SW 244 3,0 C 3,1 km/h (1 Bft) 100 %
17.02.2017 00:13 3,5 C 97 % 1025,4 hPa 0,0 l/m 0,0 km/h (0 Bft) W-SW 252 3,1 C 0,0 km/h (0 Bft) 100 %
17.02.2017 00:14 3,5 C 97 % 1025,5 hPa 0,0 l/m 0,8 km/h (0 Bft) W-NW 295 3,1 C 3,1 km/h (1 Bft) 100 %
17.02.2017 00:15 3,6 C 97 % 1025,4 hPa 0,0 l/m 1,9 km/h (1 Bft) NW 308 3,2 C 6,3 km/h (2 Bft) 100 %
17.02.2017 00:16 3,6 C 97 % 1025,4 hPa 0,0 l/m 3,1 km/h (1 Bft) W-NW 289 3,2 C 6,3 km/h (2 Bft) 100 %
17.02.2017 00:17 3,6 C 97 % 1025,4 hPa 0,0 l/m 0,0 km/h (0 Bft) W-SW 242 3,2 C 0,0 km/h (0 Bft) 100 %
17.02.2017 00:18 3,6 C 97 % 1025,4 hPa 0,0 l/m 0,1 km/h (0 Bft) W-SW 242 3,2 C 3,1 km/h (1 Bft) 100 %
17.02.2017 00:19 3,6 C 97 % 1025,4 hPa 0,0 l/m 0,0 km/h (0 Bft) W 271 3,2 C 0,0 km/h (0 Bft) 100 %
17.02.2017 00:20 3,7 C 97 % 1025,4 hPa 0,0 l/m 0,0 km/h (0 Bft) W-NW 283 3,3 C 0,0 km/h (0 Bft) 100 %
17.02.2017 00:21 3,7 C 97 % 1025,4 hPa 0,0 l/m 0,4 km/h (0 Bft) NW 308 3,3 C 3,1 km/h (1 Bft) 100 %
17.02.2017 00:22 3,8 C 97 % 1025,3 hPa 0,0 l/m 2,0 km/h (1 Bft) W 279 3,4 C 3,1 km/h (1 Bft) 100 %
17.02.2017 00:23 3,8 C 98 % 1025,3 hPa 0,0 l/m 0,0 km/h (0 Bft) W 279 3,5 C 0,0 km/h (0 Bft) 100 %
17.02.2017 00:24 3,9 C 98 % 1025,3 hPa 0,0 l/m 0,1 km/h (0 Bft) W 260 3,6 C 3,1 km/h (1 Bft) 100 %
17.02.2017 00:25 3,9 C 97 % 1025,4 hPa 0,0 l/m 0,4 km/h (0 Bft) NW 313 3,5 C 3,1 km/h (1 Bft) 100 %
17.02.2017 00:26 3,9 C 97 % 1025,4 hPa 0,0 l/m 0,0 km/h (0 Bft) NW 314 3,5 C 0,0 km/h (0 Bft) 100 %
17.02.2017 00:27 4,0 C 97 % 1025,3 hPa 0,0 l/m 0,0 km/h (0 Bft) NW 314 3,6 C 0,0 km/h (0 Bft) 100 %
17.02.2017 00:28 4,0 C 97 % 1025,4 hPa 0,0 l/m 0,0 km/h (0 Bft) NW 314 3,6 C 0,0 km/h (0 Bft) 100 %
17.02.2017 00:29 4,1 C 97 % 1025,3 hPa 0,0 l/m 0,0 km/h (0 Bft) NW 314 3,7 C 0,0 km/h (0 Bft) 100 %
17.02.2017 00:30 4,1 C 97 % 1025,4 hPa 0,0 l/m 0,0 km/h (0 Bft) NW 314 3,7 C 0,0 km/h (0 Bft) 100 %
17.02.2017 00:31 4,1 C 97 % 1025,4 hPa 0,0 l/m 0,0 km/h (0 Bft) NW 314 3,7 C 0,0 km/h (0 Bft) 100 %
17.02.2017 00:32 4,1 C 97 % 1025,4 hPa 0,0 l/m 0,0 km/h (0 Bft) NW 314 3,7 C 0,0 km/h (0 Bft) 100 %
17.02.2017 00:33 4,1 C 97 % 1025,4 hPa 0,0 l/m 0,0 km/h (0 Bft) NW 314 3,7 C 0,0 km/h (0 Bft) 100 %
17.02.2017 00:34 4,1 C 97 % 1025,3 hPa 0,0 l/m 0,0 km/h (0 Bft) NW 314 3,7 C 0,0 km/h (0 Bft) 100 %
17.02.2017 00:35 4,1 C 97 % 1025,4 hPa 0,0 l/m 0,0 km/h (0 Bft) NW 310 3,7 C 0,0 km/h (0 Bft) 100 %
17.02.2017 00:36 4,1 C 97 % 1025,4 hPa 0,0 l/m 0,0 km/h (0 Bft) W-NW 301 3,7 C 0,0 km/h (0 Bft) 100 %
17.02.2017 00:37 4,1 C 97 % 1025,4 hPa 0,0 l/m 0,0 km/h (0 Bft) W-NW 301 3,7 C 0,0 km/h (0 Bft) 100 %
17.02.2017 00:38 4,1 C 96 % 1025,3 hPa 0,0 l/m 0,0 km/h (0 Bft) W-NW 301 3,5 C 0,0 km/h (0 Bft) 100 %
17.02.2017 00:39 4,1 C 96 % 1025,3 hPa 0,0 l/m 0,0 km/h (0 Bft) W-SW 238 3,5 C 0,0 km/h (0 Bft) 100 %
17.02.2017 00:40 4,1 C 96 % 1025,3 hPa 0,0 l/m 0,2 km/h (0 Bft) W-SW 240 3,5 C 3,1 km/h (1 Bft) 100 %
17.02.2017 00:41 4,0 C 96 % 1025,3 hPa 0,0 l/m 0,1 km/h (0 Bft) W-SW 240 3,4 C 3,1 km/h (1 Bft) 100 %
17.02.2017 00:42 4,0 C 96 % 1025,3 hPa 0,0 l/m 0,0 km/h (0 Bft) W-SW 239 3,4 C 0,0 km/h (0 Bft) 100 %
17.02.2017 00:43 4,0 C 96 % 1025,2 hPa 0,0 l/m 0,0 km/h (0 Bft) W-SW 240 3,4 C 0,0 km/h (0 Bft) 100 %
17.02.2017 00:44 4,0 C 96 % 1025,2 hPa 0,0 l/m 0,0 km/h (0 Bft) W-SW 240 3,4 C 0,0 km/h (0 Bft) 100 %
17.02.2017 00:45 4,0 C 96 % 1025,2 hPa 0,0 l/m 0,0 km/h (0 Bft) W-SW 240 3,4 C 0,0 km/h (0 Bft) 100 %
17.02.2017 00:46 4,0 C 96 % 1025,2 hPa 0,0 l/m 0,0 km/h (0 Bft) W-SW 239 3,4 C 0,0 km/h (0 Bft) 100 %
17.02.2017 00:47 4,0 C 96 % 1025,2 hPa 0,0 l/m 0,0 km/h (0 Bft) W-SW 240 3,4 C 0,0 km/h (0 Bft) 100 %
17.02.2017 00:48 4,0 C 96 % 1025,2 hPa 0,0 l/m 0,0 km/h (0 Bft) W-SW 240 3,4 C 0,0 km/h (0 Bft) 100 %
17.02.2017 00:49 4,0 C 96 % 1025,2 hPa 0,0 l/m 0,3 km/h (0 Bft) W 262 3,4 C 3,1 km/h (1 Bft) 100 %
17.02.2017 00:50 3,9 C 96 % 1025,2 hPa 0,0 l/m 0,1 km/h (0 Bft) W 263 3,3 C 3,1 km/h (1 Bft) 100 %
17.02.2017 00:51 4,0 C 96 % 1025,2 hPa 0,0 l/m 0,8 km/h (0 Bft) W-NW 300 3,4 C 6,3 km/h (2 Bft) 100 %
17.02.2017 00:52 4,0 C 96 % 1025,2 hPa 0,0 l/m 0,9 km/h (0 Bft) S-SW 210 3,4 C 3,1 km/h (1 Bft) 100 %
17.02.2017 00:53 4,0 C 96 % 1025,2 hPa 0,0 l/m 1,1 km/h (1 Bft) W-SW 239 3,4 C 6,3 km/h (2 Bft) 100 %
17.02.2017 00:54 4,0 C 96 % 1025,2 hPa 0,0 l/m 0,2 km/h (0 Bft) W-SW 239 3,4 C 3,1 km/h (1 Bft) 100 %
17.02.2017 00:55 4,0 C 96 % 1025,2 hPa 0,0 l/m 0,0 km/h (0 Bft) W-SW 239 3,4 C 0,0 km/h (0 Bft) 100 %
17.02.2017 00:56 4,0 C 96 % 1025,1 hPa 0,0 l/m 0,0 km/h (0 Bft) W-SW 239 3,4 C 0,0 km/h (0 Bft) 100 %
17.02.2017 00:57 3,9 C 96 % 1025,2 hPa 0,0 l/m 0,0 km/h (0 Bft) W-SW 239 3,3 C 0,0 km/h (0 Bft) 100 %
17.02.2017 00:58 3,9 C 96 % 1025,2 hPa 0,0 l/m 0,0 km/h (0 Bft) W-SW 239 3,3 C 0,0 km/h (0 Bft) 100 %
17.02.2017 00:59 3,9 C 96 % 1025,2 hPa 0,0 l/m 0,0 km/h (0 Bft) W-SW 239 3,3 C 0,0 km/h (0 Bft) 100 %
17.02.2017 01:00 3,9 C 96 % 1025,1 hPa 0,0 l/m 0,5 km/h (0 Bft) W 260 3,3 C 3,1 km/h (1 Bft) 100 %
17.02.2017 01:01 3,9 C 96 % 1025,1 hPa 0,0 l/m 0,0 km/h (0 Bft) W 260 3,3 C 0,0 km/h (0 Bft) 100 %
17.02.2017 01:02 3,9 C 96 % 1025,1 hPa 0,0 l/m 0,1 km/h (0 Bft) W 260 3,3 C 3,1 km/h (1 Bft) 100 %
17.02.2017 01:03 3,9 C 96 % 1025,1 hPa 0,0 l/m 0,1 km/h (0 Bft) W 260 3,3 C 3,1 km/h (1 Bft) 100 %
17.02.2017 01:04 3,9 C 96 % 1025,1 hPa 0,0 l/m 0,0 km/h (0 Bft) W 260 3,3 C 0,0 km/h (0 Bft) 100 %
17.02.2017 01:05 3,9 C 96 % 1025,1 hPa 0,0 l/m 1,0 km/h (0 Bft) W 274 3,3 C 3,1 km/h (1 Bft) 100 %
17.02.2017 01:06 3,9 C 96 % 1025,1 hPa 0,0 l/m 1,2 km/h (1 Bft) W-SW 250 3,3 C 3,1 km/h (1 Bft) 100 %
17.02.2017 01:07 3,9 C 96 % 1025,1 hPa 0,0 l/m 0,0 km/h (0 Bft) W-SW 250 3,3 C 0,0 km/h (0 Bft) 100 %
17.02.2017 01:08 3,8 C 96 % 1025,1 hPa 0,0 l/m 0,0 km/h (0 Bft) SW 233 3,2 C 0,0 km/h (0 Bft) 100 %
17.02.2017 01:09 3,8 C 96 % 1025,1 hPa 0,0 l/m 0,3 km/h (0 Bft) W-SW 255 3,2 C 3,1 km/h (1 Bft) 100 %
17.02.2017 01:10 3,8 C 96 % 1025,1 hPa 0,0 l/m 1,1 km/h (1 Bft) W 259 3,2 C 3,1 km/h (1 Bft) 100 %
17.02.2017 01:11 3,8 C 96 % 1025,0 hPa 0,0 l/m 0,3 km/h (0 Bft) SW 233 3,2 C 3,1 km/h (1 Bft) 100 %
17.02.2017 01:12 3,8 C 96 % 1025,0 hPa 0,0 l/m 0,0 km/h (0 Bft) SW 233 3,2 C 0,0 km/h (0 Bft) 100 %
17.02.2017 01:13 3,9 C 96 % 1025,0 hPa 0,0 l/m 0,0 km/h (0 Bft) SW 233 3,3 C 0,0 km/h (0 Bft) 100 %
17.02.2017 01:14 3,8 C 96 % 1025,0 hPa 0,0 l/m 0,0 km/h (0 Bft) SW 233 3,2 C 0,0 km/h (0 Bft) 100 %
17.02.2017 01:15 3,8 C 96 % 1025,1 hPa 0,0 l/m 0,0 km/h (0 Bft) SW 233 3,2 C 0,0 km/h (0 Bft) 100 %
17.02.2017 01:16 3,8 C 96 % 1025,0 hPa 0,0 l/m 0,0 km/h (0 Bft) SW 233 3,2 C 0,0 km/h (0 Bft) 100 %
17.02.2017 01:17 3,8 C 96 % 1025,0 hPa 0,0 l/m 0,0 km/h (0 Bft) SW 233 3,2 C 0,0 km/h (0 Bft) 100 %
17.02.2017 01:18 3,8 C 96 % 1025,0 hPa 0,0 l/m 0,0 km/h (0 Bft) W-SW 240 3,2 C 0,0 km/h (0 Bft) 100 %
17.02.2017 01:19 3,8 C 96 % 1025,0 hPa 0,0 l/m 0,0 km/h (0 Bft) W-SW 240 3,2 C 0,0 km/h (0 Bft) 100 %
17.02.2017 01:20 3,8 C 96 % 1024,9 hPa 0,0 l/m 0,0 km/h (0 Bft) W-SW 240 3,2 C 0,0 km/h (0 Bft) 100 %
17.02.2017 01:21 3,8 C 96 % 1024,9 hPa 0,0 l/m 0,0 km/h (0 Bft) W-SW 240 3,2 C 0,0 km/h (0 Bft) 100 %
17.02.2017 01:22 3,8 C 96 % 1024,9 hPa 0,0 l/m 0,0 km/h (0 Bft) W-SW 240 3,2 C 0,0 km/h (0 Bft) 100 %
17.02.2017 01:23 3,8 C 96 % 1024,9 hPa 0,0 l/m 0,1 km/h (0 Bft) W-SW 252 3,2 C 3,1 km/h (1 Bft) 100 %
17.02.2017 01:24 3,8 C 96 % 1024,8 hPa 0,0 l/m 0,0 km/h (0 Bft) W-SW 257 3,2 C 0,0 km/h (0 Bft) 100 %
17.02.2017 01:25 3,8 C 96 % 1024,8 hPa 0,0 l/m 0,1 km/h (0 Bft) W 269 3,2 C 3,1 km/h (1 Bft) 100 %
17.02.2017 01:26 3,8 C 96 % 1024,8 hPa 0,0 l/m 0,0 km/h (0 Bft) W 269 3,2 C 0,0 km/h (0 Bft) 100 %
17.02.2017 01:27 3,8 C 96 % 1024,8 hPa 0,0 l/m 0,1 km/h (0 Bft) W 277 3,2 C 3,1 km/h (1 Bft) 100 %
17.02.2017 01:28 3,8 C 96 % 1024,8 hPa 0,0 l/m 0,0 km/h (0 Bft) W 278 3,2 C 0,0 km/h (0 Bft) 100 %
17.02.2017 01:29 3,8 C 96 % 1024,8 hPa 0,0 l/m 0,0 km/h (0 Bft) W 278 3,2 C 0,0 km/h (0 Bft) 100 %
17.02.2017 01:30 3,8 C 96 % 1024,8 hPa 0,0 l/m 0,1 km/h (0 Bft) W 278 3,2 C 3,1 km/h (1 Bft) 100 %
17.02.2017 01:31 3,8 C 96 % 1024,8 hPa 0,0 l/m 0,0 km/h (0 Bft) S-SW 196 3,2 C 0,0 km/h (0 Bft) 100 %
17.02.2017 01:32 3,8 C 97 % 1024,7 hPa 0,0 l/m 0,0 km/h (0 Bft) S-SW 206 3,4 C 0,0 km/h (0 Bft) 100 %
17.02.2017 01:33 3,9 C 97 % 1024,8 hPa 0,0 l/m 0,3 km/h (0 Bft) W-SW 257 3,5 C 3,1 km/h (1 Bft) 100 %
17.02.2017 01:34 3,9 C 97 % 1024,8 hPa 0,0 l/m 0,0 km/h (0 Bft) W-SW 257 3,5 C 0,0 km/h (0 Bft) 100 %
17.02.2017 01:35 3,9 C 97 % 1024,8 hPa 0,0 l/m 0,0 km/h (0 Bft) S-SW 211 3,5 C 0,0 km/h (0 Bft) 100 %
17.02.2017 01:36 3,9 C 97 % 1024,7 hPa 0,0 l/m 0,0 km/h (0 Bft) SW 229 3,5 C 0,0 km/h (0 Bft) 100 %
17.02.2017 01:37 3,9 C 97 % 1024,7 hPa 0,0 l/m 0,0 km/h (0 Bft) SW 229 3,5 C 0,0 km/h (0 Bft) 100 %
17.02.2017 01:38 3,9 C 97 % 1024,7 hPa 0,0 l/m 0,3 km/h (0 Bft) SW 229 3,5 C 3,1 km/h (1 Bft) 100 %
17.02.2017 01:39 4,0 C 97 % 1024,6 hPa 0,0 l/m 0,4 km/h (0 Bft) SW 231 3,6 C 3,1 km/h (1 Bft) 100 %
17.02.2017 01:40 4,0 C 96 % 1024,7 hPa 0,0 l/m 0,0 km/h (0 Bft) SW 231 3,4 C 0,0 km/h (0 Bft) 100 %
17.02.2017 01:41 4,0 C 96 % 1024,7 hPa 0,0 l/m 0,0 km/h (0 Bft) SW 215 3,4 C 0,0 km/h (0 Bft) 100 %
17.02.2017 01:42 4,0 C 96 % 1024,7 hPa 0,0 l/m 0,5 km/h (0 Bft) SW 224 3,4 C 3,1 km/h (1 Bft) 96 %
17.02.2017 01:43 4,0 C 96 % 1024,7 hPa 0,0 l/m 0,0 km/h (0 Bft) SW 224 3,4 C 0,0 km/h (0 Bft) 100 %
17.02.2017 01:44 3,9 C 96 % 1024,7 hPa 0,0 l/m 0,0 km/h (0 Bft) SW 224 3,3 C 0,0 km/h (0 Bft) 100 %
17.02.2017 01:45 3,9 C 96 % 1024,7 hPa 0,0 l/m 0,1 km/h (0 Bft) SW 220 3,3 C 3,1 km/h (1 Bft) 100 %
17.02.2017 01:46 3,9 C 96 % 1024,7 hPa 0,0 l/m 0,0 km/h (0 Bft) SW 220 3,3 C 0,0 km/h (0 Bft) 100 %
17.02.2017 01:47 3,9 C 96 % 1024,7 hPa 0,0 l/m 2,0 km/h (1 Bft) W-NW 284 3,3 C 6,3 km/h (2 Bft) 100 %
17.02.2017 01:48 3,9 C 96 % 1024,7 hPa 0,0 l/m 0,3 km/h (0 Bft) W-SW 254 3,3 C 3,1 km/h (1 Bft) 100 %
17.02.2017 01:49 3,9 C 96 % 1024,6 hPa 0,0 l/m 0,0 km/h (0 Bft) W-SW 254 3,3 C 0,0 km/h (0 Bft) 100 %
17.02.2017 01:50 3,9 C 96 % 1024,7 hPa 0,0 l/m 0,0 km/h (0 Bft) W-SW 254 3,3 C 0,0 km/h (0 Bft) 100 %
17.02.2017 01:51 3,9 C 96 % 1024,7 hPa 0,0 l/m 0,5 km/h (0 Bft) SW 220 3,3 C 3,1 km/h (1 Bft) 100 %
17.02.2017 01:52 3,9 C 96 % 1024,6 hPa 0,0 l/m 0,0 km/h (0 Bft) W-SW 255 3,3 C 0,0 km/h (0 Bft) 100 %
17.02.2017 01:53 3,9 C 96 % 1024,7 hPa 0,0 l/m 3,3 km/h (1 Bft) W-SW 245 3,3 C 6,3 km/h (2 Bft) 100 %
17.02.2017 01:54 3,9 C 96 % 1024,6 hPa 0,0 l/m 0,4 km/h (0 Bft) W-NW 293 3,3 C 3,1 km/h (1 Bft) 96 %
17.02.2017 01:55 3,9 C 96 % 1024,7 hPa 0,0 l/m 0,5 km/h (0 Bft) W-SW 258 3,3 C 3,1 km/h (1 Bft) 100 %
17.02.2017 01:56 3,9 C 96 % 1024,6 hPa 0,0 l/m 0,0 km/h (0 Bft) SW 236 3,3 C 0,0 km/h (0 Bft) 100 %
17.02.2017 01:57 3,9 C 96 % 1024,6 hPa 0,0 l/m 0,0 km/h (0 Bft) SW 236 3,3 C 0,0 km/h (0 Bft) 94 %
17.02.2017 01:58 3,9 C 96 % 1024,6 hPa 0,0 l/m 0,0 km/h (0 Bft) SW 236 3,3 C 0,0 km/h (0 Bft) 100 %
17.02.2017 01:59 3,9 C 96 % 1024,6 hPa 0,0 l/m 0,0 km/h (0 Bft) SW 236 3,3 C 0,0 km/h (0 Bft) 100 %
17.02.2017 02:00 3,9 C 96 % 1024,6 hPa 0,0 l/m 0,0 km/h (0 Bft) SW 236 3,3 C 0,0 km/h (0 Bft) 100 %
17.02.2017 02:01 3,9 C 96 % 1024,6 hPa 0,0 l/m 0,2 km/h (0 Bft) SW 236 3,3 C 3,1 km/h (1 Bft) 100 %
17.02.2017 02:02 3,8 C 96 % 1024,6 hPa 0,0 l/m 0,0 km/h (0 Bft) SW 236 3,2 C 0,0 km/h (0 Bft) 100 %
17.02.2017 02:03 3,8 C 96 % 1024,6 hPa 0,0 l/m 1,6 km/h (1 Bft) NW 315 3,2 C 3,1 km/h (1 Bft) 96 %
17.02.2017 02:04 3,8 C 96 % 1024,6 hPa 0,0 l/m 0,5 km/h (0 Bft) W-SW 249 3,2 C 3,1 km/h (1 Bft) 96 %
17.02.2017 02:05 3,8 C 96 % 1024,6 hPa 0,0 l/m 0,0 km/h (0 Bft) W-SW 249 3,2 C 0,0 km/h (0 Bft) 100 %
17.02.2017 02:06 3,8 C 96 % 1024,7 hPa 0,0 l/m 3,0 km/h (1 Bft) W-NW 283 3,2 C 6,3 km/h (2 Bft) 100 %
17.02.2017 02:07 3,8 C 96 % 1024,6 hPa 0,0 l/m 0,4 km/h (0 Bft) W-NW 293 3,2 C 3,1 km/h (1 Bft) 96 %
17.02.2017 02:08 3,8 C 96 % 1024,6 hPa 0,0 l/m 0,5 km/h (0 Bft) W-NW 300 3,2 C 3,1 km/h (1 Bft) 100 %
17.02.2017 02:09 3,8 C 96 % 1024,6 hPa 0,0 l/m 0,0 km/h (0 Bft) W 281 3,2 C 0,0 km/h (0 Bft) 96 %
17.02.2017 02:10 3,8 C 96 % 1024,6 hPa 0,0 l/m 3,3 km/h (1 Bft) SW 235 3,2 C 6,3 km/h (2 Bft) 100 %
17.02.2017 02:11 3,8 C 96 % 1024,6 hPa 0,0 l/m 1,0 km/h (0 Bft) W 279 3,2 C 3,1 km/h (1 Bft) 93 %
17.02.2017 02:12 3,8 C 96 % 1024,6 hPa 0,0 l/m 0,1 km/h (0 Bft) NW 309 3,2 C 3,1 km/h (1 Bft) 100 %
17.02.2017 02:13 3,8 C 96 % 1024,6 hPa 0,0 l/m 0,0 km/h (0 Bft) NW 309 3,2 C 0,0 km/h (0 Bft) 96 %
17.02.2017 02:14 3,8 C 96 % 1024,6 hPa 0,0 l/m 0,0 km/h (0 Bft) NW 309 3,2 C 0,0 km/h (0 Bft) 100 %
17.02.2017 02:15 3,8 C 96 % 1024,6 hPa 0,0 l/m 0,6 km/h (0 Bft) W-SW 252 3,2 C 3,1 km/h (1 Bft) 96 %
17.02.2017 02:16 3,8 C 96 % 1024,6 hPa 0,0 l/m 0,0 km/h (0 Bft) W-SW 252 3,2 C 0,0 km/h (0 Bft) 96 %
17.02.2017 02:17 3,8 C 96 % 1024,6 hPa 0,0 l/m 0,0 km/h (0 Bft) W-SW 252 3,2 C 0,0 km/h (0 Bft) 100 %
17.02.2017 02:18 3,8 C 96 % 1024,6 hPa 0,0 l/m 0,0 km/h (0 Bft) W 276 3,2 C 0,0 km/h (0 Bft) 96 %
17.02.2017 02:19 3,8 C 96 % 1024,5 hPa 0,0 l/m 0,0 km/h (0 Bft) W 274 3,2 C 0,0 km/h (0 Bft) 100 %
17.02.2017 02:20 3,8 C 96 % 1024,6 hPa 0,0 l/m 0,0 km/h (0 Bft) W 274 3,2 C 0,0 km/h (0 Bft) 96 %
17.02.2017 02:21 3,8 C 96 % 1024,6 hPa 0,0 l/m 0,0 km/h (0 Bft) W 274 3,2 C 0,0 km/h (0 Bft) 100 %
17.02.2017 02:22 3,8 C 96 % 1024,6 hPa 0,0 l/m 0,0 km/h (0 Bft) W 274 3,2 C 0,0 km/h (0 Bft) 96 %
17.02.2017 02:23 3,8 C 96 % 1024,6 hPa 0,0 l/m 0,0 km/h (0 Bft) W 274 3,2 C 0,0 km/h (0 Bft) 100 %
17.02.2017 02:24 3,8 C 96 % 1024,6 hPa 0,0 l/m 0,5 km/h (0 Bft) W 276 3,2 C 3,1 km/h (1 Bft) 97 %
17.02.2017 02:25 3,8 C 96 % 1024,6 hPa 0,0 l/m 0,9 km/h (0 Bft) W-NW 302 3,2 C 3,1 km/h (1 Bft) 100 %
17.02.2017 02:26 3,8 C 97 % 1024,6 hPa 0,0 l/m 0,3 km/h (0 Bft) W-NW 302 3,4 C 3,1 km/h (1 Bft) 96 %
17.02.2017 02:27 3,8 C 97 % 1024,6 hPa 0,0 l/m 0,1 km/h (0 Bft) W-NW 301 3,4 C 3,1 km/h (1 Bft) 96 %
17.02.2017 02:28 3,8 C 97 % 1024,6 hPa 0,0 l/m 0,0 km/h (0 Bft) W-NW 295 3,4 C 0,0 km/h (0 Bft) 100 %
17.02.2017 02:29 3,8 C 97 % 1024,5 hPa 0,0 l/m 1,6 km/h (1 Bft) W 277 3,4 C 3,1 km/h (1 Bft) 96 %
17.02.2017 02:30 3,8 C 97 % 1024,6 hPa 0,0 l/m 0,2 km/h (0 Bft) W 262 3,4 C 3,1 km/h (1 Bft) 100 %
17.02.2017 02:31 3,8 C 97 % 1024,6 hPa 0,0 l/m 0,9 km/h (0 Bft) W-SW 257 3,4 C 3,1 km/h (1 Bft) 96 %
17.02.2017 02:32 3,9 C 97 % 1024,5 hPa 0,0 l/m 1,3 km/h (1 Bft) W-NW 295 3,5 C 3,1 km/h (1 Bft) 100 %
17.02.2017 02:33 3,9 C 97 % 1024,5 hPa 0,0 l/m 0,7 km/h (0 Bft) W-SW 258 3,5 C 3,1 km/h (1 Bft) 96 %
17.02.2017 02:34 3,9 C 97 % 1024,5 hPa 0,0 l/m 0,6 km/h (0 Bft) W-NW 285 3,5 C 3,1 km/h (1 Bft) 96 %
17.02.2017 02:35 3,9 C 97 % 1024,5 hPa 0,0 l/m 0,7 km/h (0 Bft) W-SW 249 3,5 C 3,1 km/h (1 Bft) 100 %
17.02.2017 02:36 3,9 C 97 % 1024,5 hPa 0,0 l/m 1,3 km/h (1 Bft) W-NW 285 3,5 C 3,1 km/h (1 Bft) 92 %
17.02.2017 02:37 4,0 C 97 % 1024,5 hPa 0,0 l/m 1,2 km/h (1 Bft) W 259 3,6 C 3,1 km/h (1 Bft) 100 %
17.02.2017 02:38 4,0 C 97 % 1024,5 hPa 0,0 l/m 0,0 km/h (0 Bft) W 266 3,6 C 0,0 km/h (0 Bft) 96 %
17.02.2017 02:39 4,0 C 96 % 1024,5 hPa 0,0 l/m 2,6 km/h (1 Bft) W 261 3,4 C 9,4 km/h (2 Bft) 100 %
17.02.2017 02:40 4,0 C 97 % 1024,5 hPa 0,0 l/m 0,5 km/h (0 Bft) W 264 3,6 C 3,1 km/h (1 Bft) 96 %
17.02.2017 02:41 4,1 C 96 % 1024,4 hPa 0,0 l/m 0,4 km/h (0 Bft) W-SW 245 3,5 C 3,1 km/h (1 Bft) 100 %
17.02.2017 02:42 4,1 C 96 % 1024,4 hPa 0,0 l/m 0,0 km/h (0 Bft) W 281 3,5 C 0,0 km/h (0 Bft) 96 %
17.02.2017 02:43 4,1 C 96 % 1024,4 hPa 0,0 l/m 1,6 km/h (1 Bft) NW 304 3,5 C 3,1 km/h (1 Bft) 96 %
17.02.2017 02:44 4,1 C 96 % 1024,4 hPa 0,0 l/m 2,0 km/h (1 Bft) W-SW 252 3,5 C 3,1 km/h (1 Bft) 100 %
17.02.2017 02:45 4,1 C 96 % 1024,5 hPa 0,0 l/m 0,5 km/h (0 Bft) W-SW 251 3,5 C 3,1 km/h (1 Bft) 96 %
17.02.2017 02:46 4,1 C 96 % 1024,4 hPa 0,0 l/m 0,3 km/h (0 Bft) NW 313 3,5 C 3,1 km/h (1 Bft) 100 %
17.02.2017 02:47 4,1 C 96 % 1024,4 hPa 0,0 l/m 0,0 km/h (0 Bft) NW 313 3,5 C 0,0 km/h (0 Bft) 100 %
17.02.2017 02:48 4,1 C 96 % 1024,4 hPa 0,0 l/m 0,8 km/h (0 Bft) W 275 3,5 C 3,1 km/h (1 Bft) 100 %
17.02.2017 02:49 4,1 C 96 % 1024,4 hPa 0,0 l/m 1,6 km/h (1 Bft) W-SW 248 3,5 C 3,1 km/h (1 Bft) 100 %
17.02.2017 02:50 4,1 C 96 % 1024,4 hPa 0,0 l/m 2,1 km/h (1 Bft) SW 229 3,5 C 6,3 km/h (2 Bft) 100 %
17.02.2017 02:51 4,1 C 96 % 1024,4 hPa 0,0 l/m 0,1 km/h (0 Bft) W 260 3,5 C 3,1 km/h (1 Bft) 100 %
17.02.2017 02:52 4,1 C 96 % 1024,4 hPa 0,0 l/m 0,8 km/h (0 Bft) W 274 3,5 C 3,1 km/h (1 Bft) 100 %
17.02.2017 02:53 4,2 C 96 % 1024,4 hPa 0,0 l/m 0,3 km/h (0 Bft) W 274 3,6 C 3,1 km/h (1 Bft) 100 %
17.02.2017 02:54 4,1 C 96 % 1024,4 hPa 0,0 l/m 0,0 km/h (0 Bft) W 274 3,5 C 0,0 km/h (0 Bft) 100 %
17.02.2017 02:55 4,1 C 96 % 1024,4 hPa 0,0 l/m 0,1 km/h (0 Bft) W 274 3,5 C 3,1 km/h (1 Bft) 100 %
17.02.2017 02:56 4,1 C 96 % 1024,4 hPa 0,0 l/m 0,0 km/h (0 Bft) W 276 3,5 C 0,0 km/h (0 Bft) 100 %
17.02.2017 02:57 4,1 C 96 % 1024,4 hPa 0,0 l/m 0,0 km/h (0 Bft) W 276 3,5 C 0,0 km/h (0 Bft) 100 %
17.02.2017 02:58 4,1 C 95 % 1024,3 hPa 0,0 l/m 0,0 km/h (0 Bft) W 276 3,4 C 0,0 km/h (0 Bft) 100 %
17.02.2017 02:59 4,1 C 95 % 1024,3 hPa 0,0 l/m 0,9 km/h (0 Bft) W-SW 249 3,4 C 3,1 km/h (1 Bft) 100 %
17.02.2017 03:00 4,1 C 96 % 1024,3 hPa 0,0 l/m 0,3 km/h (0 Bft) W 268 3,5 C 3,1 km/h (1 Bft) 100 %
17.02.2017 03:02 4,0 C 96 % 1024,3 hPa 0,0 l/m 0,2 km/h (0 Bft) W-NW 290 3,4 C 3,1 km/h (1 Bft) 100 %
17.02.2017 03:03 4,0 C 96 % 1024,3 hPa 0,0 l/m 0,0 km/h (0 Bft) W-SW 249 3,4 C 0,0 km/h (0 Bft) 100 %
17.02.2017 03:04 4,0 C 96 % 1024,3 hPa 0,0 l/m 0,0 km/h (0 Bft) W-SW 249 3,4 C 0,0 km/h (0 Bft) 100 %
17.02.2017 03:05 4,0 C 96 % 1024,3 hPa 0,0 l/m 0,0 km/h (0 Bft) W-SW 249 3,4 C 0,0 km/h (0 Bft) 100 %
17.02.2017 03:06 4,0 C 96 % 1024,2 hPa 0,0 l/m 0,1 km/h (0 Bft) W 281 3,4 C 3,1 km/h (1 Bft) 100 %
17.02.2017 03:07 3,9 C 96 % 1024,2 hPa 0,0 l/m 0,0 km/h (0 Bft) W 281 3,3 C 0,0 km/h (0 Bft) 100 %
17.02.2017 03:08 3,9 C 96 % 1024,2 hPa 0,0 l/m 0,0 km/h (0 Bft) W 281 3,3 C 0,0 km/h (0 Bft) 100 %
17.02.2017 03:09 3,9 C 95 % 1024,2 hPa 0,0 l/m 0,0 km/h (0 Bft) W 281 3,2 C 0,0 km/h (0 Bft) 100 %
17.02.2017 03:10 3,9 C 95 % 1024,2 hPa 0,0 l/m 0,0 km/h (0 Bft) W 281 3,2 C 0,0 km/h (0 Bft) 100 %
17.02.2017 03:11 3,9 C 96 % 1024,2 hPa 0,0 l/m 0,0 km/h (0 Bft) W 281 3,3 C 0,0 km/h (0 Bft) 100 %
17.02.2017 03:12 3,9 C 96 % 1024,1 hPa 0,0 l/m 0,0 km/h (0 Bft) W 281 3,3 C 0,0 km/h (0 Bft) 100 %
17.02.2017 03:13 3,8 C 96 % 1024,1 hPa 0,0 l/m 0,0 km/h (0 Bft) W 281 3,2 C 0,0 km/h (0 Bft) 100 %
17.02.2017 03:14 3,8 C 95 % 1024,1 hPa 0,0 l/m 0,0 km/h (0 Bft) W 281 3,1 C 0,0 km/h (0 Bft) 100 %
17.02.2017 03:15 3,7 C 95 % 1024,1 hPa 0,0 l/m 0,0 km/h (0 Bft) W 281 3,0 C 0,0 km/h (0 Bft) 100 %
17.02.2017 03:16 3,7 C 95 % 1024,1 hPa 0,0 l/m 0,0 km/h (0 Bft) W 281 3,0 C 0,0 km/h (0 Bft) 100 %
17.02.2017 03:17 3,6 C 95 % 1024,1 hPa 0,0 l/m 0,0 km/h (0 Bft) W 281 2,9 C 0,0 km/h (0 Bft) 100 %
17.02.2017 03:18 3,6 C 95 % 1024,0 hPa 0,0 l/m 0,0 km/h (0 Bft) W 281 2,9 C 0,0 km/h (0 Bft) 100 %
17.02.2017 03:19 3,5 C 95 % 1024,0 hPa 0,0 l/m 0,0 km/h (0 Bft) W 281 2,8 C 0,0 km/h (0 Bft) 100 %
17.02.2017 03:20 3,4 C 95 % 1024,0 hPa 0,0 l/m 0,0 km/h (0 Bft) W 281 2,7 C 0,0 km/h (0 Bft) 100 %
17.02.2017 03:22 3,3 C 95 % 1024,0 hPa 0,0 l/m 0,0 km/h (0 Bft) W 281 2,6 C 0,0 km/h (0 Bft) 100 %
17.02.2017 03:23 3,3 C 95 % 1024,0 hPa 0,0 l/m 0,0 km/h (0 Bft) W 281 2,6 C 0,0 km/h (0 Bft) 100 %
17.02.2017 03:24 3,2 C 95 % 1024,0 hPa 0,0 l/m 0,0 km/h (0 Bft) W 281 2,5 C 0,0 km/h (0 Bft) 100 %
17.02.2017 03:25 3,2 C 95 % 1024,0 hPa 0,0 l/m 0,0 km/h (0 Bft) W 281 2,5 C 0,0 km/h (0 Bft) 100 %
17.02.2017 03:26 3,2 C 95 % 1024,0 hPa 0,0 l/m 0,0 km/h (0 Bft) W 281 2,5 C 0,0 km/h (0 Bft) 100 %
17.02.2017 03:27 3,1 C 95 % 1024,0 hPa 0,0 l/m 0,0 km/h (0 Bft) W 281 2,4 C 0,0 km/h (0 Bft) 100 %
17.02.2017 03:28 3,1 C 96 % 1023,9 hPa 0,0 l/m 0,0 km/h (0 Bft) W 281 2,5 C 0,0 km/h (0 Bft) 100 %
17.02.2017 03:29 3,1 C 96 % 1024,0 hPa 0,0 l/m 0,0 km/h (0 Bft) W 281 2,5 C 0,0 km/h (0 Bft) 100 %
17.02.2017 03:30 3,0 C 96 % 1023,9 hPa 0,0 l/m 2,0 km/h (1 Bft) W 274 2,4 C 6,3 km/h (2 Bft) 100 %
17.02.2017 03:31 3,1 C 96 % 1023,9 hPa 0,0 l/m 0,0 km/h (0 Bft) W 274 2,5 C 0,0 km/h (0 Bft) 100 %
17.02.2017 03:32 3,0 C 96 % 1023,9 hPa 0,0 l/m 0,2 km/h (0 Bft) SW 218 2,4 C 3,1 km/h (1 Bft) 100 %
17.02.2017 03:33 3,0 C 96 % 1023,9 hPa 0,0 l/m 0,7 km/h (0 Bft) W 277 2,4 C 3,1 km/h (1 Bft) 100 %
17.02.2017 03:34 3,0 C 96 % 1023,9 hPa 0,0 l/m 0,8 km/h (0 Bft) S-SW 205 2,4 C 3,1 km/h (1 Bft) 100 %
17.02.2017 03:35 3,0 C 97 % 1023,9 hPa 0,0 l/m 0,0 km/h (0 Bft) S-SW 205 2,6 C 0,0 km/h (0 Bft) 100 %
17.02.2017 03:36 3,0 C 96 % 1023,9 hPa 0,0 l/m 0,0 km/h (0 Bft) S-SW 205 2,4 C 0,0 km/h (0 Bft) 100 %
17.02.2017 03:37 3,0 C 96 % 1023,8 hPa 0,0 l/m 0,0 km/h (0 Bft) S-SW 195 2,4 C 0,0 km/h (0 Bft) 100 %
17.02.2017 03:38 2,9 C 96 % 1023,9 hPa 0,0 l/m 0,0 km/h (0 Bft) S-SW 195 2,3 C 0,0 km/h (0 Bft) 100 %
17.02.2017 03:39 2,9 C 96 % 1023,9 hPa 0,0 l/m 0,0 km/h (0 Bft) S-SW 195 2,3 C 0,0 km/h (0 Bft) 100 %
17.02.2017 03:40 2,9 C 96 % 1023,9 hPa 0,0 l/m 0,0 km/h (0 Bft) S-SW 195 2,3 C 0,0 km/h (0 Bft) 100 %
17.02.2017 03:42 2,9 C 96 % 1023,8 hPa 0,0 l/m 0,0 km/h (0 Bft) S-SW 195 2,3 C 0,0 km/h (0 Bft) 100 %
17.02.2017 03:43 2,9 C 96 % 1023,8 hPa 0,0 l/m 0,0 km/h (0 Bft) S-SW 195 2,3 C 0,0 km/h (0 Bft) 100 %
17.02.2017 03:44 2,9 C 97 % 1023,8 hPa 0,0 l/m 0,2 km/h (0 Bft) SW 223 2,5 C 3,1 km/h (1 Bft) 100 %
17.02.2017 03:45 2,9 C 97 % 1023,8 hPa 0,0 l/m 0,1 km/h (0 Bft) W-NW 283 2,5 C 3,1 km/h (1 Bft) 100 %
17.02.2017 03:46 2,9 C 97 % 1023,8 hPa 0,0 l/m 0,0 km/h (0 Bft) W-NW 302 2,5 C 0,0 km/h (0 Bft) 100 %
17.02.2017 03:47 2,9 C 97 % 1023,8 hPa 0,0 l/m 1,3 km/h (1 Bft) NW 313 2,5 C 3,1 km/h (1 Bft) 100 %
17.02.2017 03:48 3,0 C 97 % 1023,7 hPa 0,0 l/m 0,0 km/h (0 Bft) NW 312 2,6 C 0,0 km/h (0 Bft) 100 %
17.02.2017 03:49 3,0 C 97 % 1023,8 hPa 0,0 l/m 0,0 km/h (0 Bft) NW 312 2,6 C 0,0 km/h (0 Bft) 100 %
17.02.2017 03:50 3,1 C 97 % 1023,7 hPa 0,0 l/m 0,2 km/h (0 Bft) N-NW 347 2,7 C 3,1 km/h (1 Bft) 100 %
17.02.2017 03:51 3,1 C 97 % 1023,7 hPa 0,0 l/m 0,0 km/h (0 Bft) N-NW 347 2,7 C 0,0 km/h (0 Bft) 100 %
17.02.2017 03:52 3,0 C 97 % 1023,7 hPa 0,0 l/m 0,0 km/h (0 Bft) N-NW 347 2,6 C 0,0 km/h (0 Bft) 100 %
17.02.2017 03:53 3,0 C 97 % 1023,7 hPa 0,0 l/m 0,3 km/h (0 Bft) NO 44 2,6 C 3,1 km/h (1 Bft) 100 %
17.02.2017 03:54 2,9 C 97 % 1023,7 hPa 0,0 l/m 0,0 km/h (0 Bft) NO 44 2,5 C 0,0 km/h (0 Bft) 100 %
17.02.2017 03:55 2,9 C 97 % 1023,8 hPa 0,0 l/m 0,0 km/h (0 Bft) NO 44 2,5 C 0,0 km/h (0 Bft) 100 %
17.02.2017 03:56 2,9 C 97 % 1023,8 hPa 0,0 l/m 0,0 km/h (0 Bft) NO 44 2,5 C 0,0 km/h (0 Bft) 100 %
17.02.2017 03:57 2,9 C 97 % 1023,7 hPa 0,0 l/m 0,0 km/h (0 Bft) NO 44 2,5 C 0,0 km/h (0 Bft) 100 %
17.02.2017 03:58 2,9 C 97 % 1023,7 hPa 0,0 l/m 0,0 km/h (0 Bft) NO 44 2,5 C 0,0 km/h (0 Bft) 100 %
17.02.2017 03:59 2,8 C 97 % 1023,8 hPa 0,0 l/m 0,0 km/h (0 Bft) NO 44 2,4 C 0,0 km/h (0 Bft) 100 %
17.02.2017 04:00 2,8 C 97 % 1023,8 hPa 0,0 l/m 0,0 km/h (0 Bft) NO 44 2,4 C 0,0 km/h (0 Bft) 100 %
17.02.2017 04:02 2,8 C 96 % 1023,7 hPa 0,0 l/m 0,3 km/h (0 Bft) W-SW 244 2,2 C 3,1 km/h (1 Bft) 100 %
17.02.2017 04:03 2,7 C 96 % 1023,7 hPa 0,0 l/m 0,0 km/h (0 Bft) W-SW 244 2,1 C 0,0 km/h (0 Bft) 100 %
17.02.2017 04:04 2,7 C 97 % 1023,8 hPa 0,0 l/m 0,0 km/h (0 Bft) W-SW 244 2,3 C 0,0 km/h (0 Bft) 100 %
17.02.2017 04:05 2,7 C 97 % 1023,7 hPa 0,0 l/m 0,3 km/h (0 Bft) W-SW 238 2,3 C 3,1 km/h (1 Bft) 100 %
17.02.2017 04:06 2,8 C 97 % 1023,7 hPa 0,0 l/m 0,0 km/h (0 Bft) W-SW 238 2,4 C 0,0 km/h (0 Bft) 100 %
17.02.2017 04:07 2,8 C 97 % 1023,7 hPa 0,0 l/m 0,0 km/h (0 Bft) W-SW 238 2,4 C 0,0 km/h (0 Bft) 100 %
17.02.2017 04:08 2,8 C 97 % 1023,7 hPa 0,0 l/m 0,0 km/h (0 Bft) W-SW 238 2,4 C 0,0 km/h (0 Bft) 100 %
17.02.2017 04:09 2,8 C 97 % 1023,7 hPa 0,0 l/m 0,0 km/h (0 Bft) W-SW 238 2,4 C 0,0 km/h (0 Bft) 100 %
17.02.2017 04:10 2,7 C 97 % 1023,6 hPa 0,0 l/m 0,0 km/h (0 Bft) W-SW 238 2,3 C 0,0 km/h (0 Bft) 100 %
17.02.2017 04:11 2,7 C 97 % 1023,7 hPa 0,0 l/m 0,0 km/h (0 Bft) W-SW 238 2,3 C 0,0 km/h (0 Bft) 100 %
17.02.2017 04:12 2,7 C 97 % 1023,7 hPa 0,0 l/m 0,0 km/h (0 Bft) W-SW 238 2,3 C 0,0 km/h (0 Bft) 100 %
17.02.2017 04:13 2,7 C 97 % 1023,6 hPa 0,0 l/m 0,0 km/h (0 Bft) W-SW 238 2,3 C 0,0 km/h (0 Bft) 100 %
17.02.2017 04:14 2,7 C 97 % 1023,6 hPa 0,0 l/m 0,0 km/h (0 Bft) W-SW 238 2,3 C 0,0 km/h (0 Bft) 100 %
17.02.2017 04:15 2,7 C 97 % 1023,6 hPa 0,0 l/m 0,1 km/h (0 Bft) W-NW 297 2,3 C 3,1 km/h (1 Bft) 100 %
17.02.2017 04:16 2,7 C 97 % 1023,6 hPa 0,0 l/m 0,7 km/h (0 Bft) NW 304 2,3 C 3,1 km/h (1 Bft) 100 %
17.02.2017 04:17 2,7 C 97 % 1023,6 hPa 0,0 l/m 0,0 km/h (0 Bft) NW 304 2,3 C 0,0 km/h (0 Bft) 100 %
17.02.2017 04:18 2,7 C 97 % 1023,6 hPa 0,0 l/m 0,0 km/h (0 Bft) NW 318 2,3 C 0,0 km/h (0 Bft) 100 %
17.02.2017 04:19 2,7 C 97 % 1023,6 hPa 0,0 l/m 0,0 km/h (0 Bft) NW 317 2,3 C 0,0 km/h (0 Bft) 100 %
17.02.2017 04:20 2,7 C 97 % 1023,6 hPa 0,0 l/m 0,0 km/h (0 Bft) NW 310 2,3 C 0,0 km/h (0 Bft) 100 %
17.02.2017 04:21 2,8 C 97 % 1023,6 hPa 0,0 l/m 2,0 km/h (1 Bft) W-NW 302 2,4 C 3,1 km/h (1 Bft) 100 %
17.02.2017 04:22 2,8 C 97 % 1023,6 hPa 0,0 l/m 1,0 km/h (0 Bft) NW 314 2,4 C 3,1 km/h (1 Bft) 100 %
17.02.2017 04:23 2,8 C 97 % 1023,6 hPa 0,0 l/m 1,6 km/h (1 Bft) NW 307 2,4 C 6,3 km/h (2 Bft) 100 %
17.02.2017 04:24 2,8 C 97 % 1023,6 hPa 0,0 l/m 4,9 km/h (1 Bft) W-NW 302 2,4 C 9,4 km/h (2 Bft) 100 %
17.02.2017 04:25 2,8 C 97 % 1023,6 hPa 0,0 l/m 2,9 km/h (1 Bft) NW 316 2,4 C 6,3 km/h (2 Bft) 100 %
17.02.2017 04:26 2,8 C 97 % 1023,7 hPa 0,0 l/m 0,8 km/h (0 Bft) W-SW 245 2,4 C 3,1 km/h (1 Bft) 100 %
17.02.2017 04:27 2,8 C 97 % 1023,6 hPa 0,0 l/m 0,7 km/h (0 Bft) S-SW 201 2,4 C 3,1 km/h (1 Bft) 100 %
17.02.2017 04:28 2,8 C 97 % 1023,6 hPa 0,0 l/m 1,9 km/h (1 Bft) NW 311 2,4 C 3,1 km/h (1 Bft) 100 %
17.02.2017 04:29 2,8 C 97 % 1023,6 hPa 0,0 l/m 1,2 km/h (1 Bft) W-NW 294 2,4 C 3,1 km/h (1 Bft) 100 %
17.02.2017 04:30 2,8 C 97 % 1023,7 hPa 0,0 l/m 0,9 km/h (0 Bft) W-SW 257 2,4 C 3,1 km/h (1 Bft) 100 %
17.02.2017 04:31 2,8 C 97 % 1023,6 hPa 0,0 l/m 1,9 km/h (1 Bft) NW 318 2,4 C 6,3 km/h (2 Bft) 100 %
17.02.2017 04:32 2,8 C 97 % 1023,6 hPa 0,0 l/m 0,0 km/h (0 Bft) W-NW 285 2,4 C 0,0 km/h (0 Bft) 100 %
17.02.2017 04:33 2,8 C 97 % 1023,6 hPa 0,0 l/m 3,1 km/h (1 Bft) NW 308 2,4 C 6,3 km/h (2 Bft) 100 %
17.02.2017 04:34 2,8 C 97 % 1023,6 hPa 0,0 l/m 3,1 km/h (1 Bft) W 272 2,4 C 6,3 km/h (2 Bft) 100 %
17.02.2017 04:35 2,8 C 97 % 1023,6 hPa 0,0 l/m 0,0 km/h (0 Bft) W-NW 282 2,4 C 0,0 km/h (0 Bft) 100 %
17.02.2017 04:36 2,8 C 97 % 1023,6 hPa 0,0 l/m 2,5 km/h (1 Bft) W 281 2,4 C 3,1 km/h (1 Bft) 100 %
17.02.2017 04:37 2,8 C 97 % 1023,5 hPa 0,0 l/m 2,0 km/h (1 Bft) NW 304 2,4 C 6,3 km/h (2 Bft) 100 %
17.02.2017 04:38 2,8 C 97 % 1023,5 hPa 0,0 l/m 2,0 km/h (1 Bft) W-NW 291 2,4 C 6,3 km/h (2 Bft) 100 %
17.02.2017 04:39 2,8 C 97 % 1023,5 hPa 0,0 l/m 0,7 km/h (0 Bft) NW 307 2,4 C 3,1 km/h (1 Bft) 100 %
17.02.2017 04:40 2,8 C 97 % 1023,5 hPa 0,0 l/m 0,7 km/h (0 Bft) W-NW 297 2,4 C 3,1 km/h (1 Bft) 100 %
17.02.2017 04:41 2,8 C 97 % 1023,5 hPa 0,0 l/m 3,6 km/h (1 Bft) W 276 2,4 C 6,3 km/h (2 Bft) 100 %
17.02.2017 04:42 2,9 C 97 % 1023,5 hPa 0,0 l/m 0,5 km/h (0 Bft) W-NW 296 2,5 C 3,1 km/h (1 Bft) 100 %
17.02.2017 04:43 2,9 C 97 % 1023,6 hPa 0,0 l/m 0,3 km/h (0 Bft) W-SW 255 2,5 C 3,1 km/h (1 Bft) 100 %
17.02.2017 04:44 2,9 C 97 % 1023,5 hPa 0,0 l/m 1,3 km/h (1 Bft) W 278 2,5 C 6,3 km/h (2 Bft) 100 %
17.02.2017 04:45 2,9 C 97 % 1023,5 hPa 0,0 l/m 2,5 km/h (1 Bft) W-SW 257 2,5 C 9,4 km/h (2 Bft) 100 %
17.02.2017 04:46 2,9 C 97 % 1023,5 hPa 0,0 l/m 1,4 km/h (1 Bft) W-NW 300 2,5 C 3,1 km/h (1 Bft) 100 %
17.02.2017 04:47 3,0 C 97 % 1023,5 hPa 0,0 l/m 2,0 km/h (1 Bft) W 264 2,6 C 6,3 km/h (2 Bft) 100 %
17.02.2017 04:48 3,0 C 97 % 1023,5 hPa 0,0 l/m 0,3 km/h (0 Bft) W 264 2,6 C 3,1 km/h (1 Bft) 100 %
17.02.2017 04:49 3,1 C 97 % 1023,4 hPa 0,0 l/m 0,7 km/h (0 Bft) W-NW 289 2,7 C 3,1 km/h (1 Bft) 100 %
17.02.2017 04:50 3,1 C 97 % 1023,5 hPa 0,0 l/m 0,0 km/h (0 Bft) W-NW 289 2,7 C 0,0 km/h (0 Bft) 100 %
17.02.2017 04:51 3,1 C 97 % 1023,5 hPa 0,0 l/m 2,2 km/h (1 Bft) SW 219 2,7 C 6,3 km/h (2 Bft) 100 %
17.02.2017 04:52 3,1 C 97 % 1023,4 hPa 0,0 l/m 0,8 km/h (0 Bft) SW 217 2,7 C 3,1 km/h (1 Bft) 100 %
17.02.2017 04:53 3,1 C 97 % 1023,5 hPa 0,0 l/m 0,1 km/h (0 Bft) SW 228 2,7 C 3,1 km/h (1 Bft) 100 %
17.02.2017 04:54 3,2 C 97 % 1023,5 hPa 0,0 l/m 1,4 km/h (1 Bft) W-SW 238 2,8 C 6,3 km/h (2 Bft) 100 %
17.02.2017 04:55 3,2 C 97 % 1023,4 hPa 0,0 l/m 1,4 km/h (1 Bft) SW 226 2,8 C 6,3 km/h (2 Bft) 100 %
17.02.2017 04:56 3,2 C 97 % 1023,4 hPa 0,0 l/m 0,3 km/h (0 Bft) S-SW 195 2,8 C 3,1 km/h (1 Bft) 100 %
17.02.2017 04:57 3,2 C 97 % 1023,4 hPa 0,0 l/m 0,2 km/h (0 Bft) S-SW 198 2,8 C 3,1 km/h (1 Bft) 100 %
17.02.2017 04:58 3,3 C 97 % 1023,4 hPa 0,0 l/m 0,0 km/h (0 Bft) SW 223 2,9 C 0,0 km/h (0 Bft) 100 %
17.02.2017 04:59 3,3 C 97 % 1023,4 hPa 0,0 l/m 0,5 km/h (0 Bft) W 278 2,9 C 3,1 km/h (1 Bft) 100 %
17.02.2017 05:00 3,3 C 97 % 1023,3 hPa 0,0 l/m 0,0 km/h (0 Bft) N-NW 339 2,9 C 0,0 km/h (0 Bft) 100 %
17.02.2017 05:02 3,3 C 97 % 1023,2 hPa 0,0 l/m 0,4 km/h (0 Bft) W 269 2,9 C 3,1 km/h (1 Bft) 100 %
17.02.2017 05:03 3,3 C 97 % 1023,2 hPa 0,0 l/m 0,5 km/h (0 Bft) SW 230 2,9 C 3,1 km/h (1 Bft) 100 %
17.02.2017 05:04 3,4 C 97 % 1023,2 hPa 0,0 l/m 0,7 km/h (0 Bft) W 259 3,0 C 3,1 km/h (1 Bft) 100 %
17.02.2017 05:05 3,4 C 97 % 1023,2 hPa 0,0 l/m 0,6 km/h (0 Bft) W-SW 250 3,0 C 3,1 km/h (1 Bft) 100 %
17.02.2017 05:06 3,4 C 97 % 1023,2 hPa 0,0 l/m 0,0 km/h (0 Bft) SW 229 3,0 C 0,0 km/h (0 Bft) 100 %
17.02.2017 05:07 3,4 C 97 % 1023,3 hPa 0,0 l/m 0,0 km/h (0 Bft) W-NW 294 3,0 C 0,0 km/h (0 Bft) 100 %
17.02.2017 05:08 3,5 C 97 % 1023,3 hPa 0,0 l/m 0,0 km/h (0 Bft) NW 308 3,1 C 0,0 km/h (0 Bft) 100 %
17.02.2017 05:09 3,5 C 97 % 1023,3 hPa 0,0 l/m 0,0 km/h (0 Bft) W-SW 248 3,1 C 0,0 km/h (0 Bft) 100 %
17.02.2017 05:10 3,5 C 97 % 1023,3 hPa 0,0 l/m 0,0 km/h (0 Bft) W-SW 248 3,1 C 0,0 km/h (0 Bft) 100 %
17.02.2017 05:11 3,5 C 97 % 1023,4 hPa 0,0 l/m 1,0 km/h (0 Bft) W-NW 286 3,1 C 3,1 km/h (1 Bft) 100 %
17.02.2017 05:12 3,5 C 97 % 1023,4 hPa 0,0 l/m 2,0 km/h (1 Bft) NW 307 3,1 C 6,3 km/h (2 Bft) 100 %
17.02.2017 05:13 3,5 C 97 % 1023,4 hPa 0,0 l/m 0,5 km/h (0 Bft) SW 226 3,1 C 3,1 km/h (1 Bft) 100 %
17.02.2017 05:14 3,6 C 97 % 1023,3 hPa 0,0 l/m 0,0 km/h (0 Bft) SO 146 3,2 C 0,0 km/h (0 Bft) 100 %
17.02.2017 05:15 3,6 C 96 % 1023,2 hPa 0,2 l/m 0,0 km/h (0 Bft) S 174 3,0 C 0,0 km/h (0 Bft) 100 %
17.02.2017 05:16 3,6 C 96 % 1023,2 hPa 0,0 l/m 2,8 km/h (1 Bft) S-SW 200 3,0 C 6,3 km/h (2 Bft) 100 %
17.02.2017 05:17 3,6 C 96 % 1023,2 hPa 0,0 l/m 0,4 km/h (0 Bft) NW 307 3,0 C 3,1 km/h (1 Bft) 100 %
17.02.2017 05:18 3,6 C 96 % 1023,2 hPa 0,0 l/m 0,6 km/h (0 Bft) NW 304 3,0 C 3,1 km/h (1 Bft) 100 %
17.02.2017 05:19 3,6 C 96 % 1023,2 hPa 0,0 l/m 0,0 km/h (0 Bft) NW 304 3,0 C 0,0 km/h (0 Bft) 100 %
17.02.2017 05:20 3,6 C 96 % 1023,2 hPa 0,0 l/m 0,8 km/h (0 Bft) W-NW 294 3,0 C 3,1 km/h (1 Bft) 100 %
17.02.2017 05:21 3,5 C 96 % 1023,1 hPa 0,0 l/m 0,9 km/h (0 Bft) W 276 2,9 C 3,1 km/h (1 Bft) 96 %
17.02.2017 05:22 3,5 C 96 % 1023,2 hPa 0,0 l/m 0,7 km/h (0 Bft) SW 226 2,9 C 3,1 km/h (1 Bft) 100 %
17.02.2017 05:23 3,5 C 96 % 1023,2 hPa 0,0 l/m 5,5 km/h (1 Bft) SW 214 2,9 C 12,6 km/h (3 Bft) 100 %
17.02.2017 05:24 3,5 C 96 % 1023,2 hPa 0,0 l/m 3,0 km/h (1 Bft) W-NW 302 2,9 C 9,4 km/h (2 Bft) 100 %
17.02.2017 05:25 3,5 C 96 % 1023,2 hPa 0,0 l/m 1,6 km/h (1 Bft) W 280 2,9 C 6,3 km/h (2 Bft) 100 %
17.02.2017 05:26 3,4 C 96 % 1023,2 hPa 0,0 l/m 0,9 km/h (0 Bft) NW 325 2,8 C 3,1 km/h (1 Bft) 100 %
17.02.2017 05:27 3,4 C 96 % 1023,3 hPa 0,0 l/m 1,0 km/h (0 Bft) NW 315 2,8 C 6,3 km/h (2 Bft) 100 %
17.02.2017 05:28 3,4 C 96 % 1023,2 hPa 0,0 l/m 3,1 km/h (1 Bft) W 266 2,8 C 6,3 km/h (2 Bft) 100 %
17.02.2017 05:29 3,4 C 96 % 1023,2 hPa 0,0 l/m 0,2 km/h (0 Bft) W 269 2,8 C 3,1 km/h (1 Bft) 100 %
17.02.2017 05:30 3,4 C 96 % 1023,2 hPa 0,0 l/m 0,1 km/h (0 Bft) NW 311 2,8 C 3,1 km/h (1 Bft) 100 %
17.02.2017 05:31 3,4 C 96 % 1023,2 hPa 0,0 l/m 0,0 km/h (0 Bft) NW 311 2,8 C 0,0 km/h (0 Bft) 100 %
17.02.2017 05:32 3,4 C 96 % 1023,2 hPa 0,2 l/m 0,8 km/h (0 Bft) SW 226 2,8 C 3,1 km/h (1 Bft) 100 %
17.02.2017 05:33 3,4 C 96 % 1023,2 hPa 0,0 l/m 1,8 km/h (1 Bft) W 278 2,8 C 9,4 km/h (2 Bft) 100 %
17.02.2017 05:34 3,4 C 96 % 1023,2 hPa 0,0 l/m 0,9 km/h (0 Bft) W 268 2,8 C 3,1 km/h (1 Bft) 100 %
17.02.2017 05:35 3,4 C 96 % 1023,2 hPa 0,0 l/m 1,2 km/h (1 Bft) W-NW 299 2,8 C 3,1 km/h (1 Bft) 100 %
17.02.2017 05:36 3,4 C 96 % 1023,2 hPa 0,0 l/m 0,0 km/h (0 Bft) NW 315 2,8 C 0,0 km/h (0 Bft) 100 %
17.02.2017 05:37 3,4 C 96 % 1023,2 hPa 0,0 l/m 4,0 km/h (1 Bft) W 268 2,8 C 6,3 km/h (2 Bft) 100 %
17.02.2017 05:38 3,4 C 96 % 1023,2 hPa 0,0 l/m 0,2 km/h (0 Bft) W-SW 255 2,8 C 3,1 km/h (1 Bft) 100 %
17.02.2017 05:39 3,4 C 96 % 1023,2 hPa 0,0 l/m 0,8 km/h (0 Bft) W-NW 285 2,8 C 3,1 km/h (1 Bft) 100 %
17.02.2017 05:40 3,4 C 96 % 1023,2 hPa 0,0 l/m 0,3 km/h (0 Bft) N 350 2,8 C 3,1 km/h (1 Bft) 100 %
17.02.2017 05:41 3,3 C 96 % 1023,2 hPa 0,0 l/m 1,7 km/h (1 Bft) SW 233 2,7 C 6,3 km/h (2 Bft) 100 %
17.02.2017 05:42 3,3 C 96 % 1023,2 hPa 0,0 l/m 0,3 km/h (0 Bft) SW 218 2,7 C 3,1 km/h (1 Bft) 100 %
17.02.2017 05:43 3,3 C 96 % 1023,1 hPa 0,0 l/m 0,6 km/h (0 Bft) SW 234 2,7 C 3,1 km/h (1 Bft) 100 %
17.02.2017 05:44 3,3 C 96 % 1023,2 hPa 0,0 l/m 1,4 km/h (1 Bft) S-SW 211 2,7 C 6,3 km/h (2 Bft) 100 %
17.02.2017 05:45 3,3 C 96 % 1023,2 hPa 0,0 l/m 0,0 km/h (0 Bft) SW 229 2,7 C 0,0 km/h (0 Bft) 100 %
17.02.2017 05:46 3,3 C 96 % 1023,1 hPa 0,0 l/m 1,3 km/h (1 Bft) W 276 2,7 C 3,1 km/h (1 Bft) 100 %
17.02.2017 05:47 3,3 C 96 % 1023,1 hPa 0,0 l/m 1,1 km/h (1 Bft) SW 236 2,7 C 6,3 km/h (2 Bft) 100 %
17.02.2017 05:48 3,3 C 96 % 1023,1 hPa 0,0 l/m 0,4 km/h (0 Bft) W-NW 301 2,7 C 3,1 km/h (1 Bft) 100 %
17.02.2017 05:49 3,3 C 97 % 1023,1 hPa 0,0 l/m 1,2 km/h (1 Bft) W-SW 239 2,9 C 3,1 km/h (1 Bft) 100 %
17.02.2017 05:50 3,3 C 97 % 1023,1 hPa 0,0 l/m 3,8 km/h (1 Bft) W-NW 291 2,9 C 9,4 km/h (2 Bft) 100 %
17.02.2017 05:51 3,3 C 97 % 1023,0 hPa 0,0 l/m 0,8 km/h (0 Bft) SW 233 2,9 C 6,3 km/h (2 Bft) 100 %
17.02.2017 05:52 3,3 C 97 % 1023,0 hPa 0,0 l/m 1,0 km/h (0 Bft) SW 224 2,9 C 3,1 km/h (1 Bft) 100 %
17.02.2017 05:53 3,3 C 97 % 1023,0 hPa 0,0 l/m 0,0 km/h (0 Bft) W-NW 287 2,9 C 0,0 km/h (0 Bft) 100 %
17.02.2017 05:54 3,3 C 97 % 1022,9 hPa 0,0 l/m 0,2 km/h (0 Bft) W 280 2,9 C 3,1 km/h (1 Bft) 100 %
17.02.2017 05:55 3,3 C 97 % 1022,9 hPa 0,0 l/m 1,1 km/h (1 Bft) W-NW 292 2,9 C 6,3 km/h (2 Bft) 100 %
17.02.2017 05:56 3,3 C 97 % 1022,9 hPa 0,0 l/m 0,2 km/h (0 Bft) W-NW 292 2,9 C 3,1 km/h (1 Bft) 100 %
17.02.2017 05:57 3,3 C 97 % 1022,9 hPa 0,0 l/m 1,4 km/h (1 Bft) W-NW 289 2,9 C 3,1 km/h (1 Bft) 100 %
17.02.2017 05:58 3,3 C 97 % 1022,9 hPa 0,0 l/m 0,6 km/h (0 Bft) W 281 2,9 C 3,1 km/h (1 Bft) 100 %
17.02.2017 05:59 3,3 C 97 % 1022,9 hPa 0,0 l/m 1,6 km/h (1 Bft) W 263 2,9 C 6,3 km/h (2 Bft) 100 %
17.02.2017 06:00 3,3 C 97 % 1022,8 hPa 0,0 l/m 0,8 km/h (0 Bft) N 354 2,9 C 3,1 km/h (1 Bft) 100 %
17.02.2017 06:01 3,3 C 97 % 1022,8 hPa 0,0 l/m 0,0 km/h (0 Bft) N-NW 338 2,9 C 0,0 km/h (0 Bft) 100 %
17.02.2017 06:02 3,3 C 97 % 1022,7 hPa 0,0 l/m 1,0 km/h (0 Bft) W-SW 245 2,9 C 3,1 km/h (1 Bft) 100 %
17.02.2017 06:03 3,3 C 97 % 1022,7 hPa 0,0 l/m 1,7 km/h (1 Bft) W 274 2,9 C 3,1 km/h (1 Bft) 100 %
17.02.2017 06:04 3,3 C 97 % 1022,8 hPa 0,0 l/m 0,6 km/h (0 Bft) SW 233 2,9 C 3,1 km/h (1 Bft) 100 %
17.02.2017 06:05 3,3 C 97 % 1022,8 hPa 0,0 l/m 0,0 km/h (0 Bft) W-SW 244 2,9 C 0,0 km/h (0 Bft) 100 %
17.02.2017 06:06 3,3 C 97 % 1022,7 hPa 0,0 l/m 0,9 km/h (0 Bft) S-SW 207 2,9 C 3,1 km/h (1 Bft) 100 %
17.02.2017 06:07 3,3 C 97 % 1022,7 hPa 0,0 l/m 0,1 km/h (0 Bft) SO 144 2,9 C 3,1 km/h (1 Bft) 100 %
17.02.2017 06:08 3,3 C 97 % 1022,7 hPa 0,0 l/m 2,1 km/h (1 Bft) S-SW 212 2,9 C 6,3 km/h (2 Bft) 100 %
17.02.2017 06:09 3,3 C 97 % 1022,7 hPa 0,0 l/m 0,4 km/h (0 Bft) S-SO 160 2,9 C 3,1 km/h (1 Bft) 100 %
17.02.2017 06:10 3,3 C 97 % 1022,7 hPa 0,0 l/m 1,0 km/h (0 Bft) W-NW 295 2,9 C 3,1 km/h (1 Bft) 96 %
17.02.2017 06:11 3,3 C 97 % 1022,6 hPa 0,0 l/m 0,1 km/h (0 Bft) W-SW 247 2,9 C 3,1 km/h (1 Bft) 100 %
17.02.2017 06:12 3,3 C 97 % 1022,6 hPa 0,0 l/m 0,9 km/h (0 Bft) N 356 2,9 C 3,1 km/h (1 Bft) 100 %
17.02.2017 06:13 3,3 C 97 % 1022,6 hPa 0,0 l/m 0,5 km/h (0 Bft) SW 227 2,9 C 6,3 km/h (2 Bft) 92 %
17.02.2017 06:14 3,3 C 97 % 1022,5 hPa 0,0 l/m 0,4 km/h (0 Bft) NW 313 2,9 C 3,1 km/h (1 Bft) 100 %
17.02.2017 06:15 3,3 C 97 % 1022,5 hPa 0,0 l/m 0,0 km/h (0 Bft) NW 312 2,9 C 0,0 km/h (0 Bft) 100 %
17.02.2017 06:16 3,3 C 97 % 1022,6 hPa 0,0 l/m 0,5 km/h (0 Bft) NW 316 2,9 C 3,1 km/h (1 Bft) 100 %
17.02.2017 06:17 3,3 C 97 % 1022,5 hPa 0,0 l/m 0,7 km/h (0 Bft) W 279 2,9 C 6,3 km/h (2 Bft) 92 %
17.02.2017 06:18 3,3 C 97 % 1022,5 hPa 0,0 l/m 1,1 km/h (1 Bft) S-SW 200 2,9 C 3,1 km/h (1 Bft) 100 %
17.02.2017 06:19 3,3 C 97 % 1022,5 hPa 0,0 l/m 0,3 km/h (0 Bft) S 183 2,9 C 3,1 km/h (1 Bft) 100 %
17.02.2017 06:20 3,2 C 97 % 1022,5 hPa 0,0 l/m 0,1 km/h (0 Bft) W-NW 290 2,8 C 3,1 km/h (1 Bft) 96 %
17.02.2017 06:21 3,3 C 97 % 1022,5 hPa 0,0 l/m 0,5 km/h (0 Bft) S-SO 155 2,9 C 3,1 km/h (1 Bft) 100 %
17.02.2017 06:22 3,3 C 97 % 1022,5 hPa 0,0 l/m 2,5 km/h (1 Bft) N-NW 342 2,9 C 6,3 km/h (2 Bft) 94 %
17.02.2017 06:23 3,3 C 97 % 1022,4 hPa 0,0 l/m 0,5 km/h (0 Bft) W-NW 294 2,9 C 3,1 km/h (1 Bft) 100 %
17.02.2017 06:24 3,3 C 97 % 1022,4 hPa 0,0 l/m 2,0 km/h (1 Bft) W-NW 291 2,9 C 3,1 km/h (1 Bft) 100 %
17.02.2017 06:25 3,3 C 97 % 1022,4 hPa 0,0 l/m 0,7 km/h (0 Bft) SW 226 2,9 C 3,1 km/h (1 Bft) 100 %
17.02.2017 06:26 3,3 C 97 % 1022,4 hPa 0,0 l/m 0,4 km/h (0 Bft) W-SW 254 2,9 C 3,1 km/h (1 Bft) 100 %
17.02.2017 06:27 3,3 C 97 % 1022,4 hPa 0,0 l/m 1,4 km/h (1 Bft) N-NW 339 2,9 C 3,1 km/h (1 Bft) 100 %
17.02.2017 06:28 3,3 C 97 % 1022,4 hPa 0,0 l/m 0,0 km/h (0 Bft) N-NW 331 2,9 C 0,0 km/h (0 Bft) 96 %
17.02.2017 06:29 3,3 C 97 % 1022,4 hPa 0,0 l/m 0,0 km/h (0 Bft) W-NW 297 2,9 C 0,0 km/h (0 Bft) 100 %
17.02.2017 06:30 3,3 C 97 % 1022,5 hPa 0,0 l/m 1,7 km/h (1 Bft) W 267 2,9 C 3,1 km/h (1 Bft) 96 %
17.02.2017 06:31 3,2 C 97 % 1022,5 hPa 0,0 l/m 0,0 km/h (0 Bft) N 352 2,8 C 0,0 km/h (0 Bft) 100 %
17.02.2017 06:32 3,2 C 97 % 1022,4 hPa 0,0 l/m 0,0 km/h (0 Bft) W 275 2,8 C 0,0 km/h (0 Bft) 96 %
17.02.2017 06:33 3,2 C 97 % 1022,4 hPa 0,0 l/m 0,1 km/h (0 Bft) W 275 2,8 C 3,1 km/h (1 Bft) 96 %
17.02.2017 06:34 3,2 C 97 % 1022,5 hPa 0,0 l/m 0,0 km/h (0 Bft) W 272 2,8 C 0,0 km/h (0 Bft) 100 %
17.02.2017 06:35 3,2 C 97 % 1022,5 hPa 0,0 l/m 0,8 km/h (0 Bft) NW 305 2,8 C 3,1 km/h (1 Bft) 97 %
17.02.2017 06:36 3,2 C 97 % 1022,5 hPa 0,0 l/m 0,1 km/h (0 Bft) NW 318 2,8 C 3,1 km/h (1 Bft) 100 %
17.02.2017 06:37 3,2 C 97 % 1022,5 hPa 0,0 l/m 0,2 km/h (0 Bft) W 274 2,8 C 3,1 km/h (1 Bft) 96 %
17.02.2017 06:38 3,2 C 97 % 1022,5 hPa 0,0 l/m 0,4 km/h (0 Bft) W-SW 240 2,8 C 3,1 km/h (1 Bft) 100 %
17.02.2017 06:39 3,2 C 97 % 1022,5 hPa 0,0 l/m 0,2 km/h (0 Bft) W 281 2,8 C 3,1 km/h (1 Bft) 96 %
17.02.2017 06:40 3,2 C 97 % 1022,5 hPa 0,0 l/m 1,5 km/h (1 Bft) W-SW 244 2,8 C 3,1 km/h (1 Bft) 96 %
17.02.2017 06:41 3,2 C 97 % 1022,5 hPa 0,0 l/m 0,7 km/h (0 Bft) SW 236 2,8 C 3,1 km/h (1 Bft) 100 %
17.02.2017 06:42 3,2 C 97 % 1022,4 hPa 0,0 l/m 0,0 km/h (0 Bft) W 275 2,8 C 0,0 km/h (0 Bft) 96 %
17.02.2017 06:43 3,2 C 97 % 1022,5 hPa 0,0 l/m 0,4 km/h (0 Bft) W-SW 252 2,8 C 3,1 km/h (1 Bft) 100 %
17.02.2017 06:44 3,2 C 97 % 1022,5 hPa 0,0 l/m 2,1 km/h (1 Bft) NW 322 2,8 C 6,3 km/h (2 Bft) 96 %
17.02.2017 06:45 3,2 C 97 % 1022,5 hPa 0,0 l/m 2,5 km/h (1 Bft) SW 235 2,8 C 9,4 km/h (2 Bft) 100 %
17.02.2017 06:46 3,2 C 97 % 1022,5 hPa 0,0 l/m 1,2 km/h (1 Bft) W-SW 244 2,8 C 3,1 km/h (1 Bft) 96 %
17.02.2017 06:47 3,3 C 98 % 1022,5 hPa 0,0 l/m 3,1 km/h (1 Bft) W-NW 296 3,0 C 6,3 km/h (2 Bft) 97 %
17.02.2017 06:48 3,3 C 98 % 1022,5 hPa 0,0 l/m 1,6 km/h (1 Bft) W 274 3,0 C 6,3 km/h (2 Bft) 100 %
17.02.2017 06:49 3,4 C 98 % 1022,5 hPa 0,0 l/m 1,4 km/h (1 Bft) W-NW 283 3,1 C 6,3 km/h (2 Bft) 96 %
17.02.2017 06:50 3,4 C 98 % 1022,5 hPa 0,0 l/m 0,0 km/h (0 Bft) W-NW 285 3,1 C 0,0 km/h (0 Bft) 100 %
17.02.2017 06:51 3,4 C 98 % 1022,5 hPa 0,0 l/m 2,5 km/h (1 Bft) NW 310 3,1 C 3,1 km/h (1 Bft) 83 %
17.02.2017 06:52 3,5 C 98 % 1022,5 hPa 0,0 l/m 0,5 km/h (0 Bft) NW 308 3,2 C 6,3 km/h (2 Bft) 100 %
17.02.2017 06:53 3,6 C 98 % 1022,5 hPa 0,0 l/m 2,7 km/h (1 Bft) W-NW 288 3,3 C 6,3 km/h (2 Bft) 96 %
17.02.2017 06:54 3,6 C 98 % 1022,5 hPa 0,0 l/m 1,4 km/h (1 Bft) NW 326 3,3 C 3,1 km/h (1 Bft) 100 %
17.02.2017 06:55 3,6 C 97 % 1022,5 hPa 0,0 l/m 0,5 km/h (0 Bft) SW 233 3,2 C 3,1 km/h (1 Bft) 96 %
17.02.2017 06:56 3,7 C 97 % 1022,5 hPa 0,0 l/m 0,0 km/h (0 Bft) NW 309 3,3 C 0,0 km/h (0 Bft) 100 %
17.02.2017 06:57 3,7 C 97 % 1022,5 hPa 0,0 l/m 0,5 km/h (0 Bft) NW 309 3,3 C 3,1 km/h (1 Bft) 96 %
17.02.2017 06:58 3,7 C 97 % 1022,5 hPa 0,0 l/m 1,2 km/h (1 Bft) W-NW 298 3,3 C 3,1 km/h (1 Bft) 96 %
17.02.2017 06:59 3,7 C 97 % 1022,5 hPa 0,0 l/m 1,0 km/h (0 Bft) NW 307 3,3 C 3,1 km/h (1 Bft) 100 %
17.02.2017 07:00 3,8 C 97 % 1022,5 hPa 0,0 l/m 2,5 km/h (1 Bft) W-NW 303 3,4 C 3,1 km/h (1 Bft) 96 %
17.02.2017 07:01 3,8 C 97 % 1022,5 hPa 0,0 l/m 0,3 km/h (0 Bft) NW 304 3,4 C 3,1 km/h (1 Bft) 100 %
17.02.2017 07:02 3,8 C 97 % 1022,5 hPa 0,0 l/m 2,5 km/h (1 Bft) NW 309 3,4 C 6,3 km/h (2 Bft) 96 %
17.02.2017 07:03 3,9 C 97 % 1022,5 hPa 0,0 l/m 1,0 km/h (0 Bft) NW 309 3,5 C 3,1 km/h (1 Bft) 100 %
17.02.2017 07:04 3,9 C 97 % 1022,6 hPa 0,0 l/m 1,3 km/h (1 Bft) NW 309 3,5 C 3,1 km/h (1 Bft) 93 %
17.02.2017 07:05 3,9 C 97 % 1022,5 hPa 0,0 l/m 0,4 km/h (0 Bft) NW 309 3,5 C 3,1 km/h (1 Bft) 100 %
17.02.2017 07:06 3,9 C 97 % 1022,5 hPa 0,0 l/m 0,1 km/h (0 Bft) W-NW 290 3,5 C 3,1 km/h (1 Bft) 96 %
17.02.2017 07:07 3,9 C 97 % 1022,5 hPa 0,0 l/m 0,0 km/h (0 Bft) W-NW 290 3,5 C 0,0 km/h (0 Bft) 100 %
17.02.2017 07:08 3,9 C 97 % 1022,5 hPa 0,0 l/m 0,0 km/h (0 Bft) W-NW 290 3,5 C 0,0 km/h (0 Bft) 100 %
17.02.2017 07:09 3,9 C 97 % 1022,5 hPa 0,0 l/m 0,0 km/h (0 Bft) W-NW 290 3,5 C 0,0 km/h (0 Bft) 100 %
17.02.2017 07:10 3,9 C 97 % 1022,5 hPa 0,0 l/m 0,0 km/h (0 Bft) NW 310 3,5 C 0,0 km/h (0 Bft) 100 %
17.02.2017 07:11 3,9 C 97 % 1022,5 hPa 0,0 l/m 0,0 km/h (0 Bft) NW 309 3,5 C 0,0 km/h (0 Bft) 100 %
17.02.2017 07:12 3,9 C 96 % 1022,5 hPa 0,0 l/m 0,0 km/h (0 Bft) NW 309 3,3 C 0,0 km/h (0 Bft) 100 %
17.02.2017 07:13 3,9 C 96 % 1022,5 hPa 0,0 l/m 0,0 km/h (0 Bft) NW 309 3,3 C 0,0 km/h (0 Bft) 100 %
17.02.2017 07:14 3,9 C 96 % 1022,5 hPa 0,0 l/m 0,0 km/h (0 Bft) NW 309 3,3 C 0,0 km/h (0 Bft) 100 %
17.02.2017 07:15 3,9 C 96 % 1022,5 hPa 0,0 l/m 0,3 km/h (0 Bft) SW 214 3,3 C 3,1 km/h (1 Bft) 100 %
17.02.2017 07:16 3,9 C 96 % 1022,6 hPa 0,0 l/m 0,1 km/h (0 Bft) S-SW 207 3,3 C 3,1 km/h (1 Bft) 100 %
17.02.2017 07:17 3,9 C 96 % 1022,6 hPa 0,0 l/m 0,0 km/h (0 Bft) NW 319 3,3 C 0,0 km/h (0 Bft) 100 %
17.02.2017 07:18 3,9 C 96 % 1022,6 hPa 0,0 l/m 2,2 km/h (1 Bft) W 262 3,3 C 6,3 km/h (2 Bft) 100 %
17.02.2017 07:19 3,9 C 96 % 1022,6 hPa 0,0 l/m 0,2 km/h (0 Bft) W 262 3,3 C 3,1 km/h (1 Bft) 100 %
17.02.2017 07:20 3,9 C 96 % 1022,6 hPa 0,0 l/m 0,8 km/h (0 Bft) S-SW 205 3,3 C 3,1 km/h (1 Bft) 100 %
17.02.2017 07:21 3,9 C 96 % 1022,6 hPa 0,0 l/m 0,0 km/h (0 Bft) NW 317 3,3 C 0,0 km/h (0 Bft) 100 %
17.02.2017 07:22 3,9 C 96 % 1022,6 hPa 0,0 l/m 0,4 km/h (0 Bft) W-NW 290 3,3 C 3,1 km/h (1 Bft) 100 %
17.02.2017 07:23 3,8 C 96 % 1022,7 hPa 0,0 l/m 0,2 km/h (0 Bft) W-NW 296 3,2 C 3,1 km/h (1 Bft) 100 %
17.02.2017 07:24 3,8 C 96 % 1022,7 hPa 0,0 l/m 0,0 km/h (0 Bft) W-NW 295 3,2 C 0,0 km/h (0 Bft) 100 %
17.02.2017 07:25 3,8 C 96 % 1022,6 hPa 0,0 l/m 0,9 km/h (0 Bft) W-SW 252 3,2 C 3,1 km/h (1 Bft) 100 %
17.02.2017 07:26 3,8 C 96 % 1022,6 hPa 0,2 l/m 0,1 km/h (0 Bft) W-SW 254 3,2 C 3,1 km/h (1 Bft) 100 %
17.02.2017 07:27 3,8 C 96 % 1022,6 hPa 0,0 l/m 0,0 km/h (0 Bft) W-SW 254 3,2 C 0,0 km/h (0 Bft) 100 %
17.02.2017 07:28 3,8 C 96 % 1022,6 hPa 0,0 l/m 0,0 km/h (0 Bft) W 267 3,2 C 0,0 km/h (0 Bft) 100 %
17.02.2017 07:29 3,8 C 96 % 1022,6 hPa 0,0 l/m 0,1 km/h (0 Bft) S-SO 165 3,2 C 3,1 km/h (1 Bft) 100 %
17.02.2017 07:30 3,8 C 97 % 1022,5 hPa 0,0 l/m 1,7 km/h (1 Bft) W-SW 257 3,4 C 3,1 km/h (1 Bft) 100 %
17.02.2017 07:31 3,8 C 97 % 1022,5 hPa 0,0 l/m 0,3 km/h (0 Bft) W 274 3,4 C 3,1 km/h (1 Bft) 100 %
17.02.2017 07:32 3,8 C 97 % 1022,5 hPa 0,0 l/m 0,0 km/h (0 Bft) W 274 3,4 C 0,0 km/h (0 Bft) 100 %
17.02.2017 07:33 3,8 C 97 % 1022,5 hPa 0,0 l/m 0,1 km/h (0 Bft) W 274 3,4 C 3,1 km/h (1 Bft) 100 %
17.02.2017 07:34 3,8 C 97 % 1022,5 hPa 0,0 l/m 0,0 km/h (0 Bft) W-NW 293 3,4 C 0,0 km/h (0 Bft) 100 %
17.02.2017 07:35 3,8 C 97 % 1022,5 hPa 0,0 l/m 0,3 km/h (0 Bft) S 188 3,4 C 3,1 km/h (1 Bft) 100 %
17.02.2017 07:36 3,8 C 97 % 1022,5 hPa 0,0 l/m 0,0 km/h (0 Bft) S 188 3,4 C 0,0 km/h (0 Bft) 100 %
17.02.2017 07:37 3,8 C 97 % 1022,5 hPa 0,0 l/m 0,0 km/h (0 Bft) S 188 3,4 C 0,0 km/h (0 Bft) 100 %
17.02.2017 07:38 3,8 C 97 % 1022,5 hPa 0,0 l/m 0,0 km/h (0 Bft) SW 224 3,4 C 0,0 km/h (0 Bft) 100 %
17.02.2017 07:39 3,8 C 97 % 1022,5 hPa 0,0 l/m 0,8 km/h (0 Bft) SW 222 3,4 C 3,1 km/h (1 Bft) 100 %
17.02.2017 07:40 3,8 C 97 % 1022,5 hPa 0,0 l/m 0,5 km/h (0 Bft) W-SW 243 3,4 C 3,1 km/h (1 Bft) 100 %
17.02.2017 07:41 3,8 C 97 % 1022,5 hPa 0,0 l/m 0,1 km/h (0 Bft) SW 225 3,4 C 3,1 km/h (1 Bft) 100 %
17.02.2017 07:42 3,8 C 97 % 1022,5 hPa 0,0 l/m 1,6 km/h (1 Bft) W 281 3,4 C 3,1 km/h (1 Bft) 100 %
17.02.2017 07:43 3,8 C 97 % 1022,5 hPa 0,0 l/m 0,3 km/h (0 Bft) SW 235 3,4 C 3,1 km/h (1 Bft) 100 %
17.02.2017 07:44 3,8 C 97 % 1022,5 hPa 0,0 l/m 0,3 km/h (0 Bft) SW 226 3,4 C 3,1 km/h (1 Bft) 100 %
17.02.2017 07:45 3,8 C 97 % 1022,5 hPa 0,0 l/m 0,5 km/h (0 Bft) W 271 3,4 C 3,1 km/h (1 Bft) 100 %
17.02.2017 07:46 3,8 C 97 % 1022,5 hPa 0,0 l/m 0,0 km/h (0 Bft) W-NW 289 3,4 C 0,0 km/h (0 Bft) 100 %
17.02.2017 07:47 3,9 C 97 % 1022,5 hPa 0,0 l/m 1,3 km/h (1 Bft) S-SW 210 3,5 C 3,1 km/h (1 Bft) 100 %
17.02.2017 07:48 3,9 C 97 % 1022,5 hPa 0,0 l/m 0,2 km/h (0 Bft) W-NW 288 3,5 C 3,1 km/h (1 Bft) 100 %
17.02.2017 07:49 3,9 C 97 % 1022,5 hPa 0,0 l/m 0,1 km/h (0 Bft) S-SW 212 3,5 C 3,1 km/h (1 Bft) 100 %
17.02.2017 07:50 3,9 C 97 % 1022,5 hPa 0,0 l/m 0,7 km/h (0 Bft) W-SW 257 3,5 C 3,1 km/h (1 Bft) 100 %
17.02.2017 07:51 3,9 C 97 % 1022,5 hPa 0,0 l/m 0,0 km/h (0 Bft) W-SW 257 3,5 C 0,0 km/h (0 Bft) 100 %
17.02.2017 07:52 3,9 C 97 % 1022,5 hPa 0,0 l/m 0,4 km/h (0 Bft) S-SW 192 3,5 C 3,1 km/h (1 Bft) 100 %
17.02.2017 07:53 3,9 C 97 % 1022,5 hPa 0,0 l/m 2,4 km/h (1 Bft) SW 217 3,5 C 6,3 km/h (2 Bft) 100 %
17.02.2017 07:54 3,9 C 97 % 1022,4 hPa 0,0 l/m 0,3 km/h (0 Bft) S-SW 211 3,5 C 3,1 km/h (1 Bft) 100 %
17.02.2017 07:55 4,0 C 97 % 1022,5 hPa 0,0 l/m 5,3 km/h (1 Bft) W-SW 248 3,6 C 12,6 km/h (3 Bft) 100 %
17.02.2017 07:56 4,0 C 97 % 1022,4 hPa 0,0 l/m 1,6 km/h (1 Bft) W 276 3,6 C 3,1 km/h (1 Bft) 100 %
17.02.2017 07:57 4,0 C 97 % 1022,4 hPa 0,0 l/m 1,8 km/h (1 Bft) SW 229 3,6 C 3,1 km/h (1 Bft) 100 %
17.02.2017 07:58 4,0 C 97 % 1022,4 hPa 0,0 l/m 2,0 km/h (1 Bft) SW 230 3,6 C 6,3 km/h (2 Bft) 100 %
17.02.2017 07:59 4,0 C 97 % 1022,5 hPa 0,0 l/m 0,2 km/h (0 Bft) NW 321 3,6 C 3,1 km/h (1 Bft) 100 %
17.02.2017 08:00 4,1 C 97 % 1022,5 hPa 0,0 l/m 2,0 km/h (1 Bft) S-SW 195 3,7 C 9,4 km/h (2 Bft) 100 %
17.02.2017 08:01 4,1 C 97 % 1022,5 hPa 0,0 l/m 4,4 km/h (1 Bft) NW 307 3,7 C 9,4 km/h (2 Bft) 100 %
17.02.2017 08:02 4,1 C 97 % 1022,5 hPa 0,0 l/m 1,6 km/h (1 Bft) N-NW 338 3,7 C 3,1 km/h (1 Bft) 100 %
17.02.2017 08:03 4,1 C 97 % 1022,5 hPa 0,0 l/m 2,6 km/h (1 Bft) W-NW 283 3,7 C 6,3 km/h (2 Bft) 100 %
17.02.2017 08:04 4,1 C 97 % 1022,5 hPa 0,0 l/m 1,2 km/h (1 Bft) W 276 3,7 C 3,1 km/h (1 Bft) 100 %
17.02.2017 08:05 4,0 C 96 % 1022,5 hPa 0,0 l/m 2,6 km/h (1 Bft) NW 310 3,4 C 6,3 km/h (2 Bft) 100 %
17.02.2017 08:06 4,0 C 96 % 1022,5 hPa 0,0 l/m 2,7 km/h (1 Bft) W-SW 240 3,4 C 6,3 km/h (2 Bft) 100 %
17.02.2017 08:07 4,0 C 96 % 1022,5 hPa 0,0 l/m 0,7 km/h (0 Bft) W 271 3,4 C 6,3 km/h (2 Bft) 100 %
17.02.2017 08:08 4,0 C 96 % 1022,5 hPa 0,0 l/m 0,3 km/h (0 Bft) SW 236 3,4 C 3,1 km/h (1 Bft) 100 %
17.02.2017 08:09 4,0 C 96 % 1022,5 hPa 0,0 l/m 1,9 km/h (1 Bft) NW 308 3,4 C 3,1 km/h (1 Bft) 100 %
17.02.2017 08:10 3,9 C 96 % 1022,5 hPa 0,0 l/m 5,3 km/h (1 Bft) W-SW 257 3,3 C 12,6 km/h (3 Bft) 100 %
17.02.2017 08:11 3,9 C 96 % 1022,5 hPa 0,0 l/m 0,5 km/h (0 Bft) W-NW 282 3,3 C 3,1 km/h (1 Bft) 100 %
17.02.2017 08:12 3,9 C 96 % 1022,5 hPa 0,0 l/m 2,7 km/h (1 Bft) NW 316 3,3 C 9,4 km/h (2 Bft) 100 %
17.02.2017 08:13 3,9 C 96 % 1022,5 hPa 0,0 l/m 1,3 km/h (1 Bft) NW 324 3,3 C 3,1 km/h (1 Bft) 100 %
17.02.2017 08:14 3,9 C 96 % 1022,5 hPa 0,0 l/m 3,4 km/h (1 Bft) W-SW 250 3,3 C 9,4 km/h (2 Bft) 100 %
17.02.2017 08:15 3,9 C 96 % 1022,5 hPa 0,0 l/m 3,8 km/h (1 Bft) W 278 3,3 C 9,4 km/h (2 Bft) 100 %
17.02.2017 08:16 3,9 C 96 % 1022,5 hPa 0,0 l/m 3,7 km/h (1 Bft) S 187 3,3 C 9,4 km/h (2 Bft) 100 %
17.02.2017 08:17 3,8 C 96 % 1022,4 hPa 0,2 l/m 2,0 km/h (1 Bft) W 275 3,2 C 9,4 km/h (2 Bft) 100 %
17.02.2017 08:18 3,8 C 96 % 1022,4 hPa 0,0 l/m 3,3 km/h (1 Bft) W 264 3,2 C 6,3 km/h (2 Bft) 100 %
17.02.2017 08:19 3,8 C 96 % 1022,5 hPa 0,0 l/m 3,1 km/h (1 Bft) W 262 3,2 C 6,3 km/h (2 Bft) 100 %
17.02.2017 08:20 3,8 C 96 % 1022,5 hPa 0,0 l/m 5,7 km/h (1 Bft) S-SW 204 3,2 C 12,6 km/h (3 Bft) 100 %
17.02.2017 08:21 3,8 C 96 % 1022,5 hPa 0,0 l/m 5,5 km/h (1 Bft) W-SW 248 3,2 C 15,7 km/h (3 Bft) 96 %
17.02.2017 08:22 3,8 C 96 % 1022,5 hPa 0,0 l/m 4,1 km/h (1 Bft) SW 226 3,2 C 12,6 km/h (3 Bft) 96 %
17.02.2017 08:23 3,8 C 96 % 1022,5 hPa 0,0 l/m 5,2 km/h (1 Bft) S-SO 167 3,2 C 12,6 km/h (3 Bft) 100 %
17.02.2017 08:24 3,7 C 96 % 1022,5 hPa 0,0 l/m 6,4 km/h (2 Bft) SW 229 3,1 C 15,7 km/h (3 Bft) 100 %
17.02.2017 08:25 3,7 C 97 % 1022,5 hPa 0,0 l/m 2,8 km/h (1 Bft) NW 322 3,3 C 9,4 km/h (2 Bft) 100 %
17.02.2017 08:26 3,7 C 96 % 1022,5 hPa 0,0 l/m 4,9 km/h (1 Bft) W 277 3,1 C 12,6 km/h (3 Bft) 100 %
17.02.2017 08:27 3,7 C 96 % 1022,5 hPa 0,2 l/m 5,2 km/h (1 Bft) S-SW 197 3,1 C 6,3 km/h (2 Bft) 100 %
17.02.2017 08:28 3,7 C 97 % 1022,5 hPa 0,0 l/m 0,3 km/h (0 Bft) S-SW 200 3,3 C 3,1 km/h (1 Bft) 100 %
17.02.2017 08:29 3,7 C 97 % 1022,5 hPa 0,0 l/m 3,4 km/h (1 Bft) SW 219 3,3 C 9,4 km/h (2 Bft) 100 %
17.02.2017 08:30 3,7 C 97 % 1022,5 hPa 0,0 l/m 1,7 km/h (1 Bft) W-SW 255 3,3 C 6,3 km/h (2 Bft) 100 %
17.02.2017 08:31 3,7 C 97 % 1022,4 hPa 0,0 l/m 2,5 km/h (1 Bft) W-SW 255 3,3 C 6,3 km/h (2 Bft) 100 %
17.02.2017 08:32 3,6 C 97 % 1022,4 hPa 0,0 l/m 0,5 km/h (0 Bft) W-SW 255 3,2 C 3,1 km/h (1 Bft) 100 %
17.02.2017 08:33 3,6 C 97 % 1022,4 hPa 0,0 l/m 1,6 km/h (1 Bft) SW 233 3,2 C 6,3 km/h (2 Bft) 100 %
17.02.2017 08:34 3,6 C 97 % 1022,4 hPa 0,0 l/m 2,6 km/h (1 Bft) N-NW 348 3,2 C 6,3 km/h (2 Bft) 100 %
17.02.2017 08:35 3,6 C 97 % 1022,4 hPa 0,2 l/m 3,1 km/h (1 Bft) NW 310 3,2 C 6,3 km/h (2 Bft) 100 %
17.02.2017 08:36 3,6 C 97 % 1022,4 hPa 0,0 l/m 1,2 km/h (1 Bft) O 96 3,2 C 6,3 km/h (2 Bft) 100 %
17.02.2017 08:37 3,6 C 97 % 1022,4 hPa 0,0 l/m 2,1 km/h (1 Bft) S-SW 198 3,2 C 6,3 km/h (2 Bft) 100 %
17.02.2017 08:38 3,6 C 97 % 1022,4 hPa 0,0 l/m 7,1 km/h (2 Bft) S 187 3,2 C 12,6 km/h (3 Bft) 100 %
17.02.2017 08:39 3,6 C 97 % 1022,4 hPa 0,0 l/m 0,7 km/h (0 Bft) W 271 3,2 C 3,1 km/h (1 Bft) 100 %
17.02.2017 08:40 3,6 C 97 % 1022,4 hPa 0,0 l/m 3,1 km/h (1 Bft) NW 307 3,2 C 9,4 km/h (2 Bft) 100 %
17.02.2017 08:41 3,6 C 97 % 1022,4 hPa 0,0 l/m 0,5 km/h (0 Bft) W-SW 247 3,2 C 3,1 km/h (1 Bft) 100 %
17.02.2017 08:42 3,6 C 97 % 1022,4 hPa 0,0 l/m 4,9 km/h (1 Bft) SW 224 3,2 C 9,4 km/h (2 Bft) 100 %
17.02.2017 08:43 3,6 C 97 % 1022,4 hPa 0,0 l/m 2,0 km/h (1 Bft) S-SO 150 3,2 C 3,1 km/h (1 Bft) 100 %
17.02.2017 08:44 3,6 C 97 % 1022,3 hPa 0,0 l/m 1,5 km/h (1 Bft) NW 304 3,2 C 6,3 km/h (2 Bft) 100 %
17.02.2017 08:45 3,6 C 97 % 1022,4 hPa 0,0 l/m 3,1 km/h (1 Bft) W-NW 288 3,2 C 9,4 km/h (2 Bft) 100 %
17.02.2017 08:46 3,6 C 97 % 1022,4 hPa 0,0 l/m 3,3 km/h (1 Bft) S-SO 149 3,2 C 6,3 km/h (2 Bft) 100 %
17.02.2017 08:47 3,6 C 97 % 1022,4 hPa 0,0 l/m 3,6 km/h (1 Bft) O 95 3,2 C 9,4 km/h (2 Bft) 100 %
17.02.2017 08:48 3,6 C 97 % 1022,4 hPa 0,0 l/m 5,1 km/h (1 Bft) NW 314 3,2 C 12,6 km/h (3 Bft) 100 %
17.02.2017 08:49 3,6 C 97 % 1022,4 hPa 0,0 l/m 2,8 km/h (1 Bft) NW 309 3,2 C 6,3 km/h (2 Bft) 100 %
17.02.2017 08:50 3,6 C 97 % 1022,4 hPa 0,0 l/m 1,0 km/h (0 Bft) SW 216 3,2 C 15,7 km/h (3 Bft) 100 %
17.02.2017 08:51 3,6 C 97 % 1022,4 hPa 0,0 l/m 6,7 km/h (2 Bft) S-SW 193 3,2 C 15,7 km/h (3 Bft) 100 %
17.02.2017 08:52 3,6 C 97 % 1022,4 hPa 0,0 l/m 4,8 km/h (1 Bft) S-SO 149 3,2 C 9,4 km/h (2 Bft) 100 %
17.02.2017 08:53 3,6 C 97 % 1022,4 hPa 0,0 l/m 2,0 km/h (1 Bft) W-NW 282 3,2 C 6,3 km/h (2 Bft) 100 %
17.02.2017 08:54 3,6 C 97 % 1022,4 hPa 0,0 l/m 0,6 km/h (0 Bft) N 4 3,2 C 3,1 km/h (1 Bft) 100 %
17.02.2017 08:55 3,6 C 97 % 1022,3 hPa 0,0 l/m 4,3 km/h (1 Bft) N-NO 16 3,2 C 9,4 km/h (2 Bft) 100 %
17.02.2017 08:56 3,6 C 97 % 1022,3 hPa 0,0 l/m 1,5 km/h (1 Bft) W-SW 255 3,2 C 3,1 km/h (1 Bft) 100 %
17.02.2017 08:57 3,6 C 97 % 1022,4 hPa 0,0 l/m 2,7 km/h (1 Bft) S 191 3,2 C 9,4 km/h (2 Bft) 100 %
17.02.2017 08:58 3,6 C 97 % 1022,3 hPa 0,0 l/m 0,5 km/h (0 Bft) N 354 3,2 C 3,1 km/h (1 Bft) 100 %
17.02.2017 08:59 3,6 C 97 % 1022,3 hPa 0,0 l/m 2,6 km/h (1 Bft) W-SW 243 3,2 C 12,6 km/h (3 Bft) 100 %
17.02.2017 09:00 3,6 C 97 % 1022,4 hPa 0,0 l/m 7,7 km/h (2 Bft) SO 131 3,2 C 18,8 km/h (3 Bft) 100 %
17.02.2017 09:01 3,6 C 97 % 1022,3 hPa 0,0 l/m 3,4 km/h (1 Bft) SW 227 3,2 C 9,4 km/h (2 Bft) 100 %
17.02.2017 09:02 3,6 C 97 % 1022,3 hPa 0,0 l/m 2,6 km/h (1 Bft) N-NW 328 3,2 C 6,3 km/h (2 Bft) 100 %
17.02.2017 09:03 3,6 C 97 % 1022,4 hPa 0,2 l/m 6,2 km/h (2 Bft) SW 231 3,2 C 12,6 km/h (3 Bft) 100 %
17.02.2017 09:04 3,6 C 97 % 1022,4 hPa 0,0 l/m 1,0 km/h (0 Bft) S-SO 153 3,2 C 3,1 km/h (1 Bft) 100 %
17.02.2017 09:05 3,6 C 97 % 1022,3 hPa 0,0 l/m 11,1 km/h (2 Bft) SW 223 3,2 C 15,7 km/h (3 Bft) 100 %
17.02.2017 09:06 3,6 C 97 % 1022,3 hPa 0,0 l/m 6,4 km/h (2 Bft) W-SW 241 3,2 C 15,7 km/h (3 Bft) 100 %
17.02.2017 09:07 3,6 C 97 % 1022,2 hPa 0,0 l/m 3,1 km/h (1 Bft) SW 218 3,2 C 6,3 km/h (2 Bft) 100 %
17.02.2017 09:08 3,6 C 97 % 1022,2 hPa 0,0 l/m 0,8 km/h (0 Bft) O-NO 66 3,2 C 3,1 km/h (1 Bft) 100 %
17.02.2017 09:09 3,6 C 97 % 1022,3 hPa 0,0 l/m 4,4 km/h (1 Bft) S 191 3,2 C 9,4 km/h (2 Bft) 100 %
17.02.2017 09:10 3,6 C 97 % 1022,4 hPa 0,0 l/m 0,9 km/h (0 Bft) SW 235 3,2 C 3,1 km/h (1 Bft) 100 %
17.02.2017 09:11 3,6 C 97 % 1022,4 hPa 0,0 l/m 3,9 km/h (1 Bft) SW 234 3,2 C 12,6 km/h (3 Bft) 100 %
17.02.2017 09:12 3,6 C 97 % 1022,4 hPa 0,0 l/m 0,7 km/h (0 Bft) W 259 3,2 C 3,1 km/h (1 Bft) 100 %
17.02.2017 09:13 3,6 C 97 % 1022,4 hPa 0,0 l/m 1,5 km/h (1 Bft) SW 231 3,2 C 6,3 km/h (2 Bft) 100 %
17.02.2017 09:14 3,6 C 97 % 1022,4 hPa 0,0 l/m 8,0 km/h (2 Bft) SW 217 3,2 C 12,6 km/h (3 Bft) 96 %
17.02.2017 09:15 3,6 C 97 % 1022,4 hPa 0,0 l/m 1,1 km/h (1 Bft) SW 226 3,2 C 6,3 km/h (2 Bft) 100 %
17.02.2017 09:16 3,6 C 97 % 1022,4 hPa 0,0 l/m 1,6 km/h (1 Bft) S-SO 158 3,2 C 6,3 km/h (2 Bft) 100 %
17.02.2017 09:17 3,6 C 97 % 1022,4 hPa 0,0 l/m 1,9 km/h (1 Bft) S-SO 155 3,2 C 12,6 km/h (3 Bft) 93 %
17.02.2017 09:18 3,6 C 97 % 1022,3 hPa 0,0 l/m 1,0 km/h (0 Bft) NW 313 3,2 C 6,3 km/h (2 Bft) 100 %
17.02.2017 09:19 3,6 C 97 % 1022,4 hPa 0,0 l/m 0,2 km/h (0 Bft) NW 317 3,2 C 3,1 km/h (1 Bft) 96 %
17.02.2017 09:20 3,6 C 97 % 1022,4 hPa 0,0 l/m 1,6 km/h (1 Bft) W-NW 295 3,2 C 6,3 km/h (2 Bft) 96 %
17.02.2017 09:21 3,6 C 97 % 1022,4 hPa 0,0 l/m 1,7 km/h (1 Bft) S-SO 148 3,2 C 3,1 km/h (1 Bft) 100 %
17.02.2017 09:22 3,6 C 97 % 1022,4 hPa 0,0 l/m 1,9 km/h (1 Bft) W 281 3,2 C 6,3 km/h (2 Bft) 96 %
17.02.2017 09:23 3,6 C 97 % 1022,4 hPa 0,0 l/m 0,4 km/h (0 Bft) W 281 3,2 C 3,1 km/h (1 Bft) 100 %
17.02.2017 09:24 3,6 C 97 % 1022,4 hPa 0,0 l/m 0,1 km/h (0 Bft) W-NW 285 3,2 C 3,1 km/h (1 Bft) 100 %
17.02.2017 09:25 3,6 C 97 % 1022,3 hPa 0,0 l/m 0,0 km/h (0 Bft) W-SW 254 3,2 C 0,0 km/h (0 Bft) 100 %
17.02.2017 09:26 3,6 C 97 % 1022,4 hPa 0,0 l/m 2,2 km/h (1 Bft) W-SW 246 3,2 C 6,3 km/h (2 Bft) 100 %
17.02.2017 09:27 3,6 C 98 % 1022,4 hPa 0,0 l/m 0,6 km/h (0 Bft) W-SW 253 3,3 C 6,3 km/h (2 Bft) 96 %
17.02.2017 09:28 3,6 C 98 % 1022,4 hPa 0,0 l/m 3,7 km/h (1 Bft) W 278 3,3 C 12,6 km/h (3 Bft) 100 %
17.02.2017 09:29 3,6 C 98 % 1022,4 hPa 0,0 l/m 2,4 km/h (1 Bft) W 265 3,3 C 6,3 km/h (2 Bft) 96 %
17.02.2017 09:30 3,6 C 98 % 1022,3 hPa 0,0 l/m 0,1 km/h (0 Bft) W 261 3,3 C 3,1 km/h (1 Bft) 100 %
17.02.2017 09:31 3,7 C 98 % 1022,3 hPa 0,0 l/m 0,0 km/h (0 Bft) W-SW 250 3,4 C 0,0 km/h (0 Bft) 96 %
17.02.2017 09:32 3,7 C 98 % 1022,3 hPa 0,0 l/m 2,8 km/h (1 Bft) W 267 3,4 C 9,4 km/h (2 Bft) 100 %
17.02.2017 09:33 3,7 C 98 % 1022,3 hPa 0,0 l/m 0,4 km/h (0 Bft) W-SW 241 3,4 C 3,1 km/h (1 Bft) 96 %
17.02.2017 09:34 3,7 C 98 % 1022,3 hPa 0,0 l/m 3,9 km/h (1 Bft) SW 235 3,4 C 6,3 km/h (2 Bft) 96 %
17.02.2017 09:35 3,7 C 98 % 1022,3 hPa 0,0 l/m 1,2 km/h (1 Bft) SW 226 3,4 C 3,1 km/h (1 Bft) 100 %
17.02.2017 09:36 3,7 C 98 % 1022,2 hPa 0,0 l/m 1,3 km/h (1 Bft) W-SW 248 3,4 C 6,3 km/h (2 Bft) 96 %
17.02.2017 09:37 3,7 C 98 % 1022,3 hPa 0,0 l/m 0,2 km/h (0 Bft) W-SW 248 3,4 C 3,1 km/h (1 Bft) 100 %
17.02.2017 09:38 3,8 C 98 % 1022,3 hPa 0,0 l/m 0,2 km/h (0 Bft) SW 230 3,5 C 3,1 km/h (1 Bft) 97 %
17.02.2017 09:39 3,8 C 98 % 1022,3 hPa 0,0 l/m 0,0 km/h (0 Bft) NO 40 3,5 C 0,0 km/h (0 Bft) 100 %
17.02.2017 09:40 3,8 C 98 % 1022,3 hPa 0,0 l/m 2,2 km/h (1 Bft) SW 228 3,5 C 6,3 km/h (2 Bft) 95 %
17.02.2017 09:41 3,8 C 98 % 1022,3 hPa 0,0 l/m 0,0 km/h (0 Bft) W-SW 257 3,5 C 0,0 km/h (0 Bft) 100 %
17.02.2017 09:46 3,8 C 98 % 1022,3 hPa 0,0 l/m 0,0 km/h (0 Bft) S 188 3,5 C 0,0 km/h (0 Bft) 100 %
17.02.2017 09:47 3,8 C 98 % 1022,4 hPa 0,0 l/m 0,7 km/h (0 Bft) W-SW 238 3,5 C 3,1 km/h (1 Bft) 96 %
17.02.2017 09:48 3,9 C 98 % 1022,4 hPa 0,0 l/m 0,3 km/h (0 Bft) W-SW 240 3,6 C 3,1 km/h (1 Bft) 100 %
17.02.2017 09:49 3,9 C 98 % 1022,4 hPa 0,0 l/m 0,0 km/h (0 Bft) W-SW 241 3,6 C 0,0 km/h (0 Bft) 96 %
17.02.2017 09:50 3,9 C 98 % 1022,4 hPa 0,0 l/m 0,7 km/h (0 Bft) SW 235 3,6 C 3,1 km/h (1 Bft) 100 %
17.02.2017 09:51 3,9 C 98 % 1022,4 hPa 0,0 l/m 0,1 km/h (0 Bft) SW 214 3,6 C 3,1 km/h (1 Bft) 96 %
17.02.2017 09:52 3,9 C 98 % 1022,4 hPa 0,2 l/m 0,2 km/h (0 Bft) NW 318 3,6 C 3,1 km/h (1 Bft) 100 %
17.02.2017 09:53 3,9 C 98 % 1022,4 hPa 0,0 l/m 0,0 km/h (0 Bft) W-SW 255 3,6 C 0,0 km/h (0 Bft) 96 %
17.02.2017 09:54 3,9 C 98 % 1022,4 hPa 0,0 l/m 0,0 km/h (0 Bft) S-SO 156 3,6 C 0,0 km/h (0 Bft) 100 %
17.02.2017 09:55 3,9 C 98 % 1022,4 hPa 0,0 l/m 1,0 km/h (0 Bft) W 264 3,6 C 3,1 km/h (1 Bft) 96 %
17.02.2017 09:56 3,9 C 98 % 1022,4 hPa 0,0 l/m 0,0 km/h (0 Bft) W-SW 247 3,6 C 0,0 km/h (0 Bft) 100 %
17.02.2017 09:57 3,9 C 98 % 1022,5 hPa 0,0 l/m 1,1 km/h (1 Bft) W-SW 257 3,6 C 3,1 km/h (1 Bft) 100 %
17.02.2017 09:58 4,0 C 98 % 1022,4 hPa 0,0 l/m 2,2 km/h (1 Bft) S-SO 155 3,7 C 3,1 km/h (1 Bft) 100 %
17.02.2017 09:59 4,0 C 98 % 1022,4 hPa 0,0 l/m 0,3 km/h (0 Bft) S-SW 204 3,7 C 3,1 km/h (1 Bft) 100 %
17.02.2017 10:00 4,0 C 98 % 1022,4 hPa 0,0 l/m 2,0 km/h (1 Bft) N-NO 25 3,7 C 6,3 km/h (2 Bft) 100 %
17.02.2017 10:01 4,0 C 98 % 1022,4 hPa 0,0 l/m 1,6 km/h (1 Bft) S-SW 210 3,7 C 6,3 km/h (2 Bft) 96 %
17.02.2017 10:02 4,0 C 98 % 1022,4 hPa 0,0 l/m 4,3 km/h (1 Bft) S-SW 204 3,7 C 12,6 km/h (3 Bft) 100 %
17.02.2017 10:03 4,1 C 98 % 1022,5 hPa 0,0 l/m 2,4 km/h (1 Bft) W-SW 248 3,8 C 6,3 km/h (2 Bft) 100 %
17.02.2017 10:04 4,1 C 98 % 1022,5 hPa 0,0 l/m 0,7 km/h (0 Bft) S-SO 159 3,8 C 6,3 km/h (2 Bft) 100 %
17.02.2017 10:05 4,1 C 98 % 1022,5 hPa 0,0 l/m 0,0 km/h (0 Bft) S-SO 160 3,8 C 0,0 km/h (0 Bft) 100 %
17.02.2017 10:06 4,1 C 98 % 1022,5 hPa 0,0 l/m 0,0 km/h (0 Bft) S-SO 160 3,8 C 0,0 km/h (0 Bft) 100 %
17.02.2017 10:07 4,1 C 98 % 1022,4 hPa 0,0 l/m 0,0 km/h (0 Bft) S-SO 160 3,8 C 0,0 km/h (0 Bft) 100 %
17.02.2017 10:08 4,1 C 98 % 1022,4 hPa 0,0 l/m 0,0 km/h (0 Bft) S-SO 160 3,8 C 0,0 km/h (0 Bft) 100 %
17.02.2017 10:09 4,1 C 98 % 1022,5 hPa 0,0 l/m 0,0 km/h (0 Bft) SW 224 3,8 C 0,0 km/h (0 Bft) 100 %
17.02.2017 10:10 4,1 C 98 % 1022,5 hPa 0,0 l/m 2,2 km/h (1 Bft) SW 221 3,8 C 6,3 km/h (2 Bft) 100 %
17.02.2017 10:11 4,1 C 98 % 1022,4 hPa 0,0 l/m 0,8 km/h (0 Bft) O-SO 118 3,8 C 3,1 km/h (1 Bft) 100 %
17.02.2017 10:12 4,1 C 98 % 1022,4 hPa 0,0 l/m 1,1 km/h (1 Bft) SW 218 3,8 C 6,3 km/h (2 Bft) 100 %
17.02.2017 10:13 4,2 C 98 % 1022,4 hPa 0,2 l/m 0,7 km/h (0 Bft) S-SW 199 3,9 C 3,1 km/h (1 Bft) 100 %
17.02.2017 10:14 4,2 C 98 % 1022,4 hPa 0,0 l/m 1,4 km/h (1 Bft) S-SW 193 3,9 C 3,1 km/h (1 Bft) 100 %
17.02.2017 10:15 4,2 C 98 % 1022,4 hPa 0,0 l/m 2,8 km/h (1 Bft) S 184 3,9 C 6,3 km/h (2 Bft) 100 %
17.02.2017 10:16 4,2 C 98 % 1022,4 hPa 0,0 l/m 0,7 km/h (0 Bft) W 270 3,9 C 3,1 km/h (1 Bft) 100 %
17.02.2017 10:17 4,2 C 98 % 1022,4 hPa 0,0 l/m 3,8 km/h (1 Bft) W-NW 293 3,9 C 9,4 km/h (2 Bft) 100 %
17.02.2017 10:18 4,2 C 98 % 1022,4 hPa 0,0 l/m 2,1 km/h (1 Bft) N 1 3,9 C 9,4 km/h (2 Bft) 100 %
17.02.2017 10:19 4,2 C 98 % 1022,4 hPa 0,0 l/m 1,6 km/h (1 Bft) W-SW 243 3,9 C 6,3 km/h (2 Bft) 100 %
17.02.2017 10:20 4,2 C 98 % 1022,4 hPa 0,0 l/m 0,3 km/h (0 Bft) SW 227 3,9 C 3,1 km/h (1 Bft) 100 %
17.02.2017 10:21 4,2 C 98 % 1022,4 hPa 0,0 l/m 0,0 km/h (0 Bft) SW 228 3,9 C 0,0 km/h (0 Bft) 100 %
17.02.2017 10:22 4,2 C 98 % 1022,5 hPa 0,0 l/m 0,1 km/h (0 Bft) SW 234 3,9 C 3,1 km/h (1 Bft) 100 %
17.02.2017 10:23 4,2 C 98 % 1022,5 hPa 0,0 l/m 0,5 km/h (0 Bft) S-SW 198 3,9 C 3,1 km/h (1 Bft) 100 %
17.02.2017 10:24 4,2 C 98 % 1022,4 hPa 0,0 l/m 2,7 km/h (1 Bft) S-SW 211 3,9 C 6,3 km/h (2 Bft) 100 %
17.02.2017 10:25 4,3 C 98 % 1022,4 hPa 0,0 l/m 0,0 km/h (0 Bft) S-SW 207 4,0 C 0,0 km/h (0 Bft) 100 %
17.02.2017 10:26 4,3 C 98 % 1022,4 hPa 0,0 l/m 1,1 km/h (1 Bft) W 275 4,0 C 3,1 km/h (1 Bft) 100 %
17.02.2017 10:27 4,3 C 98 % 1022,4 hPa 0,0 l/m 0,5 km/h (0 Bft) W-SW 247 4,0 C 3,1 km/h (1 Bft) 100 %
17.02.2017 10:28 4,3 C 98 % 1022,4 hPa 0,0 l/m 0,1 km/h (0 Bft) S-SW 202 4,0 C 3,1 km/h (1 Bft) 100 %
17.02.2017 10:29 4,3 C 98 % 1022,3 hPa 0,0 l/m 0,0 km/h (0 Bft) S-SW 202 4,0 C 0,0 km/h (0 Bft) 100 %
17.02.2017 10:30 4,3 C 98 % 1022,3 hPa 0,0 l/m 0,5 km/h (0 Bft) NO 44 4,0 C 3,1 km/h (1 Bft) 100 %
17.02.2017 10:31 4,4 C 98 % 1022,3 hPa 0,0 l/m 0,1 km/h (0 Bft) NO 46 4,1 C 3,1 km/h (1 Bft) 100 %
17.02.2017 10:32 4,4 C 98 % 1022,3 hPa 0,0 l/m 0,0 km/h (0 Bft) W-SW 243 4,1 C 0,0 km/h (0 Bft) 100 %
17.02.2017 10:33 4,4 C 98 % 1022,3 hPa 0,0 l/m 0,0 km/h (0 Bft) W-SW 243 4,1 C 0,0 km/h (0 Bft) 100 %
17.02.2017 10:34 4,4 C 98 % 1022,4 hPa 0,0 l/m 0,0 km/h (0 Bft) W-SW 239 4,1 C 0,0 km/h (0 Bft) 100 %
17.02.2017 10:35 4,4 C 98 % 1022,4 hPa 0,0 l/m 0,0 km/h (0 Bft) W-SW 238 4,1 C 0,0 km/h (0 Bft) 100 %
17.02.2017 10:36 4,5 C 98 % 1022,3 hPa 0,0 l/m 0,6 km/h (0 Bft) S 177 4,2 C 3,1 km/h (1 Bft) 100 %
17.02.2017 10:37 4,5 C 98 % 1022,3 hPa 0,0 l/m 0,0 km/h (0 Bft) S 181 4,2 C 0,0 km/h (0 Bft) 100 %
17.02.2017 10:38 4,6 C 98 % 1022,3 hPa 0,0 l/m 0,0 km/h (0 Bft) SW 235 4,3 C 0,0 km/h (0 Bft) 100 %
17.02.2017 10:39 4,6 C 98 % 1022,3 hPa 0,0 l/m 1,7 km/h (1 Bft) SW 214 4,3 C 6,3 km/h (2 Bft) 100 %
17.02.2017 10:40 4,6 C 98 % 1022,3 hPa 0,0 l/m 2,5 km/h (1 Bft) SW 221 4,3 C 6,3 km/h (2 Bft) 100 %
17.02.2017 10:41 4,6 C 98 % 1022,4 hPa 0,0 l/m 3,0 km/h (1 Bft) S-SO 150 4,3 C 9,4 km/h (2 Bft) 100 %
17.02.2017 10:42 4,6 C 98 % 1022,4 hPa 0,0 l/m 0,0 km/h (0 Bft) S-SO 150 4,3 C 0,0 km/h (0 Bft) 100 %
17.02.2017 10:43 4,6 C 98 % 1022,4 hPa 0,2 l/m 0,0 km/h (0 Bft) S-SO 150 4,3 C 0,0 km/h (0 Bft) 100 %
17.02.2017 10:44 4,6 C 98 % 1022,3 hPa 0,0 l/m 0,0 km/h (0 Bft) S 171 4,3 C 0,0 km/h (0 Bft) 100 %
17.02.2017 10:45 4,7 C 98 % 1022,4 hPa 0,0 l/m 0,0 km/h (0 Bft) S 171 4,4 C 0,0 km/h (0 Bft) 100 %
17.02.2017 10:46 4,7 C 98 % 1022,4 hPa 0,0 l/m 0,0 km/h (0 Bft) S-SO 167 4,4 C 0,0 km/h (0 Bft) 100 %
17.02.2017 10:47 4,7 C 98 % 1022,4 hPa 0,0 l/m 0,0 km/h (0 Bft) S-SO 167 4,4 C 0,0 km/h (0 Bft) 100 %
17.02.2017 10:48 4,7 C 98 % 1022,4 hPa 0,0 l/m 0,0 km/h (0 Bft) S-SO 167 4,4 C 0,0 km/h (0 Bft) 100 %
17.02.2017 10:49 4,7 C 98 % 1022,4 hPa 0,0 l/m 0,1 km/h (0 Bft) W 278 4,4 C 3,1 km/h (1 Bft) 100 %
17.02.2017 10:50 4,7 C 98 % 1022,4 hPa 0,0 l/m 0,7 km/h (0 Bft) SW 227 4,4 C 3,1 km/h (1 Bft) 100 %
17.02.2017 10:51 4,7 C 98 % 1022,3 hPa 0,0 l/m 1,0 km/h (0 Bft) W-NW 294 4,4 C 6,3 km/h (2 Bft) 100 %
17.02.2017 10:52 4,7 C 98 % 1022,4 hPa 0,0 l/m 0,1 km/h (0 Bft) W-NW 293 4,4 C 3,1 km/h (1 Bft) 100 %
17.02.2017 10:53 4,7 C 98 % 1022,3 hPa 0,0 l/m 0,1 km/h (0 Bft) NW 313 4,4 C 3,1 km/h (1 Bft) 100 %
17.02.2017 10:54 4,7 C 98 % 1022,4 hPa 0,0 l/m 0,5 km/h (0 Bft) W-NW 300 4,4 C 3,1 km/h (1 Bft) 100 %
17.02.2017 10:55 4,7 C 98 % 1022,4 hPa 0,0 l/m 0,3 km/h (0 Bft) SW 221 4,4 C 3,1 km/h (1 Bft) 100 %
17.02.2017 10:56 4,7 C 98 % 1022,4 hPa 0,0 l/m 0,0 km/h (0 Bft) SW 221 4,4 C 0,0 km/h (0 Bft) 100 %
17.02.2017 10:57 4,7 C 98 % 1022,4 hPa 0,0 l/m 1,7 km/h (1 Bft) SO 134 4,4 C 6,3 km/h (2 Bft) 100 %
17.02.2017 10:58 4,7 C 98 % 1022,4 hPa 0,0 l/m 0,4 km/h (0 Bft) NW 306 4,4 C 3,1 km/h (1 Bft) 96 %
17.02.2017 10:59 4,7 C 98 % 1022,3 hPa 0,0 l/m 0,3 km/h (0 Bft) S 186 4,4 C 3,1 km/h (1 Bft) 100 %
17.02.2017 11:00 4,7 C 98 % 1022,3 hPa 0,0 l/m 0,0 km/h (0 Bft) S 186 4,4 C 0,0 km/h (0 Bft) 100 %
17.02.2017 11:01 4,7 C 98 % 1022,3 hPa 0,0 l/m 1,0 km/h (0 Bft) W-SW 250 4,4 C 3,1 km/h (1 Bft) 100 %
17.02.2017 11:02 4,7 C 98 % 1022,3 hPa 0,0 l/m 0,2 km/h (0 Bft) W-NW 289 4,4 C 3,1 km/h (1 Bft) 100 %
17.02.2017 11:03 4,8 C 98 % 1022,3 hPa 0,0 l/m 5,0 km/h (1 Bft) SW 234 4,5 C 12,6 km/h (3 Bft) 100 %
17.02.2017 11:04 4,7 C 98 % 1022,3 hPa 0,0 l/m 1,7 km/h (1 Bft) SW 227 4,4 C 6,3 km/h (2 Bft) 100 %
17.02.2017 11:05 4,8 C 98 % 1022,4 hPa 0,0 l/m 0,0 km/h (0 Bft) NW 319 4,5 C 0,0 km/h (0 Bft) 100 %
17.02.2017 11:06 4,8 C 98 % 1022,3 hPa 0,0 l/m 0,0 km/h (0 Bft) W 269 4,5 C 0,0 km/h (0 Bft) 100 %
17.02.2017 11:07 4,8 C 98 % 1022,4 hPa 0,0 l/m 0,4 km/h (0 Bft) S-SW 193 4,5 C 3,1 km/h (1 Bft) 100 %
17.02.2017 11:08 4,8 C 98 % 1022,4 hPa 0,0 l/m 0,6 km/h (0 Bft) W-SW 243 4,5 C 3,1 km/h (1 Bft) 100 %
17.02.2017 11:09 4,7 C 97 % 1022,3 hPa 0,0 l/m 3,6 km/h (1 Bft) W 271 4,3 C 6,3 km/h (2 Bft) 100 %
17.02.2017 11:10 4,7 C 97 % 1022,4 hPa 0,0 l/m 1,2 km/h (1 Bft) W-SW 248 4,3 C 3,1 km/h (1 Bft) 100 %
17.02.2017 11:11 4,7 C 97 % 1022,4 hPa 0,0 l/m 0,5 km/h (0 Bft) O-SO 108 4,3 C 3,1 km/h (1 Bft) 100 %
17.02.2017 11:12 4,7 C 97 % 1022,4 hPa 0,0 l/m 0,0 km/h (0 Bft) O-SO 121 4,3 C 0,0 km/h (0 Bft) 100 %
17.02.2017 11:13 4,7 C 97 % 1022,4 hPa 0,0 l/m 0,0 km/h (0 Bft) S 179 4,3 C 0,0 km/h (0 Bft) 100 %
17.02.2017 11:14 4,7 C 97 % 1022,4 hPa 0,0 l/m 1,4 km/h (1 Bft) W-SW 255 4,3 C 6,3 km/h (2 Bft) 100 %
17.02.2017 11:15 4,7 C 97 % 1022,4 hPa 0,0 l/m 0,0 km/h (0 Bft) W-NW 290 4,3 C 0,0 km/h (0 Bft) 100 %
17.02.2017 11:16 4,7 C 97 % 1022,4 hPa 0,0 l/m 2,1 km/h (1 Bft) W 274 4,3 C 3,1 km/h (1 Bft) 100 %
17.02.2017 11:17 4,7 C 97 % 1022,5 hPa 0,0 l/m 0,0 km/h (0 Bft) SW 215 4,3 C 0,0 km/h (0 Bft) 100 %
17.02.2017 11:18 4,7 C 97 % 1022,5 hPa 0,0 l/m 0,0 km/h (0 Bft) SW 215 4,3 C 0,0 km/h (0 Bft) 100 %
17.02.2017 11:19 4,7 C 97 % 1022,5 hPa 0,0 l/m 0,1 km/h (0 Bft) SW 215 4,3 C 3,1 km/h (1 Bft) 100 %
17.02.2017 11:20 4,7 C 97 % 1022,5 hPa 0,0 l/m 1,0 km/h (0 Bft) W 264 4,3 C 3,1 km/h (1 Bft) 100 %
17.02.2017 11:21 4,7 C 97 % 1022,5 hPa 0,0 l/m 1,7 km/h (1 Bft) W-NW 297 4,3 C 3,1 km/h (1 Bft) 100 %
17.02.2017 11:22 4,7 C 97 % 1022,5 hPa 0,0 l/m 0,8 km/h (0 Bft) W-NW 297 4,3 C 3,1 km/h (1 Bft) 100 %
17.02.2017 11:23 4,7 C 97 % 1022,5 hPa 0,0 l/m 0,1 km/h (0 Bft) W-NW 297 4,3 C 3,1 km/h (1 Bft) 100 %
17.02.2017 11:24 4,7 C 97 % 1022,4 hPa 0,2 l/m 0,3 km/h (0 Bft) W 268 4,3 C 3,1 km/h (1 Bft) 100 %
17.02.2017 11:25 4,7 C 97 % 1022,4 hPa 0,0 l/m 0,0 km/h (0 Bft) W-NW 297 4,3 C 0,0 km/h (0 Bft) 100 %
17.02.2017 11:26 4,7 C 97 % 1022,4 hPa 0,0 l/m 2,1 km/h (1 Bft) W-NW 292 4,3 C 6,3 km/h (2 Bft) 100 %
17.02.2017 11:27 4,7 C 97 % 1022,4 hPa 0,0 l/m 0,8 km/h (0 Bft) SW 230 4,3 C 3,1 km/h (1 Bft) 100 %
17.02.2017 11:28 4,7 C 97 % 1022,4 hPa 0,0 l/m 2,7 km/h (1 Bft) SO 135 4,3 C 6,3 km/h (2 Bft) 100 %
17.02.2017 11:29 4,7 C 97 % 1022,4 hPa 0,0 l/m 0,0 km/h (0 Bft) SW 214 4,3 C 0,0 km/h (0 Bft) 100 %
17.02.2017 11:30 4,7 C 97 % 1022,4 hPa 0,0 l/m 0,0 km/h (0 Bft) W-SW 252 4,3 C 0,0 km/h (0 Bft) 100 %
17.02.2017 11:31 4,7 C 98 % 1022,4 hPa 0,0 l/m 2,0 km/h (1 Bft) W-NW 300 4,4 C 6,3 km/h (2 Bft) 100 %
17.02.2017 11:32 4,7 C 98 % 1022,5 hPa 0,0 l/m 3,3 km/h (1 Bft) NW 309 4,4 C 6,3 km/h (2 Bft) 92 %
17.02.2017 11:33 4,7 C 98 % 1022,5 hPa 0,0 l/m 0,9 km/h (0 Bft) S-SW 196 4,4 C 3,1 km/h (1 Bft) 100 %
17.02.2017 11:34 4,7 C 98 % 1022,5 hPa 0,0 l/m 0,0 km/h (0 Bft) SW 221 4,4 C 0,0 km/h (0 Bft) 100 %
17.02.2017 11:35 4,7 C 98 % 1022,5 hPa 0,0 l/m 0,1 km/h (0 Bft) W 259 4,4 C 3,1 km/h (1 Bft) 100 %
17.02.2017 11:36 4,7 C 98 % 1022,5 hPa 0,0 l/m 0,0 km/h (0 Bft) W 259 4,4 C 0,0 km/h (0 Bft) 100 %
17.02.2017 11:37 4,7 C 98 % 1022,5 hPa 0,0 l/m 0,0 km/h (0 Bft) W 266 4,4 C 0,0 km/h (0 Bft) 100 %
17.02.2017 11:38 4,8 C 98 % 1022,5 hPa 0,0 l/m 0,0 km/h (0 Bft) W 267 4,5 C 0,0 km/h (0 Bft) 100 %
17.02.2017 11:39 4,8 C 98 % 1022,5 hPa 0,0 l/m 0,0 km/h (0 Bft) W 267 4,5 C 0,0 km/h (0 Bft) 100 %
17.02.2017 11:40 4,8 C 98 % 1022,5 hPa 0,0 l/m 0,1 km/h (0 Bft) W-NW 298 4,5 C 3,1 km/h (1 Bft) 100 %
17.02.2017 11:41 4,8 C 98 % 1022,5 hPa 0,0 l/m 4,1 km/h (1 Bft) W-NW 295 4,5 C 6,3 km/h (2 Bft) 100 %
17.02.2017 11:42 4,8 C 98 % 1022,5 hPa 0,0 l/m 2,0 km/h (1 Bft) W-NW 303 4,5 C 3,1 km/h (1 Bft) 100 %
17.02.2017 11:43 4,8 C 98 % 1022,5 hPa 0,0 l/m 1,3 km/h (1 Bft) W-NW 295 4,5 C 3,1 km/h (1 Bft) 100 %
17.02.2017 11:44 4,8 C 98 % 1022,5 hPa 0,0 l/m 1,8 km/h (1 Bft) W-NW 288 4,5 C 6,3 km/h (2 Bft) 100 %
17.02.2017 11:45 4,8 C 98 % 1022,5 hPa 0,0 l/m 0,9 km/h (0 Bft) W-NW 282 4,5 C 3,1 km/h (1 Bft) 100 %
17.02.2017 11:46 4,8 C 98 % 1022,5 hPa 0,0 l/m 3,5 km/h (1 Bft) W 274 4,5 C 9,4 km/h (2 Bft) 100 %
17.02.2017 11:47 4,9 C 98 % 1022,6 hPa 0,0 l/m 7,8 km/h (2 Bft) W 274 4,6 C 18,8 km/h (3 Bft) 100 %
17.02.2017 11:48 4,9 C 98 % 1022,6 hPa 0,0 l/m 7,6 km/h (2 Bft) NW 308 4,6 C 15,7 km/h (3 Bft) 97 %
17.02.2017 11:49 5,0 C 98 % 1022,6 hPa 0,0 l/m 8,9 km/h (2 Bft) W-NW 302 4,7 C 15,7 km/h (3 Bft) 100 %
17.02.2017 11:50 5,1 C 98 % 1022,6 hPa 0,0 l/m 7,5 km/h (2 Bft) W 264 4,8 C 12,6 km/h (3 Bft) 100 %
17.02.2017 11:51 5,1 C 98 % 1022,6 hPa 0,0 l/m 5,2 km/h (1 Bft) NW 318 4,8 C 9,4 km/h (2 Bft) 100 %
17.02.2017 11:52 5,2 C 98 % 1022,6 hPa 0,0 l/m 8,6 km/h (2 Bft) W 275 4,9 C 22,0 km/h (4 Bft) 100 %
17.02.2017 11:53 5,2 C 98 % 1022,6 hPa 0,0 l/m 12,9 km/h (3 Bft) W 273 4,9 C 22,0 km/h (4 Bft) 100 %
17.02.2017 11:54 5,3 C 98 % 1022,6 hPa 0,0 l/m 13,7 km/h (3 Bft) SW 231 5,0 C 22,0 km/h (4 Bft) 93 %
17.02.2017 11:55 5,3 C 97 % 1022,6 hPa 0,2 l/m 9,4 km/h (2 Bft) NW 319 4,9 C 22,0 km/h (4 Bft) 100 %
17.02.2017 11:56 5,3 C 97 % 1022,6 hPa 0,0 l/m 12,9 km/h (3 Bft) W-NW 287 4,9 C 25,1 km/h (4 Bft) 93 %
17.02.2017 11:57 5,4 C 96 % 1022,6 hPa 0,0 l/m 3,8 km/h (1 Bft) W 278 4,8 C 9,4 km/h (2 Bft) 96 %
17.02.2017 11:58 5,4 C 96 % 1022,6 hPa 0,0 l/m 3,9 km/h (1 Bft) W-SW 243 4,8 C 6,3 km/h (2 Bft) 93 %
17.02.2017 11:59 5,4 C 96 % 1022,6 hPa 0,0 l/m 6,5 km/h (2 Bft) W 281 4,8 C 12,6 km/h (3 Bft) 100 %
17.02.2017 12:00 5,4 C 96 % 1022,6 hPa 0,0 l/m 8,9 km/h (2 Bft) W-SW 251 4,8 C 15,7 km/h (3 Bft) 92 %
17.02.2017 12:02 5,4 C 95 % 1022,6 hPa 0,2 l/m 9,3 km/h (2 Bft) W 263 4,7 C 15,7 km/h (3 Bft) 97 %
17.02.2017 12:03 5,4 C 95 % 1022,6 hPa 0,0 l/m 11,1 km/h (2 Bft) W-NW 291 4,7 C 18,8 km/h (3 Bft) 100 %
17.02.2017 12:04 5,4 C 95 % 1022,6 hPa 0,0 l/m 8,1 km/h (2 Bft) W-SW 252 4,7 C 12,6 km/h (3 Bft) 96 %
17.02.2017 12:05 5,4 C 95 % 1022,6 hPa 0,0 l/m 6,3 km/h (2 Bft) W-SW 246 4,7 C 15,7 km/h (3 Bft) 100 %
17.02.2017 12:06 5,4 C 94 % 1022,6 hPa 0,0 l/m 9,3 km/h (2 Bft) NW 323 4,5 C 18,8 km/h (3 Bft) 96 %
17.02.2017 12:07 5,4 C 94 % 1022,6 hPa 0,0 l/m 10,2 km/h (2 Bft) W 269 4,5 C 12,6 km/h (3 Bft) 96 %
17.02.2017 12:08 5,4 C 94 % 1022,6 hPa 0,0 l/m 8,6 km/h (2 Bft) SW 222 4,5 C 15,7 km/h (3 Bft) 96 %
17.02.2017 12:09 5,4 C 95 % 1022,5 hPa 0,0 l/m 5,8 km/h (2 Bft) W-NW 282 4,7 C 18,8 km/h (3 Bft) 96 %
17.02.2017 12:10 5,4 C 95 % 1022,5 hPa 0,0 l/m 7,5 km/h (2 Bft) S-SW 207 4,7 C 15,7 km/h (3 Bft) 100 %
17.02.2017 12:11 5,5 C 95 % 1022,5 hPa 0,0 l/m 4,1 km/h (1 Bft) W-NW 290 4,8 C 9,4 km/h (2 Bft) 96 %
17.02.2017 12:12 5,5 C 95 % 1022,5 hPa 0,0 l/m 5,0 km/h (1 Bft) N-NW 342 4,8 C 6,3 km/h (2 Bft) 100 %
17.02.2017 12:13 5,6 C 95 % 1022,5 hPa 0,0 l/m 3,1 km/h (1 Bft) W-SW 255 4,9 C 6,3 km/h (2 Bft) 97 %
17.02.2017 12:14 5,6 C 95 % 1022,5 hPa 0,0 l/m 5,2 km/h (1 Bft) NW 315 4,9 C 12,6 km/h (3 Bft) 100 %
17.02.2017 12:15 5,6 C 95 % 1022,5 hPa 0,0 l/m 3,9 km/h (1 Bft) W 268 4,9 C 9,4 km/h (2 Bft) 92 %
17.02.2017 12:17 5,7 C 95 % 1022,5 hPa 0,0 l/m 1,5 km/h (1 Bft) W-SW 248 5,0 C 3,1 km/h (1 Bft) 98 %
17.02.2017 12:18 5,7 C 95 % 1022,5 hPa 0,0 l/m 2,7 km/h (1 Bft) SW 233 5,0 C 6,3 km/h (2 Bft) 92 %
17.02.2017 12:19 5,7 C 95 % 1022,5 hPa 0,0 l/m 9,0 km/h (2 Bft) NW 314 5,0 C 15,7 km/h (3 Bft) 100 %
17.02.2017 12:20 5,7 C 95 % 1022,5 hPa 0,0 l/m 7,2 km/h (2 Bft) W 274 5,0 C 15,7 km/h (3 Bft) 96 %
17.02.2017 12:22 5,7 C 95 % 1022,5 hPa 0,0 l/m 6,0 km/h (2 Bft) W-SW 242 5,0 C 12,6 km/h (3 Bft) 100 %
17.02.2017 12:23 5,8 C 95 % 1022,5 hPa 0,0 l/m 6,6 km/h (2 Bft) SW 231 5,1 C 12,6 km/h (3 Bft) 100 %
17.02.2017 12:24 5,8 C 95 % 1022,5 hPa 0,0 l/m 8,2 km/h (2 Bft) W-NW 290 5,1 C 12,6 km/h (3 Bft) 100 %
17.02.2017 12:25 5,7 C 94 % 1022,5 hPa 0,0 l/m 8,1 km/h (2 Bft) W-SW 238 4,8 C 15,7 km/h (3 Bft) 100 %
17.02.2017 12:27 5,7 C 94 % 1022,5 hPa 0,0 l/m 3,8 km/h (1 Bft) W-SW 252 4,8 C 12,6 km/h (3 Bft) 100 %
17.02.2017 12:28 5,7 C 95 % 1022,5 hPa 0,0 l/m 7,8 km/h (2 Bft) W-SW 257 5,0 C 12,6 km/h (3 Bft) 100 %
17.02.2017 12:29 5,7 C 95 % 1022,5 hPa 0,0 l/m 5,5 km/h (1 Bft) W-NW 295 5,0 C 9,4 km/h (2 Bft) 100 %
17.02.2017 12:30 5,7 C 95 % 1022,5 hPa 0,0 l/m 4,3 km/h (1 Bft) W 264 5,0 C 6,3 km/h (2 Bft) 100 %
17.02.2017 12:32 5,7 C 95 % 1022,5 hPa 0,0 l/m 8,4 km/h (2 Bft) SW 217 5,0 C 15,7 km/h (3 Bft) 100 %
17.02.2017 12:33 5,7 C 95 % 1022,5 hPa 0,0 l/m 5,5 km/h (1 Bft) W-SW 249 5,0 C 12,6 km/h (3 Bft) 100 %
17.02.2017 12:34 5,7 C 95 % 1022,5 hPa 0,0 l/m 6,3 km/h (2 Bft) W 281 5,0 C 12,6 km/h (3 Bft) 100 %
17.02.2017 12:35 5,7 C 95 % 1022,4 hPa 0,0 l/m 6,8 km/h (2 Bft) W-SW 257 5,0 C 9,4 km/h (2 Bft) 100 %
17.02.2017 12:37 5,6 C 95 % 1022,4 hPa 0,0 l/m 7,2 km/h (2 Bft) W 266 4,9 C 12,6 km/h (3 Bft) 100 %
17.02.2017 12:38 5,6 C 95 % 1022,4 hPa 0,0 l/m 4,9 km/h (1 Bft) W-SW 237 4,9 C 9,4 km/h (2 Bft) 100 %
17.02.2017 12:39 5,6 C 95 % 1022,4 hPa 0,0 l/m 4,4 km/h (1 Bft) NW 305 4,9 C 9,4 km/h (2 Bft) 100 %
17.02.2017 12:40 5,6 C 95 % 1022,4 hPa 0,0 l/m 5,5 km/h (1 Bft) W 271 4,9 C 15,7 km/h (3 Bft) 100 %
17.02.2017 12:41 5,6 C 95 % 1022,5 hPa 0,0 l/m 9,1 km/h (2 Bft) W-SW 253 4,9 C 15,7 km/h (3 Bft) 100 %
17.02.2017 12:42 5,6 C 95 % 1022,5 hPa 0,0 l/m 9,5 km/h (2 Bft) W-SW 250 4,9 C 18,8 km/h (3 Bft) 100 %
17.02.2017 12:43 5,6 C 95 % 1022,5 hPa 0,0 l/m 11,0 km/h (2 Bft) W-SW 253 4,9 C 15,7 km/h (3 Bft) 100 %
17.02.2017 12:44 5,6 C 95 % 1022,5 hPa 0,0 l/m 9,5 km/h (2 Bft) W 281 4,9 C 15,7 km/h (3 Bft) 100 %
17.02.2017 12:45 5,6 C 95 % 1022,5 hPa 0,0 l/m 8,9 km/h (2 Bft) W 271 4,9 C 15,7 km/h (3 Bft) 100 %
17.02.2017 12:47 5,6 C 95 % 1022,4 hPa 0,0 l/m 7,8 km/h (2 Bft) W 280 4,9 C 15,7 km/h (3 Bft) 100 %
17.02.2017 12:48 5,6 C 95 % 1022,4 hPa 0,0 l/m 5,8 km/h (2 Bft) W-NW 295 4,9 C 9,4 km/h (2 Bft) 100 %
17.02.2017 12:49 5,6 C 95 % 1022,4 hPa 0,0 l/m 5,8 km/h (2 Bft) SW 228 4,9 C 12,6 km/h (3 Bft) 100 %
17.02.2017 12:50 5,7 C 95 % 1022,4 hPa 0,0 l/m 6,0 km/h (2 Bft) W-SW 258 5,0 C 12,6 km/h (3 Bft) 100 %
17.02.2017 12:51 5,7 C 95 % 1022,4 hPa 0,0 l/m 7,4 km/h (2 Bft) W-NW 288 5,0 C 18,8 km/h (3 Bft) 100 %
17.02.2017 12:52 5,7 C 95 % 1022,4 hPa 0,0 l/m 7,7 km/h (2 Bft) W-SW 257 5,0 C 12,6 km/h (3 Bft) 100 %
17.02.2017 12:53 5,7 C 95 % 1022,4 hPa 0,0 l/m 6,7 km/h (2 Bft) SW 235 5,0 C 9,4 km/h (2 Bft) 100 %
17.02.2017 12:54 5,7 C 95 % 1022,4 hPa 0,0 l/m 7,5 km/h (2 Bft) W 265 5,0 C 12,6 km/h (3 Bft) 100 %
17.02.2017 12:55 5,7 C 95 % 1022,3 hPa 0,0 l/m 5,9 km/h (2 Bft) SW 226 5,0 C 9,4 km/h (2 Bft) 100 %
17.02.2017 12:57 5,7 C 94 % 1022,4 hPa 0,0 l/m 4,4 km/h (1 Bft) NW 307 4,8 C 9,4 km/h (2 Bft) 100 %
17.02.2017 12:58 5,8 C 95 % 1022,4 hPa 0,0 l/m 3,9 km/h (1 Bft) NW 307 5,1 C 6,3 km/h (2 Bft) 100 %
17.02.2017 12:59 5,8 C 95 % 1022,4 hPa 0,0 l/m 6,0 km/h (2 Bft) W-NW 293 5,1 C 12,6 km/h (3 Bft) 100 %
17.02.2017 13:00 5,8 C 95 % 1022,3 hPa 0,0 l/m 8,9 km/h (2 Bft) SW 231 5,1 C 18,8 km/h (3 Bft) 100 %
17.02.2017 13:01 5,8 C 94 % 1022,4 hPa 0,0 l/m 3,4 km/h (1 Bft) W 266 4,9 C 6,3 km/h (2 Bft) 100 %
17.02.2017 13:02 5,8 C 94 % 1022,3 hPa 0,0 l/m 2,7 km/h (1 Bft) SW 224 4,9 C 6,3 km/h (2 Bft) 100 %
17.02.2017 13:03 5,8 C 94 % 1022,3 hPa 0,0 l/m 4,3 km/h (1 Bft) W-NW 302 4,9 C 6,3 km/h (2 Bft) 100 %
17.02.2017 13:04 5,8 C 94 % 1022,3 hPa 0,0 l/m 4,9 km/h (1 Bft) SW 236 4,9 C 6,3 km/h (2 Bft) 100 %
17.02.2017 13:05 5,8 C 94 % 1022,3 hPa 0,0 l/m 8,1 km/h (2 Bft) W-NW 286 4,9 C 12,6 km/h (3 Bft) 100 %
17.02.2017 13:06 5,8 C 94 % 1022,3 hPa 0,0 l/m 7,2 km/h (2 Bft) W-SW 248 4,9 C 12,6 km/h (3 Bft) 100 %
17.02.2017 13:07 5,8 C 94 % 1022,3 hPa 0,0 l/m 5,1 km/h (1 Bft) W-SW 257 4,9 C 12,6 km/h (3 Bft) 100 %
17.02.2017 13:08 5,8 C 93 % 1022,2 hPa 0,0 l/m 3,7 km/h (1 Bft) W-NW 285 4,8 C 9,4 km/h (2 Bft) 100 %
17.02.2017 13:09 5,8 C 93 % 1022,3 hPa 0,0 l/m 5,3 km/h (1 Bft) W-NW 285 4,8 C 12,6 km/h (3 Bft) 100 %
17.02.2017 13:10 5,8 C 93 % 1022,2 hPa 0,0 l/m 2,5 km/h (1 Bft) W-SW 257 4,8 C 6,3 km/h (2 Bft) 100 %
17.02.2017 13:12 5,8 C 93 % 1022,2 hPa 0,0 l/m 4,7 km/h (1 Bft) W-SW 240 4,8 C 12,6 km/h (3 Bft) 100 %
17.02.2017 13:13 5,8 C 93 % 1022,3 hPa 0,0 l/m 4,3 km/h (1 Bft) W 266 4,8 C 6,3 km/h (2 Bft) 100 %
17.02.2017 13:14 5,8 C 93 % 1022,3 hPa 0,0 l/m 4,9 km/h (1 Bft) W-NW 288 4,8 C 9,4 km/h (2 Bft) 100 %
17.02.2017 13:15 5,8 C 93 % 1022,2 hPa 0,0 l/m 9,1 km/h (2 Bft) W 281 4,8 C 15,7 km/h (3 Bft) 100 %
17.02.2017 13:17 5,8 C 93 % 1022,2 hPa 0,0 l/m 4,9 km/h (1 Bft) W 281 4,8 C 9,4 km/h (2 Bft) 100 %
17.02.2017 13:18 5,8 C 93 % 1022,2 hPa 0,0 l/m 5,9 km/h (2 Bft) NW 311 4,8 C 12,6 km/h (3 Bft) 100 %
17.02.2017 13:19 5,8 C 93 % 1022,3 hPa 0,0 l/m 12,3 km/h (3 Bft) W 278 4,8 C 22,0 km/h (4 Bft) 100 %
17.02.2017 13:20 5,9 C 93 % 1022,3 hPa 0,0 l/m 4,9 km/h (1 Bft) SW 233 4,9 C 6,3 km/h (2 Bft) 100 %
17.02.2017 13:22 5,9 C 93 % 1022,2 hPa 0,0 l/m 3,8 km/h (1 Bft) SW 230 4,9 C 9,4 km/h (2 Bft) 100 %
17.02.2017 13:23 5,9 C 94 % 1022,2 hPa 0,0 l/m 12,4 km/h (3 Bft) W-SW 255 5,0 C 25,1 km/h (4 Bft) 100 %
17.02.2017 13:24 5,9 C 93 % 1022,2 hPa 0,0 l/m 8,3 km/h (2 Bft) NW 311 4,9 C 15,7 km/h (3 Bft) 100 %
17.02.2017 13:25 5,9 C 93 % 1022,2 hPa 0,0 l/m 6,7 km/h (2 Bft) W 260 4,9 C 15,7 km/h (3 Bft) 100 %
17.02.2017 13:27 5,9 C 94 % 1022,2 hPa 0,0 l/m 4,8 km/h (1 Bft) W-SW 238 5,0 C 9,4 km/h (2 Bft) 100 %
17.02.2017 13:28 6,0 C 94 % 1022,2 hPa 0,0 l/m 4,9 km/h (1 Bft) W-NW 284 5,1 C 9,4 km/h (2 Bft) 100 %
17.02.2017 13:29 6,0 C 94 % 1022,3 hPa 0,0 l/m 0,7 km/h (0 Bft) W-NW 288 5,1 C 3,1 km/h (1 Bft) 100 %
17.02.2017 13:30 6,0 C 94 % 1022,3 hPa 0,0 l/m 2,4 km/h (1 Bft) W 266 5,1 C 6,3 km/h (2 Bft) 100 %
17.02.2017 13:31 6,1 C 94 % 1022,3 hPa 0,0 l/m 1,8 km/h (1 Bft) W-NW 297 5,2 C 6,3 km/h (2 Bft) 100 %
17.02.2017 13:32 6,1 C 94 % 1022,2 hPa 0,0 l/m 12,2 km/h (2 Bft) W 259 5,2 C 18,8 km/h (3 Bft) 100 %
17.02.2017 13:33 6,1 C 94 % 1022,2 hPa 0,0 l/m 7,9 km/h (2 Bft) W-SW 240 5,2 C 12,6 km/h (3 Bft) 100 %
17.02.2017 13:34 6,1 C 94 % 1022,3 hPa 0,0 l/m 5,2 km/h (1 Bft) W-NW 285 5,2 C 12,6 km/h (3 Bft) 100 %
17.02.2017 13:35 6,1 C 94 % 1022,2 hPa 0,0 l/m 2,1 km/h (1 Bft) W 281 5,2 C 3,1 km/h (1 Bft) 100 %
17.02.2017 13:36 6,1 C 94 % 1022,3 hPa 0,0 l/m 0,1 km/h (0 Bft) SW 221 5,2 C 3,1 km/h (1 Bft) 100 %
17.02.2017 13:37 6,1 C 94 % 1022,3 hPa 0,0 l/m 4,5 km/h (1 Bft) W 276 5,2 C 12,6 km/h (3 Bft) 100 %
17.02.2017 13:38 6,1 C 94 % 1022,3 hPa 0,0 l/m 6,3 km/h (2 Bft) NW 307 5,2 C 12,6 km/h (3 Bft) 100 %
17.02.2017 13:39 6,1 C 93 % 1022,3 hPa 0,0 l/m 14,3 km/h (3 Bft) W-NW 282 5,1 C 22,0 km/h (4 Bft) 100 %
17.02.2017 13:40 6,1 C 93 % 1022,3 hPa 0,0 l/m 9,8 km/h (2 Bft) W-SW 253 5,1 C 18,8 km/h (3 Bft) 100 %
17.02.2017 13:41 6,1 C 93 % 1022,3 hPa 0,0 l/m 9,7 km/h (2 Bft) W-NW 285 5,1 C 15,7 km/h (3 Bft) 100 %
17.02.2017 13:42 6,1 C 93 % 1022,4 hPa 0,0 l/m 11,5 km/h (2 Bft) W 269 5,1 C 18,8 km/h (3 Bft) 100 %
17.02.2017 13:43 6,1 C 93 % 1022,4 hPa 0,0 l/m 5,6 km/h (1 Bft) W-NW 292 5,1 C 9,4 km/h (2 Bft) 100 %
17.02.2017 13:44 6,1 C 93 % 1022,3 hPa 0,0 l/m 12,2 km/h (2 Bft) NW 309 5,1 C 22,0 km/h (4 Bft) 100 %
17.02.2017 13:45 6,1 C 93 % 1022,3 hPa 0,0 l/m 6,9 km/h (2 Bft) W 274 5,1 C 12,6 km/h (3 Bft) 100 %
17.02.2017 13:46 6,1 C 93 % 1022,2 hPa 0,0 l/m 4,0 km/h (1 Bft) S-SW 202 5,1 C 9,4 km/h (2 Bft) 100 %
17.02.2017 13:47 6,1 C 93 % 1022,2 hPa 0,0 l/m 4,4 km/h (1 Bft) NW 309 5,1 C 6,3 km/h (2 Bft) 100 %
17.02.2017 13:48 6,1 C 93 % 1022,2 hPa 0,0 l/m 2,9 km/h (1 Bft) NW 305 5,1 C 3,1 km/h (1 Bft) 100 %
17.02.2017 13:49 6,1 C 93 % 1022,3 hPa 0,0 l/m 5,8 km/h (2 Bft) W 271 5,1 C 9,4 km/h (2 Bft) 100 %
17.02.2017 13:50 6,1 C 93 % 1022,3 hPa 0,0 l/m 8,4 km/h (2 Bft) W-NW 300 5,1 C 15,7 km/h (3 Bft) 100 %
17.02.2017 13:52 6,1 C 93 % 1022,2 hPa 0,0 l/m 6,6 km/h (2 Bft) SW 220 5,1 C 12,6 km/h (3 Bft) 98 %
17.02.2017 13:53 6,1 C 94 % 1022,2 hPa 0,0 l/m 3,4 km/h (1 Bft) NW 305 5,2 C 9,4 km/h (2 Bft) 96 %
17.02.2017 13:54 6,1 C 94 % 1022,2 hPa 0,0 l/m 3,8 km/h (1 Bft) W 259 5,2 C 6,3 km/h (2 Bft) 100 %
17.02.2017 13:55 6,1 C 94 % 1022,2 hPa 0,0 l/m 3,9 km/h (1 Bft) NW 321 5,2 C 6,3 km/h (2 Bft) 100 %
17.02.2017 13:56 6,1 C 94 % 1022,2 hPa 0,0 l/m 5,0 km/h (1 Bft) NW 311 5,2 C 12,6 km/h (3 Bft) 100 %
17.02.2017 13:57 6,1 C 94 % 1022,2 hPa 0,0 l/m 6,7 km/h (2 Bft) W-NW 292 5,2 C 12,6 km/h (3 Bft) 96 %
17.02.2017 13:58 6,2 C 94 % 1022,2 hPa 0,0 l/m 4,5 km/h (1 Bft) NW 316 5,3 C 6,3 km/h (2 Bft) 96 %
17.02.2017 13:59 6,2 C 94 % 1022,2 hPa 0,0 l/m 4,9 km/h (1 Bft) W-NW 296 5,3 C 9,4 km/h (2 Bft) 100 %
17.02.2017 14:00 6,2 C 94 % 1022,2 hPa 0,0 l/m 6,7 km/h (2 Bft) W-SW 255 5,3 C 12,6 km/h (3 Bft) 100 %
17.02.2017 14:02 6,2 C 94 % 1022,3 hPa 0,0 l/m 5,0 km/h (1 Bft) W-NW 283 5,3 C 15,7 km/h (3 Bft) 96 %
17.02.2017 14:03 6,2 C 94 % 1022,3 hPa 0,0 l/m 3,1 km/h (1 Bft) W-NW 290 5,3 C 6,3 km/h (2 Bft) 100 %
17.02.2017 14:04 6,2 C 94 % 1022,3 hPa 0,0 l/m 7,8 km/h (2 Bft) S 183 5,3 C 12,6 km/h (3 Bft) 96 %
17.02.2017 14:05 6,2 C 94 % 1022,3 hPa 0,0 l/m 6,7 km/h (2 Bft) W-SW 255 5,3 C 12,6 km/h (3 Bft) 100 %
17.02.2017 14:06 6,2 C 94 % 1022,3 hPa 0,0 l/m 7,5 km/h (2 Bft) W-NW 283 5,3 C 9,4 km/h (2 Bft) 97 %
17.02.2017 14:07 6,2 C 94 % 1022,3 hPa 0,0 l/m 6,3 km/h (2 Bft) W-SW 253 5,3 C 9,4 km/h (2 Bft) 100 %
17.02.2017 14:08 6,2 C 94 % 1022,3 hPa 0,0 l/m 4,5 km/h (1 Bft) S-SW 208 5,3 C 12,6 km/h (3 Bft) 96 %
17.02.2017 14:09 6,2 C 94 % 1022,3 hPa 0,0 l/m 3,6 km/h (1 Bft) SW 229 5,3 C 12,6 km/h (3 Bft) 100 %
17.02.2017 14:10 6,2 C 94 % 1022,2 hPa 0,0 l/m 7,8 km/h (2 Bft) W 274 5,3 C 12,6 km/h (3 Bft) 97 %
17.02.2017 14:11 6,2 C 94 % 1022,2 hPa 0,0 l/m 7,8 km/h (2 Bft) W 264 5,3 C 12,6 km/h (3 Bft) 97 %
17.02.2017 14:12 6,1 C 94 % 1022,2 hPa 0,0 l/m 5,5 km/h (1 Bft) NW 304 5,2 C 9,4 km/h (2 Bft) 100 %
17.02.2017 14:13 6,1 C 94 % 1022,2 hPa 0,0 l/m 4,2 km/h (1 Bft) W-NW 286 5,2 C 9,4 km/h (2 Bft) 96 %
17.02.2017 14:14 6,1 C 95 % 1022,3 hPa 0,0 l/m 5,2 km/h (1 Bft) W 274 5,4 C 15,7 km/h (3 Bft) 100 %
17.02.2017 14:15 6,1 C 94 % 1022,3 hPa 0,0 l/m 8,2 km/h (2 Bft) NW 315 5,2 C 15,7 km/h (3 Bft) 96 %
17.02.2017 14:16 6,1 C 94 % 1022,3 hPa 0,0 l/m 6,0 km/h (2 Bft) W-NW 297 5,2 C 9,4 km/h (2 Bft) 96 %
17.02.2017 14:17 6,1 C 94 % 1022,3 hPa 0,0 l/m 4,9 km/h (1 Bft) W-NW 293 5,2 C 9,4 km/h (2 Bft) 100 %
17.02.2017 14:18 6,1 C 94 % 1022,3 hPa 0,0 l/m 4,0 km/h (1 Bft) W-NW 300 5,2 C 6,3 km/h (2 Bft) 100 %
17.02.2017 14:19 6,1 C 95 % 1022,3 hPa 0,0 l/m 4,6 km/h (1 Bft) W-NW 296 5,4 C 9,4 km/h (2 Bft) 100 %
17.02.2017 14:20 6,1 C 95 % 1022,3 hPa 0,0 l/m 6,1 km/h (2 Bft) SW 221 5,4 C 9,4 km/h (2 Bft) 100 %
17.02.2017 14:21 6,1 C 95 % 1022,3 hPa 0,0 l/m 5,8 km/h (2 Bft) W-SW 239 5,4 C 12,6 km/h (3 Bft) 100 %
17.02.2017 14:22 6,1 C 95 % 1022,2 hPa 0,0 l/m 7,6 km/h (2 Bft) W 274 5,4 C 12,6 km/h (3 Bft) 99 %
17.02.2017 14:23 6,1 C 95 % 1022,2 hPa 0,0 l/m 6,4 km/h (2 Bft) W-SW 244 5,4 C 12,6 km/h (3 Bft) 100 %
17.02.2017 14:24 6,1 C 95 % 1022,3 hPa 0,0 l/m 7,3 km/h (2 Bft) W 263 5,4 C 12,6 km/h (3 Bft) 100 %
17.02.2017 14:25 6,1 C 95 % 1022,3 hPa 0,0 l/m 7,2 km/h (2 Bft) W 278 5,4 C 9,4 km/h (2 Bft) 100 %
17.02.2017 14:26 6,0 C 95 % 1022,2 hPa 0,0 l/m 5,2 km/h (1 Bft) W 260 5,3 C 12,6 km/h (3 Bft) 100 %
17.02.2017 14:27 6,0 C 95 % 1022,2 hPa 0,0 l/m 7,1 km/h (2 Bft) W-SW 244 5,3 C 12,6 km/h (3 Bft) 100 %
17.02.2017 14:28 6,0 C 95 % 1022,2 hPa 0,0 l/m 5,2 km/h (1 Bft) NW 304 5,3 C 6,3 km/h (2 Bft) 100 %
17.02.2017 14:29 6,0 C 95 % 1022,3 hPa 0,0 l/m 9,3 km/h (2 Bft) W-SW 255 5,3 C 18,8 km/h (3 Bft) 100 %
17.02.2017 14:30 5,9 C 95 % 1022,2 hPa 0,0 l/m 4,1 km/h (1 Bft) W 263 5,2 C 6,3 km/h (2 Bft) 100 %
17.02.2017 14:31 5,9 C 95 % 1022,3 hPa 0,0 l/m 10,6 km/h (2 Bft) W-SW 253 5,2 C 15,7 km/h (3 Bft) 100 %
17.02.2017 14:32 5,9 C 95 % 1022,2 hPa 0,0 l/m 5,5 km/h (1 Bft) SW 236 5,2 C 9,4 km/h (2 Bft) 100 %
17.02.2017 14:33 5,9 C 95 % 1022,2 hPa 0,0 l/m 7,0 km/h (2 Bft) SW 233 5,2 C 12,6 km/h (3 Bft) 100 %
17.02.2017 14:34 5,9 C 95 % 1022,2 hPa 0,0 l/m 7,0 km/h (2 Bft) W 279 5,2 C 12,6 km/h (3 Bft) 100 %
17.02.2017 14:35 5,9 C 95 % 1022,2 hPa 0,0 l/m 4,8 km/h (1 Bft) W-NW 295 5,2 C 6,3 km/h (2 Bft) 99 %
17.02.2017 14:36 5,9 C 95 % 1022,2 hPa 0,0 l/m 8,5 km/h (2 Bft) W 270 5,2 C 12,6 km/h (3 Bft) 100 %
17.02.2017 14:37 5,9 C 95 % 1022,2 hPa 0,0 l/m 2,6 km/h (1 Bft) W 262 5,2 C 9,4 km/h (2 Bft) 100 %
17.02.2017 14:38 5,9 C 95 % 1022,3 hPa 0,0 l/m 6,4 km/h (2 Bft) W 278 5,2 C 12,6 km/h (3 Bft) 100 %
17.02.2017 14:39 5,9 C 95 % 1022,2 hPa 0,0 l/m 5,5 km/h (1 Bft) W-NW 288 5,2 C 9,4 km/h (2 Bft) 100 %
17.02.2017 14:40 5,9 C 95 % 1022,3 hPa 0,0 l/m 8,1 km/h (2 Bft) W-NW 302 5,2 C 15,7 km/h (3 Bft) 100 %
17.02.2017 14:41 5,9 C 95 % 1022,2 hPa 0,0 l/m 5,5 km/h (1 Bft) W-SW 258 5,2 C 12,6 km/h (3 Bft) 100 %
17.02.2017 14:42 5,9 C 95 % 1022,3 hPa 0,0 l/m 5,2 km/h (1 Bft) NW 311 5,2 C 18,8 km/h (3 Bft) 100 %
17.02.2017 14:43 5,9 C 95 % 1022,2 hPa 0,0 l/m 5,9 km/h (2 Bft) W 268 5,2 C 18,8 km/h (3 Bft) 100 %
17.02.2017 14:44 5,9 C 95 % 1022,2 hPa 0,0 l/m 4,4 km/h (1 Bft) W-NW 300 5,2 C 9,4 km/h (2 Bft) 100 %
17.02.2017 14:45 5,9 C 95 % 1022,2 hPa 0,0 l/m 3,5 km/h (1 Bft) W 271 5,2 C 9,4 km/h (2 Bft) 100 %
17.02.2017 14:47 5,9 C 95 % 1022,2 hPa 0,0 l/m 1,9 km/h (1 Bft) W-NW 284 5,2 C 9,4 km/h (2 Bft) 100 %
17.02.2017 14:48 5,9 C 95 % 1022,2 hPa 0,0 l/m 2,7 km/h (1 Bft) W-SW 254 5,2 C 9,4 km/h (2 Bft) 100 %
17.02.2017 14:49 5,9 C 95 % 1022,2 hPa 0,0 l/m 3,5 km/h (1 Bft) W-NW 300 5,2 C 12,6 km/h (3 Bft) 100 %
17.02.2017 14:50 5,9 C 95 % 1022,2 hPa 0,0 l/m 9,2 km/h (2 Bft) W 275 5,2 C 18,8 km/h (3 Bft) 100 %
17.02.2017 14:51 5,9 C 94 % 1022,2 hPa 0,0 l/m 2,8 km/h (1 Bft) W 259 5,0 C 6,3 km/h (2 Bft) 100 %
17.02.2017 14:52 5,9 C 94 % 1022,2 hPa 0,0 l/m 5,1 km/h (1 Bft) W 264 5,0 C 9,4 km/h (2 Bft) 100 %
17.02.2017 14:53 5,9 C 94 % 1022,2 hPa 0,0 l/m 10,3 km/h (2 Bft) W 278 5,0 C 22,0 km/h (4 Bft) 100 %
17.02.2017 14:54 5,9 C 94 % 1022,2 hPa 0,0 l/m 7,9 km/h (2 Bft) SW 232 5,0 C 12,6 km/h (3 Bft) 100 %
17.02.2017 14:55 5,9 C 94 % 1022,2 hPa 0,0 l/m 5,6 km/h (1 Bft) W-SW 243 5,0 C 12,6 km/h (3 Bft) 100 %
17.02.2017 14:56 5,9 C 94 % 1022,2 hPa 0,0 l/m 5,6 km/h (1 Bft) SW 234 5,0 C 12,6 km/h (3 Bft) 97 %
17.02.2017 14:57 5,9 C 94 % 1022,2 hPa 0,0 l/m 3,5 km/h (1 Bft) SW 226 5,0 C 9,4 km/h (2 Bft) 100 %
17.02.2017 14:58 5,9 C 94 % 1022,2 hPa 0,0 l/m 4,6 km/h (1 Bft) W 269 5,0 C 12,6 km/h (3 Bft) 100 %
17.02.2017 14:59 5,9 C 94 % 1022,2 hPa 0,0 l/m 6,7 km/h (2 Bft) W-NW 297 5,0 C 18,8 km/h (3 Bft) 100 %
17.02.2017 15:00 5,9 C 94 % 1022,2 hPa 0,0 l/m 10,0 km/h (2 Bft) SW 231 5,0 C 12,6 km/h (3 Bft) 100 %
17.02.2017 15:01 5,9 C 94 % 1022,2 hPa 0,0 l/m 6,3 km/h (2 Bft) W-NW 287 5,0 C 9,4 km/h (2 Bft) 100 %
17.02.2017 15:02 5,9 C 94 % 1022,2 hPa 0,0 l/m 5,5 km/h (1 Bft) W-SW 247 5,0 C 9,4 km/h (2 Bft) 100 %
17.02.2017 15:03 5,9 C 94 % 1022,2 hPa 0,0 l/m 4,2 km/h (1 Bft) W 278 5,0 C 12,6 km/h (3 Bft) 100 %
17.02.2017 15:04 5,9 C 94 % 1022,2 hPa 0,0 l/m 7,2 km/h (2 Bft) W-SW 252 5,0 C 12,6 km/h (3 Bft) 100 %
17.02.2017 15:05 5,9 C 94 % 1022,2 hPa 0,0 l/m 4,7 km/h (1 Bft) SW 235 5,0 C 9,4 km/h (2 Bft) 100 %
17.02.2017 15:06 5,9 C 94 % 1022,3 hPa 0,0 l/m 4,3 km/h (1 Bft) W 266 5,0 C 9,4 km/h (2 Bft) 100 %
17.02.2017 15:07 5,9 C 94 % 1022,3 hPa 0,0 l/m 7,2 km/h (2 Bft) W 281 5,0 C 12,6 km/h (3 Bft) 100 %
17.02.2017 15:08 5,9 C 94 % 1022,3 hPa 0,0 l/m 8,9 km/h (2 Bft) SW 227 5,0 C 18,8 km/h (3 Bft) 100 %
17.02.2017 15:09 5,9 C 94 % 1022,3 hPa 0,0 l/m 1,2 km/h (1 Bft) W-SW 247 5,0 C 6,3 km/h (2 Bft) 100 %
17.02.2017 15:10 5,9 C 94 % 1022,3 hPa 0,0 l/m 8,0 km/h (2 Bft) W-SW 249 5,0 C 15,7 km/h (3 Bft) 100 %
17.02.2017 15:11 5,9 C 94 % 1022,3 hPa 0,0 l/m 4,6 km/h (1 Bft) W 263 5,0 C 9,4 km/h (2 Bft) 100 %
17.02.2017 15:12 5,9 C 94 % 1022,3 hPa 0,0 l/m 7,1 km/h (2 Bft) W-NW 294 5,0 C 9,4 km/h (2 Bft) 100 %
17.02.2017 15:13 5,9 C 94 % 1022,3 hPa 0,0 l/m 4,5 km/h (1 Bft) W-SW 253 5,0 C 9,4 km/h (2 Bft) 100 %
17.02.2017 15:14 5,9 C 94 % 1022,4 hPa 0,0 l/m 6,3 km/h (2 Bft) NW 312 5,0 C 9,4 km/h (2 Bft) 100 %
17.02.2017 15:15 5,9 C 94 % 1022,3 hPa 0,0 l/m 12,3 km/h (3 Bft) W-SW 256 5,0 C 22,0 km/h (4 Bft) 100 %
17.02.2017 15:16 5,9 C 94 % 1022,4 hPa 0,0 l/m 10,0 km/h (2 Bft) NW 320 5,0 C 18,8 km/h (3 Bft) 100 %
17.02.2017 15:17 5,9 C 94 % 1022,4 hPa 0,0 l/m 12,0 km/h (2 Bft) SW 225 5,0 C 18,8 km/h (3 Bft) 100 %
17.02.2017 15:18 5,9 C 94 % 1022,4 hPa 0,0 l/m 10,3 km/h (2 Bft) W-NW 293 5,0 C 18,8 km/h (3 Bft) 100 %
17.02.2017 15:19 5,9 C 94 % 1022,3 hPa 0,0 l/m 7,6 km/h (2 Bft) S-SW 211 5,0 C 18,8 km/h (3 Bft) 100 %
17.02.2017 15:20 5,9 C 94 % 1022,3 hPa 0,0 l/m 9,1 km/h (2 Bft) NW 304 5,0 C 15,7 km/h (3 Bft) 100 %
17.02.2017 15:21 5,9 C 94 % 1022,3 hPa 0,0 l/m 9,4 km/h (2 Bft) W 271 5,0 C 15,7 km/h (3 Bft) 100 %
17.02.2017 15:22 5,9 C 94 % 1022,4 hPa 0,0 l/m 7,5 km/h (2 Bft) SW 224 5,0 C 12,6 km/h (3 Bft) 100 %
17.02.2017 15:23 5,9 C 94 % 1022,4 hPa 0,0 l/m 6,6 km/h (2 Bft) W-NW 291 5,0 C 15,7 km/h (3 Bft) 100 %
17.02.2017 15:24 5,9 C 94 % 1022,4 hPa 0,0 l/m 6,4 km/h (2 Bft) W-SW 252 5,0 C 12,6 km/h (3 Bft) 100 %
17.02.2017 15:25 5,9 C 94 % 1022,4 hPa 0,0 l/m 10,2 km/h (2 Bft) SW 236 5,0 C 15,7 km/h (3 Bft) 100 %
17.02.2017 15:26 5,8 C 94 % 1022,4 hPa 0,0 l/m 4,2 km/h (1 Bft) W 262 4,9 C 6,3 km/h (2 Bft) 100 %
17.02.2017 15:27 5,8 C 95 % 1022,4 hPa 0,0 l/m 1,2 km/h (1 Bft) W 269 5,1 C 6,3 km/h (2 Bft) 100 %
17.02.2017 15:28 5,8 C 95 % 1022,4 hPa 0,0 l/m 8,2 km/h (2 Bft) W 271 5,1 C 12,6 km/h (3 Bft) 100 %
17.02.2017 15:29 5,8 C 95 % 1022,4 hPa 0,0 l/m 7,9 km/h (2 Bft) W-NW 282 5,1 C 12,6 km/h (3 Bft) 100 %
17.02.2017 15:30 5,8 C 95 % 1022,4 hPa 0,0 l/m 7,0 km/h (2 Bft) W-SW 243 5,1 C 12,6 km/h (3 Bft) 100 %
17.02.2017 15:31 5,8 C 95 % 1022,5 hPa 0,0 l/m 6,0 km/h (2 Bft) W 267 5,1 C 12,6 km/h (3 Bft) 100 %
17.02.2017 15:32 5,8 C 95 % 1022,5 hPa 0,0 l/m 8,6 km/h (2 Bft) W 266 5,1 C 22,0 km/h (4 Bft) 100 %
17.02.2017 15:33 5,8 C 95 % 1022,5 hPa 0,0 l/m 8,2 km/h (2 Bft) NW 314 5,1 C 15,7 km/h (3 Bft) 100 %
17.02.2017 15:34 5,8 C 95 % 1022,5 hPa 0,0 l/m 7,2 km/h (2 Bft) W 266 5,1 C 12,6 km/h (3 Bft) 100 %
17.02.2017 15:35 5,8 C 95 % 1022,5 hPa 0,0 l/m 10,3 km/h (2 Bft) W-NW 288 5,1 C 18,8 km/h (3 Bft) 100 %
17.02.2017 15:36 5,7 C 95 % 1022,5 hPa 0,0 l/m 10,9 km/h (2 Bft) NW 307 5,0 C 15,7 km/h (3 Bft) 100 %
17.02.2017 15:37 5,7 C 95 % 1022,5 hPa 0,0 l/m 5,0 km/h (1 Bft) W 277 5,0 C 9,4 km/h (2 Bft) 100 %
17.02.2017 15:38 5,7 C 95 % 1022,5 hPa 0,0 l/m 3,1 km/h (1 Bft) W 281 5,0 C 6,3 km/h (2 Bft) 100 %
17.02.2017 15:39 5,7 C 95 % 1022,5 hPa 0,0 l/m 5,5 km/h (1 Bft) W-NW 295 5,0 C 9,4 km/h (2 Bft) 100 %
17.02.2017 15:40 5,7 C 95 % 1022,5 hPa 0,0 l/m 8,6 km/h (2 Bft) NW 309 5,0 C 18,8 km/h (3 Bft) 100 %
17.02.2017 15:41 5,7 C 95 % 1022,5 hPa 0,0 l/m 4,3 km/h (1 Bft) W-NW 291 5,0 C 15,7 km/h (3 Bft) 100 %
17.02.2017 15:42 5,7 C 95 % 1022,6 hPa 0,0 l/m 1,7 km/h (1 Bft) W-NW 299 5,0 C 3,1 km/h (1 Bft) 100 %
17.02.2017 15:43 5,7 C 95 % 1022,6 hPa 0,0 l/m 12,2 km/h (2 Bft) W 274 5,0 C 18,8 km/h (3 Bft) 98 %
17.02.2017 15:44 5,7 C 95 % 1022,6 hPa 0,0 l/m 3,1 km/h (1 Bft) NW 317 5,0 C 9,4 km/h (2 Bft) 100 %
17.02.2017 15:45 5,7 C 95 % 1022,6 hPa 0,0 l/m 5,6 km/h (1 Bft) SW 231 5,0 C 12,6 km/h (3 Bft) 96 %
17.02.2017 15:46 5,7 C 95 % 1022,6 hPa 0,0 l/m 5,1 km/h (1 Bft) W-SW 245 5,0 C 12,6 km/h (3 Bft) 96 %
17.02.2017 15:47 5,7 C 95 % 1022,6 hPa 0,0 l/m 6,1 km/h (2 Bft) W 261 5,0 C 12,6 km/h (3 Bft) 100 %
17.02.2017 15:48 5,7 C 95 % 1022,7 hPa 0,0 l/m 7,2 km/h (2 Bft) W 264 5,0 C 12,6 km/h (3 Bft) 100 %
17.02.2017 15:49 5,7 C 95 % 1022,7 hPa 0,0 l/m 4,7 km/h (1 Bft) W-NW 287 5,0 C 9,4 km/h (2 Bft) 96 %
17.02.2017 15:50 5,7 C 96 % 1022,6 hPa 0,0 l/m 8,0 km/h (2 Bft) NW 314 5,1 C 12,6 km/h (3 Bft) 96 %
17.02.2017 15:51 5,7 C 96 % 1022,7 hPa 0,0 l/m 4,7 km/h (1 Bft) W 263 5,1 C 6,3 km/h (2 Bft) 100 %
17.02.2017 15:52 5,7 C 96 % 1022,7 hPa 0,0 l/m 4,8 km/h (1 Bft) NW 304 5,1 C 9,4 km/h (2 Bft) 100 %
17.02.2017 15:53 5,7 C 96 % 1022,7 hPa 0,0 l/m 6,0 km/h (2 Bft) W-NW 294 5,1 C 9,4 km/h (2 Bft) 96 %
17.02.2017 15:54 5,7 C 96 % 1022,6 hPa 0,0 l/m 6,0 km/h (2 Bft) W-NW 295 5,1 C 9,4 km/h (2 Bft) 100 %
17.02.2017 15:55 5,6 C 96 % 1022,7 hPa 0,0 l/m 4,2 km/h (1 Bft) W-NW 294 5,0 C 9,4 km/h (2 Bft) 93 %
17.02.2017 15:56 5,6 C 96 % 1022,7 hPa 0,0 l/m 0,9 km/h (0 Bft) W-NW 294 5,0 C 3,1 km/h (1 Bft) 100 %
17.02.2017 15:57 5,6 C 96 % 1022,7 hPa 0,0 l/m 0,1 km/h (0 Bft) SW 235 5,0 C 3,1 km/h (1 Bft) 96 %
17.02.2017 15:58 5,6 C 96 % 1022,7 hPa 0,0 l/m 4,9 km/h (1 Bft) W 276 5,0 C 9,4 km/h (2 Bft) 100 %
17.02.2017 15:59 5,6 C 96 % 1022,7 hPa 0,0 l/m 3,0 km/h (1 Bft) W 275 5,0 C 6,3 km/h (2 Bft) 96 %
17.02.2017 16:00 5,6 C 96 % 1022,7 hPa 0,2 l/m 5,5 km/h (1 Bft) W 274 5,0 C 9,4 km/h (2 Bft) 96 %
17.02.2017 16:01 5,6 C 96 % 1022,7 hPa 0,0 l/m 1,7 km/h (1 Bft) SW 234 5,0 C 3,1 km/h (1 Bft) 100 %
17.02.2017 16:02 5,6 C 96 % 1022,7 hPa 0,0 l/m 1,2 km/h (1 Bft) W-SW 254 5,0 C 3,1 km/h (1 Bft) 96 %
17.02.2017 16:03 5,6 C 96 % 1022,8 hPa 0,0 l/m 2,0 km/h (1 Bft) W-SW 248 5,0 C 6,3 km/h (2 Bft) 100 %
17.02.2017 16:04 5,6 C 96 % 1022,8 hPa 0,0 l/m 0,0 km/h (0 Bft) W-SW 248 5,0 C 0,0 km/h (0 Bft) 96 %
17.02.2017 16:05 5,6 C 96 % 1022,8 hPa 0,0 l/m 0,0 km/h (0 Bft) S-SW 207 5,0 C 0,0 km/h (0 Bft) 100 %
17.02.2017 16:06 5,6 C 96 % 1022,8 hPa 0,0 l/m 1,1 km/h (1 Bft) W-SW 254 5,0 C 6,3 km/h (2 Bft) 96 %
17.02.2017 16:07 5,6 C 96 % 1022,8 hPa 0,0 l/m 1,5 km/h (1 Bft) W 271 5,0 C 3,1 km/h (1 Bft) 100 %
17.02.2017 16:08 5,6 C 96 % 1022,7 hPa 0,0 l/m 0,8 km/h (0 Bft) W-SW 258 5,0 C 3,1 km/h (1 Bft) 96 %
17.02.2017 16:09 5,6 C 96 % 1022,8 hPa 0,0 l/m 0,0 km/h (0 Bft) W-NW 284 5,0 C 0,0 km/h (0 Bft) 97 %
17.02.2017 16:10 5,6 C 96 % 1022,8 hPa 0,0 l/m 4,6 km/h (1 Bft) W 279 5,0 C 9,4 km/h (2 Bft) 100 %
17.02.2017 16:11 5,6 C 96 % 1022,8 hPa 0,0 l/m 6,1 km/h (2 Bft) W-NW 302 5,0 C 9,4 km/h (2 Bft) 96 %
17.02.2017 16:12 5,7 C 96 % 1022,8 hPa 0,0 l/m 5,6 km/h (1 Bft) NW 310 5,1 C 9,4 km/h (2 Bft) 100 %
17.02.2017 16:13 5,6 C 96 % 1022,8 hPa 0,0 l/m 2,5 km/h (1 Bft) W 264 5,0 C 6,3 km/h (2 Bft) 100 %
17.02.2017 16:14 5,7 C 96 % 1022,8 hPa 0,0 l/m 4,7 km/h (1 Bft) W-SW 243 5,1 C 12,6 km/h (3 Bft) 100 %
17.02.2017 16:15 5,7 C 96 % 1022,8 hPa 0,0 l/m 0,8 km/h (0 Bft) W-NW 303 5,1 C 3,1 km/h (1 Bft) 100 %
17.02.2017 16:16 5,7 C 96 % 1022,8 hPa 0,0 l/m 2,0 km/h (1 Bft) NW 310 5,1 C 3,1 km/h (1 Bft) 100 %
17.02.2017 16:17 5,7 C 96 % 1022,8 hPa 0,0 l/m 0,5 km/h (0 Bft) NW 308 5,1 C 3,1 km/h (1 Bft) 100 %
17.02.2017 16:18 5,7 C 96 % 1022,8 hPa 0,0 l/m 0,0 km/h (0 Bft) W 268 5,1 C 0,0 km/h (0 Bft) 100 %
17.02.2017 16:19 5,7 C 96 % 1022,8 hPa 0,0 l/m 0,8 km/h (0 Bft) W-SW 254 5,1 C 3,1 km/h (1 Bft) 100 %
17.02.2017 16:20 5,7 C 96 % 1022,8 hPa 0,0 l/m 4,5 km/h (1 Bft) W-SW 250 5,1 C 9,4 km/h (2 Bft) 100 %
17.02.2017 16:21 5,7 C 96 % 1022,8 hPa 0,0 l/m 2,9 km/h (1 Bft) S-SW 201 5,1 C 6,3 km/h (2 Bft) 100 %
17.02.2017 16:22 5,7 C 96 % 1022,8 hPa 0,0 l/m 0,2 km/h (0 Bft) NW 314 5,1 C 3,1 km/h (1 Bft) 100 %
17.02.2017 16:23 5,7 C 96 % 1022,8 hPa 0,0 l/m 0,0 km/h (0 Bft) NW 310 5,1 C 0,0 km/h (0 Bft) 100 %
17.02.2017 16:24 5,7 C 96 % 1022,8 hPa 0,0 l/m 0,9 km/h (0 Bft) W 276 5,1 C 3,1 km/h (1 Bft) 100 %
17.02.2017 16:25 5,7 C 96 % 1022,8 hPa 0,0 l/m 4,2 km/h (1 Bft) W-NW 295 5,1 C 9,4 km/h (2 Bft) 100 %
17.02.2017 16:26 5,7 C 96 % 1022,8 hPa 0,0 l/m 2,6 km/h (1 Bft) W-SW 243 5,1 C 6,3 km/h (2 Bft) 100 %
17.02.2017 16:27 5,7 C 96 % 1022,8 hPa 0,0 l/m 1,7 km/h (1 Bft) W 260 5,1 C 3,1 km/h (1 Bft) 100 %
17.02.2017 16:28 5,7 C 96 % 1022,8 hPa 0,0 l/m 3,0 km/h (1 Bft) W-NW 303 5,1 C 3,1 km/h (1 Bft) 100 %
17.02.2017 16:29 5,7 C 96 % 1022,8 hPa 0,0 l/m 0,8 km/h (0 Bft) SW 232 5,1 C 3,1 km/h (1 Bft) 100 %
17.02.2017 16:30 5,7 C 96 % 1022,8 hPa 0,0 l/m 2,0 km/h (1 Bft) SW 221 5,1 C 6,3 km/h (2 Bft) 100 %
17.02.2017 16:32 5,7 C 96 % 1022,7 hPa 0,0 l/m 2,5 km/h (1 Bft) W 281 5,1 C 6,3 km/h (2 Bft) 100 %
17.02.2017 16:33 5,7 C 96 % 1022,8 hPa 0,0 l/m 2,4 km/h (1 Bft) W 264 5,1 C 6,3 km/h (2 Bft) 100 %
17.02.2017 16:34 5,7 C 96 % 1022,8 hPa 0,0 l/m 2,2 km/h (1 Bft) W 271 5,1 C 6,3 km/h (2 Bft) 100 %
17.02.2017 16:35 5,7 C 96 % 1022,8 hPa 0,0 l/m 2,5 km/h (1 Bft) W 280 5,1 C 6,3 km/h (2 Bft) 100 %
17.02.2017 16:36 5,7 C 96 % 1022,8 hPa 0,0 l/m 1,0 km/h (0 Bft) W-NW 287 5,1 C 6,3 km/h (2 Bft) 100 %
17.02.2017 16:37 5,7 C 96 % 1022,8 hPa 0,0 l/m 2,4 km/h (1 Bft) W 274 5,1 C 3,1 km/h (1 Bft) 100 %
17.02.2017 16:38 5,7 C 96 % 1022,8 hPa 0,0 l/m 2,5 km/h (1 Bft) SW 233 5,1 C 6,3 km/h (2 Bft) 100 %
17.02.2017 16:39 5,7 C 96 % 1022,8 hPa 0,0 l/m 2,6 km/h (1 Bft) W-SW 249 5,1 C 6,3 km/h (2 Bft) 100 %
17.02.2017 16:40 5,7 C 96 % 1022,8 hPa 0,0 l/m 2,6 km/h (1 Bft) W-NW 292 5,1 C 6,3 km/h (2 Bft) 100 %
17.02.2017 16:42 5,7 C 96 % 1022,8 hPa 0,0 l/m 2,8 km/h (1 Bft) NW 308 5,1 C 9,4 km/h (2 Bft) 100 %
17.02.2017 16:43 5,7 C 96 % 1022,8 hPa 0,0 l/m 3,5 km/h (1 Bft) NW 311 5,1 C 6,3 km/h (2 Bft) 100 %
17.02.2017 16:44 5,7 C 96 % 1022,8 hPa 0,0 l/m 5,3 km/h (1 Bft) W-NW 286 5,1 C 9,4 km/h (2 Bft) 100 %
17.02.2017 16:45 5,7 C 96 % 1022,8 hPa 0,0 l/m 2,7 km/h (1 Bft) NW 307 5,1 C 6,3 km/h (2 Bft) 100 %
17.02.2017 16:46 5,7 C 96 % 1022,8 hPa 0,0 l/m 7,9 km/h (2 Bft) W-SW 238 5,1 C 12,6 km/h (3 Bft) 100 %
17.02.2017 16:47 5,7 C 96 % 1022,8 hPa 0,0 l/m 6,1 km/h (2 Bft) W-NW 292 5,1 C 9,4 km/h (2 Bft) 100 %
17.02.2017 16:48 5,7 C 96 % 1022,8 hPa 0,0 l/m 3,1 km/h (1 Bft) W 281 5,1 C 6,3 km/h (2 Bft) 100 %
17.02.2017 16:49 5,7 C 96 % 1022,8 hPa 0,0 l/m 2,8 km/h (1 Bft) W 271 5,1 C 3,1 km/h (1 Bft) 100 %
17.02.2017 16:50 5,7 C 96 % 1022,8 hPa 0,0 l/m 0,5 km/h (0 Bft) W-SW 245 5,1 C 3,1 km/h (1 Bft) 100 %
17.02.2017 16:51 5,7 C 96 % 1022,8 hPa 0,0 l/m 0,1 km/h (0 Bft) W-SW 245 5,1 C 3,1 km/h (1 Bft) 100 %
17.02.2017 16:52 5,7 C 96 % 1022,8 hPa 0,0 l/m 0,1 km/h (0 Bft) W-NW 300 5,1 C 3,1 km/h (1 Bft) 100 %
17.02.2017 16:53 5,7 C 96 % 1022,8 hPa 0,0 l/m 3,3 km/h (1 Bft) W 271 5,1 C 9,4 km/h (2 Bft) 100 %
17.02.2017 16:54 5,7 C 96 % 1022,8 hPa 0,0 l/m 3,9 km/h (1 Bft) W-SW 252 5,1 C 12,6 km/h (3 Bft) 100 %
17.02.2017 16:55 5,7 C 96 % 1022,8 hPa 0,0 l/m 1,0 km/h (0 Bft) W-NW 285 5,1 C 6,3 km/h (2 Bft) 100 %
17.02.2017 16:56 5,7 C 96 % 1022,9 hPa 0,0 l/m 2,0 km/h (1 Bft) W 270 5,1 C 6,3 km/h (2 Bft) 100 %
17.02.2017 16:57 5,7 C 96 % 1022,9 hPa 0,0 l/m 2,8 km/h (1 Bft) W 275 5,1 C 6,3 km/h (2 Bft) 100 %
17.02.2017 16:58 5,7 C 96 % 1022,8 hPa 0,0 l/m 4,0 km/h (1 Bft) W 269 5,1 C 9,4 km/h (2 Bft) 100 %
17.02.2017 16:59 5,7 C 96 % 1022,8 hPa 0,0 l/m 4,4 km/h (1 Bft) NW 306 5,1 C 9,4 km/h (2 Bft) 100 %
17.02.2017 17:00 5,7 C 96 % 1022,8 hPa 0,0 l/m 3,3 km/h (1 Bft) W-SW 258 5,1 C 6,3 km/h (2 Bft) 100 %
17.02.2017 17:01 5,6 C 96 % 1022,8 hPa 0,0 l/m 1,9 km/h (1 Bft) W 279 5,0 C 6,3 km/h (2 Bft) 100 %
17.02.2017 17:02 5,7 C 97 % 1022,8 hPa 0,0 l/m 2,9 km/h (1 Bft) W-SW 253 5,3 C 3,1 km/h (1 Bft) 100 %
17.02.2017 17:03 5,6 C 97 % 1022,9 hPa 0,0 l/m 2,2 km/h (1 Bft) W 271 5,2 C 3,1 km/h (1 Bft) 100 %
17.02.2017 17:04 5,6 C 97 % 1022,8 hPa 0,0 l/m 1,6 km/h (1 Bft) W-SW 258 5,2 C 3,1 km/h (1 Bft) 100 %
17.02.2017 17:05 5,6 C 97 % 1022,9 hPa 0,0 l/m 3,5 km/h (1 Bft) W 264 5,2 C 12,6 km/h (3 Bft) 96 %
17.02.2017 17:06 5,6 C 97 % 1022,9 hPa 0,0 l/m 4,2 km/h (1 Bft) W 268 5,2 C 9,4 km/h (2 Bft) 100 %
17.02.2017 17:07 5,6 C 97 % 1022,9 hPa 0,0 l/m 4,6 km/h (1 Bft) W 261 5,2 C 6,3 km/h (2 Bft) 100 %
17.02.2017 17:08 5,6 C 97 % 1022,9 hPa 0,0 l/m 0,1 km/h (0 Bft) W 261 5,2 C 3,1 km/h (1 Bft) 100 %
17.02.2017 17:09 5,6 C 97 % 1022,9 hPa 0,0 l/m 3,7 km/h (1 Bft) W-NW 293 5,2 C 6,3 km/h (2 Bft) 100 %
17.02.2017 17:10 5,6 C 97 % 1022,9 hPa 0,0 l/m 1,3 km/h (1 Bft) SW 225 5,2 C 3,1 km/h (1 Bft) 100 %
17.02.2017 17:11 5,6 C 97 % 1022,9 hPa 0,0 l/m 0,4 km/h (0 Bft) W 281 5,2 C 3,1 km/h (1 Bft) 100 %
17.02.2017 17:12 5,6 C 97 % 1022,9 hPa 0,0 l/m 1,1 km/h (1 Bft) W 274 5,2 C 3,1 km/h (1 Bft) 100 %
17.02.2017 17:13 5,6 C 97 % 1023,0 hPa 0,0 l/m 3,5 km/h (1 Bft) NW 318 5,2 C 9,4 km/h (2 Bft) 100 %
17.02.2017 17:14 5,6 C 97 % 1023,0 hPa 0,0 l/m 3,3 km/h (1 Bft) W-SW 254 5,2 C 6,3 km/h (2 Bft) 100 %
17.02.2017 17:15 5,6 C 97 % 1023,0 hPa 0,0 l/m 0,7 km/h (0 Bft) W 263 5,2 C 3,1 km/h (1 Bft) 96 %
17.02.2017 17:16 5,6 C 97 % 1023,0 hPa 0,0 l/m 1,2 km/h (1 Bft) W 273 5,2 C 3,1 km/h (1 Bft) 96 %
17.02.2017 17:17 5,6 C 97 % 1023,0 hPa 0,0 l/m 2,9 km/h (1 Bft) W-SW 250 5,2 C 6,3 km/h (2 Bft) 100 %
17.02.2017 17:18 5,6 C 97 % 1023,0 hPa 0,0 l/m 1,3 km/h (1 Bft) W-NW 300 5,2 C 6,3 km/h (2 Bft) 100 %
17.02.2017 17:19 5,6 C 97 % 1023,0 hPa 0,0 l/m 0,9 km/h (0 Bft) W 281 5,2 C 6,3 km/h (2 Bft) 100 %
17.02.2017 17:20 5,6 C 97 % 1023,0 hPa 0,0 l/m 3,0 km/h (1 Bft) W-SW 248 5,2 C 9,4 km/h (2 Bft) 100 %
17.02.2017 17:21 5,6 C 97 % 1023,0 hPa 0,0 l/m 3,4 km/h (1 Bft) W 259 5,2 C 9,4 km/h (2 Bft) 100 %
17.02.2017 17:22 5,6 C 97 % 1023,0 hPa 0,0 l/m 4,4 km/h (1 Bft) NW 312 5,2 C 6,3 km/h (2 Bft) 100 %
17.02.2017 17:23 5,6 C 97 % 1023,0 hPa 0,0 l/m 5,2 km/h (1 Bft) W-SW 240 5,2 C 12,6 km/h (3 Bft) 100 %
17.02.2017 17:24 5,6 C 97 % 1023,0 hPa 0,0 l/m 3,3 km/h (1 Bft) W 275 5,2 C 6,3 km/h (2 Bft) 100 %
17.02.2017 17:25 5,6 C 97 % 1023,0 hPa 0,0 l/m 6,3 km/h (2 Bft) W-NW 292 5,2 C 9,4 km/h (2 Bft) 100 %
17.02.2017 17:26 5,6 C 97 % 1023,0 hPa 0,0 l/m 5,1 km/h (1 Bft) NW 313 5,2 C 9,4 km/h (2 Bft) 100 %
17.02.2017 17:27 5,6 C 97 % 1023,0 hPa 0,0 l/m 2,9 km/h (1 Bft) NW 317 5,2 C 9,4 km/h (2 Bft) 100 %
17.02.2017 17:28 5,6 C 97 % 1023,1 hPa 0,0 l/m 3,5 km/h (1 Bft) W-NW 293 5,2 C 6,3 km/h (2 Bft) 100 %
17.02.2017 17:29 5,6 C 96 % 1023,0 hPa 0,0 l/m 4,4 km/h (1 Bft) W 279 5,0 C 15,7 km/h (3 Bft) 100 %
17.02.2017 17:30 5,6 C 96 % 1023,1 hPa 0,0 l/m 7,5 km/h (2 Bft) W-NW 301 5,0 C 12,6 km/h (3 Bft) 100 %
17.02.2017 17:31 5,6 C 96 % 1023,1 hPa 0,0 l/m 6,8 km/h (2 Bft) W-NW 300 5,0 C 12,6 km/h (3 Bft) 100 %
17.02.2017 17:32 5,6 C 96 % 1023,1 hPa 0,0 l/m 6,1 km/h (2 Bft) W 277 5,0 C 9,4 km/h (2 Bft) 100 %
17.02.2017 17:33 5,7 C 96 % 1023,1 hPa 0,0 l/m 8,9 km/h (2 Bft) W-NW 299 5,1 C 15,7 km/h (3 Bft) 100 %
17.02.2017 17:34 5,7 C 96 % 1023,1 hPa 0,0 l/m 5,2 km/h (1 Bft) NW 326 5,1 C 9,4 km/h (2 Bft) 100 %
17.02.2017 17:35 5,7 C 96 % 1023,1 hPa 0,0 l/m 4,0 km/h (1 Bft) W-NW 299 5,1 C 9,4 km/h (2 Bft) 100 %
17.02.2017 17:36 5,7 C 96 % 1023,1 hPa 0,0 l/m 3,1 km/h (1 Bft) SW 217 5,1 C 9,4 km/h (2 Bft) 100 %
17.02.2017 17:37 5,7 C 96 % 1023,2 hPa 0,0 l/m 5,0 km/h (1 Bft) NW 315 5,1 C 12,6 km/h (3 Bft) 100 %
17.02.2017 17:38 5,7 C 96 % 1023,2 hPa 0,0 l/m 2,7 km/h (1 Bft) W 264 5,1 C 9,4 km/h (2 Bft) 100 %
17.02.2017 17:39 5,7 C 96 % 1023,3 hPa 0,0 l/m 8,0 km/h (2 Bft) NW 313 5,1 C 15,7 km/h (3 Bft) 100 %
17.02.2017 17:40 5,7 C 96 % 1023,2 hPa 0,0 l/m 7,8 km/h (2 Bft) W-NW 283 5,1 C 15,7 km/h (3 Bft) 100 %
17.02.2017 17:41 5,7 C 96 % 1023,3 hPa 0,0 l/m 5,5 km/h (1 Bft) W-NW 283 5,1 C 9,4 km/h (2 Bft) 100 %
17.02.2017 17:42 5,7 C 96 % 1023,3 hPa 0,0 l/m 4,0 km/h (1 Bft) W-NW 289 5,1 C 6,3 km/h (2 Bft) 100 %
17.02.2017 17:43 5,7 C 96 % 1023,2 hPa 0,0 l/m 3,4 km/h (1 Bft) NW 319 5,1 C 9,4 km/h (2 Bft) 92 %
17.02.2017 17:44 5,7 C 96 % 1023,2 hPa 0,0 l/m 3,4 km/h (1 Bft) NW 312 5,1 C 6,3 km/h (2 Bft) 100 %
17.02.2017 17:45 5,7 C 96 % 1023,2 hPa 0,0 l/m 3,6 km/h (1 Bft) W 268 5,1 C 6,3 km/h (2 Bft) 93 %
17.02.2017 17:46 5,7 C 96 % 1023,2 hPa 0,0 l/m 4,9 km/h (1 Bft) NW 310 5,1 C 12,6 km/h (3 Bft) 97 %
17.02.2017 17:47 5,7 C 96 % 1023,2 hPa 0,0 l/m 4,2 km/h (1 Bft) W-SW 248 5,1 C 6,3 km/h (2 Bft) 100 %
17.02.2017 17:48 5,7 C 96 % 1023,2 hPa 0,0 l/m 6,5 km/h (2 Bft) W-SW 253 5,1 C 9,4 km/h (2 Bft) 100 %
17.02.2017 17:49 5,6 C 96 % 1023,3 hPa 0,0 l/m 3,1 km/h (1 Bft) NW 305 5,0 C 9,4 km/h (2 Bft) 100 %
17.02.2017 17:50 5,6 C 96 % 1023,3 hPa 0,0 l/m 6,3 km/h (2 Bft) NW 320 5,0 C 12,6 km/h (3 Bft) 100 %
17.02.2017 17:51 5,6 C 96 % 1023,3 hPa 0,0 l/m 3,7 km/h (1 Bft) W-NW 300 5,0 C 9,4 km/h (2 Bft) 93 %
17.02.2017 17:52 5,6 C 96 % 1023,3 hPa 0,0 l/m 3,5 km/h (1 Bft) NW 315 5,0 C 6,3 km/h (2 Bft) 100 %
17.02.2017 17:53 5,6 C 96 % 1023,3 hPa 0,0 l/m 9,0 km/h (2 Bft) W-NW 298 5,0 C 15,7 km/h (3 Bft) 91 %
17.02.2017 17:54 5,6 C 96 % 1023,3 hPa 0,0 l/m 8,2 km/h (2 Bft) W-NW 297 5,0 C 12,6 km/h (3 Bft) 100 %
17.02.2017 17:55 5,6 C 96 % 1023,3 hPa 0,0 l/m 4,6 km/h (1 Bft) W-NW 285 5,0 C 12,6 km/h (3 Bft) 100 %
17.02.2017 17:56 5,6 C 96 % 1023,4 hPa 0,0 l/m 4,5 km/h (1 Bft) W-NW 300 5,0 C 6,3 km/h (2 Bft) 97 %
17.02.2017 17:57 5,6 C 96 % 1023,4 hPa 0,0 l/m 2,0 km/h (1 Bft) W-SW 253 5,0 C 6,3 km/h (2 Bft) 92 %
17.02.2017 17:58 5,6 C 96 % 1023,4 hPa 0,0 l/m 4,3 km/h (1 Bft) W-NW 288 5,0 C 9,4 km/h (2 Bft) 100 %
17.02.2017 17:59 5,6 C 96 % 1023,4 hPa 0,0 l/m 2,7 km/h (1 Bft) W 264 5,0 C 6,3 km/h (2 Bft) 96 %
17.02.2017 18:00 5,6 C 96 % 1023,4 hPa 0,0 l/m 3,3 km/h (1 Bft) W-NW 286 5,0 C 6,3 km/h (2 Bft) 100 %
17.02.2017 18:01 5,6 C 96 % 1023,4 hPa 0,0 l/m 1,7 km/h (1 Bft) W 271 5,0 C 6,3 km/h (2 Bft) 96 %
17.02.2017 18:02 5,6 C 96 % 1023,4 hPa 0,0 l/m 3,4 km/h (1 Bft) W 268 5,0 C 6,3 km/h (2 Bft) 96 %
17.02.2017 18:03 5,6 C 96 % 1023,3 hPa 0,0 l/m 3,4 km/h (1 Bft) W-NW 300 5,0 C 9,4 km/h (2 Bft) 100 %
17.02.2017 18:04 5,6 C 96 % 1023,4 hPa 0,0 l/m 3,9 km/h (1 Bft) W-NW 301 5,0 C 6,3 km/h (2 Bft) 93 %
17.02.2017 18:05 5,6 C 96 % 1023,4 hPa 0,0 l/m 4,4 km/h (1 Bft) W-NW 295 5,0 C 6,3 km/h (2 Bft) 100 %
17.02.2017 18:06 5,6 C 96 % 1023,4 hPa 0,0 l/m 0,1 km/h (0 Bft) W 270 5,0 C 3,1 km/h (1 Bft) 96 %
17.02.2017 18:07 5,5 C 96 % 1023,4 hPa 0,0 l/m 5,5 km/h (1 Bft) SW 233 4,9 C 15,7 km/h (3 Bft) 100 %
17.02.2017 18:08 5,5 C 96 % 1023,4 hPa 0,0 l/m 4,7 km/h (1 Bft) W-NW 298 4,9 C 9,4 km/h (2 Bft) 92 %
17.02.2017 18:09 5,6 C 96 % 1023,4 hPa 0,0 l/m 3,3 km/h (1 Bft) W-NW 292 5,0 C 6,3 km/h (2 Bft) 92 %
17.02.2017 18:10 5,5 C 96 % 1023,5 hPa 0,0 l/m 0,8 km/h (0 Bft) W 266 4,9 C 3,1 km/h (1 Bft) 100 %
17.02.2017 18:11 5,5 C 96 % 1023,5 hPa 0,0 l/m 2,6 km/h (1 Bft) W 264 4,9 C 9,4 km/h (2 Bft) 97 %
17.02.2017 18:12 5,5 C 96 % 1023,5 hPa 0,0 l/m 3,6 km/h (1 Bft) W 270 4,9 C 9,4 km/h (2 Bft) 100 %
17.02.2017 18:13 5,5 C 96 % 1023,5 hPa 0,0 l/m 1,6 km/h (1 Bft) W 264 4,9 C 6,3 km/h (2 Bft) 96 %
17.02.2017 18:14 5,5 C 96 % 1023,5 hPa 0,0 l/m 4,4 km/h (1 Bft) W 259 4,9 C 6,3 km/h (2 Bft) 100 %
17.02.2017 18:15 5,5 C 96 % 1023,5 hPa 0,0 l/m 3,4 km/h (1 Bft) W-NW 282 4,9 C 6,3 km/h (2 Bft) 100 %
17.02.2017 18:16 5,5 C 96 % 1023,5 hPa 0,0 l/m 3,7 km/h (1 Bft) W-NW 293 4,9 C 9,4 km/h (2 Bft) 96 %
17.02.2017 18:17 5,5 C 96 % 1023,5 hPa 0,0 l/m 2,5 km/h (1 Bft) W-NW 289 4,9 C 6,3 km/h (2 Bft) 100 %
17.02.2017 18:18 5,5 C 96 % 1023,5 hPa 0,0 l/m 3,9 km/h (1 Bft) W-SW 250 4,9 C 9,4 km/h (2 Bft) 100 %
17.02.2017 18:19 5,5 C 96 % 1023,5 hPa 0,0 l/m 2,9 km/h (1 Bft) W-NW 293 4,9 C 6,3 km/h (2 Bft) 96 %
17.02.2017 18:20 5,5 C 96 % 1023,5 hPa 0,0 l/m 5,0 km/h (1 Bft) W-NW 283 4,9 C 9,4 km/h (2 Bft) 96 %
17.02.2017 18:22 5,5 C 96 % 1023,6 hPa 0,0 l/m 1,5 km/h (1 Bft) W-NW 288 4,9 C 6,3 km/h (2 Bft) 100 %
17.02.2017 18:23 5,5 C 96 % 1023,6 hPa 0,0 l/m 3,3 km/h (1 Bft) W 267 4,9 C 9,4 km/h (2 Bft) 100 %
17.02.2017 18:24 5,5 C 96 % 1023,6 hPa 0,0 l/m 2,2 km/h (1 Bft) NW 317 4,9 C 6,3 km/h (2 Bft) 88 %
17.02.2017 18:25 5,4 C 96 % 1023,6 hPa 0,0 l/m 2,4 km/h (1 Bft) W-NW 288 4,8 C 3,1 km/h (1 Bft) 100 %
17.02.2017 18:26 5,5 C 96 % 1023,7 hPa 0,0 l/m 4,6 km/h (1 Bft) W-NW 287 4,9 C 12,6 km/h (3 Bft) 100 %
17.02.2017 18:27 5,4 C 96 % 1023,7 hPa 0,0 l/m 1,7 km/h (1 Bft) NW 316 4,8 C 6,3 km/h (2 Bft) 100 %
17.02.2017 18:28 5,4 C 96 % 1023,7 hPa 0,0 l/m 1,3 km/h (1 Bft) W-SW 243 4,8 C 6,3 km/h (2 Bft) 96 %
17.02.2017 18:29 5,4 C 96 % 1023,7 hPa 0,0 l/m 1,6 km/h (1 Bft) W-NW 283 4,8 C 6,3 km/h (2 Bft) 100 %
17.02.2017 18:30 5,4 C 96 % 1023,7 hPa 0,0 l/m 2,0 km/h (1 Bft) W-NW 285 4,8 C 3,1 km/h (1 Bft) 100 %
17.02.2017 18:32 5,4 C 96 % 1023,7 hPa 0,0 l/m 3,5 km/h (1 Bft) W-SW 240 4,8 C 9,4 km/h (2 Bft) 100 %
17.02.2017 18:33 5,4 C 96 % 1023,7 hPa 0,0 l/m 5,6 km/h (1 Bft) W-NW 283 4,8 C 9,4 km/h (2 Bft) 100 %
17.02.2017 18:34 5,4 C 96 % 1023,7 hPa 0,0 l/m 4,4 km/h (1 Bft) W-NW 292 4,8 C 6,3 km/h (2 Bft) 100 %
17.02.2017 18:35 5,4 C 97 % 1023,8 hPa 0,0 l/m 6,7 km/h (2 Bft) NW 311 5,0 C 12,6 km/h (3 Bft) 96 %
17.02.2017 18:37 5,4 C 97 % 1023,8 hPa 0,0 l/m 2,3 km/h (1 Bft) W-NW 295 5,0 C 6,3 km/h (2 Bft) 100 %
17.02.2017 18:38 5,4 C 97 % 1023,8 hPa 0,0 l/m 4,0 km/h (1 Bft) NW 309 5,0 C 6,3 km/h (2 Bft) 100 %
17.02.2017 18:39 5,4 C 97 % 1023,9 hPa 0,0 l/m 3,9 km/h (1 Bft) NW 319 5,0 C 6,3 km/h (2 Bft) 100 %
17.02.2017 18:40 5,4 C 97 % 1023,8 hPa 0,0 l/m 5,4 km/h (1 Bft) W-NW 303 5,0 C 9,4 km/h (2 Bft) 100 %
17.02.2017 18:42 5,4 C 96 % 1023,8 hPa 0,0 l/m 2,6 km/h (1 Bft) W 279 4,8 C 6,3 km/h (2 Bft) 100 %
17.02.2017 18:43 5,4 C 97 % 1023,8 hPa 0,0 l/m 3,6 km/h (1 Bft) W-NW 300 5,0 C 9,4 km/h (2 Bft) 100 %
17.02.2017 18:44 5,4 C 97 % 1023,9 hPa 0,0 l/m 3,5 km/h (1 Bft) W-NW 289 5,0 C 6,3 km/h (2 Bft) 100 %
17.02.2017 18:45 5,4 C 97 % 1023,9 hPa 0,0 l/m 1,4 km/h (1 Bft) W-NW 300 5,0 C 3,1 km/h (1 Bft) 100 %
17.02.2017 18:47 5,4 C 97 % 1023,9 hPa 0,0 l/m 2,4 km/h (1 Bft) W 276 5,0 C 9,4 km/h (2 Bft) 100 %
17.02.2017 18:48 5,4 C 97 % 1023,9 hPa 0,0 l/m 0,8 km/h (0 Bft) NW 304 5,0 C 3,1 km/h (1 Bft) 100 %
17.02.2017 18:49 5,4 C 97 % 1023,9 hPa 0,0 l/m 3,7 km/h (1 Bft) W-NW 300 5,0 C 9,4 km/h (2 Bft) 100 %
17.02.2017 18:50 5,4 C 97 % 1024,0 hPa 0,0 l/m 1,3 km/h (1 Bft) W-NW 293 5,0 C 3,1 km/h (1 Bft) 100 %
17.02.2017 18:52 5,4 C 97 % 1024,0 hPa 0,0 l/m 3,4 km/h (1 Bft) W-SW 251 5,0 C 9,4 km/h (2 Bft) 100 %
17.02.2017 18:53 5,4 C 97 % 1024,0 hPa 0,0 l/m 4,7 km/h (1 Bft) W 261 5,0 C 9,4 km/h (2 Bft) 100 %
17.02.2017 18:54 5,4 C 97 % 1024,0 hPa 0,0 l/m 2,4 km/h (1 Bft) W-NW 297 5,0 C 3,1 km/h (1 Bft) 100 %
17.02.2017 18:55 5,4 C 97 % 1024,0 hPa 0,0 l/m 2,5 km/h (1 Bft) NW 324 5,0 C 3,1 km/h (1 Bft) 100 %
17.02.2017 18:57 5,4 C 97 % 1024,1 hPa 0,0 l/m 1,9 km/h (1 Bft) W 274 5,0 C 6,3 km/h (2 Bft) 100 %
17.02.2017 18:58 5,3 C 97 % 1024,1 hPa 0,0 l/m 3,5 km/h (1 Bft) W-NW 293 4,9 C 6,3 km/h (2 Bft) 100 %
17.02.2017 18:59 5,4 C 97 % 1024,1 hPa 0,0 l/m 0,9 km/h (0 Bft) W-SW 251 5,0 C 3,1 km/h (1 Bft) 100 %
17.02.2017 19:00 5,4 C 97 % 1024,1 hPa 0,0 l/m 1,3 km/h (1 Bft) W 271 5,0 C 3,1 km/h (1 Bft) 100 %
17.02.2017 19:01 5,4 C 97 % 1024,1 hPa 0,0 l/m 2,6 km/h (1 Bft) W 281 5,0 C 6,3 km/h (2 Bft) 100 %
17.02.2017 19:02 5,3 C 97 % 1024,1 hPa 0,0 l/m 0,1 km/h (0 Bft) W-NW 298 4,9 C 3,1 km/h (1 Bft) 100 %
17.02.2017 19:03 5,3 C 97 % 1024,1 hPa 0,0 l/m 3,3 km/h (1 Bft) W-NW 283 4,9 C 6,3 km/h (2 Bft) 100 %
17.02.2017 19:04 5,3 C 97 % 1024,0 hPa 0,0 l/m 2,9 km/h (1 Bft) W-NW 291 4,9 C 6,3 km/h (2 Bft) 100 %
17.02.2017 19:05 5,3 C 97 % 1024,0 hPa 0,0 l/m 1,3 km/h (1 Bft) W-NW 286 4,9 C 3,1 km/h (1 Bft) 100 %
17.02.2017 19:07 5,3 C 97 % 1024,0 hPa 0,0 l/m 1,8 km/h (1 Bft) W-NW 298 4,9 C 6,3 km/h (2 Bft) 100 %
17.02.2017 19:08 5,3 C 97 % 1024,0 hPa 0,0 l/m 0,1 km/h (0 Bft) W 281 4,9 C 3,1 km/h (1 Bft) 100 %
17.02.2017 19:09 5,3 C 97 % 1024,0 hPa 0,0 l/m 0,7 km/h (0 Bft) NW 313 4,9 C 3,1 km/h (1 Bft) 100 %
17.02.2017 19:10 5,3 C 97 % 1024,0 hPa 0,0 l/m 1,4 km/h (1 Bft) W-SW 252 4,9 C 3,1 km/h (1 Bft) 100 %
17.02.2017 19:12 5,3 C 97 % 1024,0 hPa 0,0 l/m 2,3 km/h (1 Bft) W-NW 289 4,9 C 6,3 km/h (2 Bft) 100 %
17.02.2017 19:13 5,3 C 97 % 1024,0 hPa 0,0 l/m 0,0 km/h (0 Bft) W-NW 285 4,9 C 0,0 km/h (0 Bft) 100 %
17.02.2017 19:14 5,3 C 97 % 1024,0 hPa 0,0 l/m 1,4 km/h (1 Bft) W 262 4,9 C 3,1 km/h (1 Bft) 100 %
17.02.2017 19:15 5,3 C 97 % 1024,0 hPa 0,0 l/m 0,3 km/h (0 Bft) W 271 4,9 C 3,1 km/h (1 Bft) 100 %
17.02.2017 19:17 5,3 C 97 % 1024,0 hPa 0,0 l/m 1,0 km/h (0 Bft) W 271 4,9 C 3,1 km/h (1 Bft) 100 %
17.02.2017 19:18 5,3 C 97 % 1024,0 hPa 0,0 l/m 1,2 km/h (1 Bft) W-NW 290 4,9 C 3,1 km/h (1 Bft) 100 %
17.02.2017 19:19 5,3 C 97 % 1024,1 hPa 0,0 l/m 0,1 km/h (0 Bft) W 275 4,9 C 3,1 km/h (1 Bft) 100 %
17.02.2017 19:20 5,3 C 97 % 1024,1 hPa 0,0 l/m 0,1 km/h (0 Bft) W-NW 282 4,9 C 3,1 km/h (1 Bft) 100 %
17.02.2017 19:22 5,2 C 97 % 1024,1 hPa 0,0 l/m 0,9 km/h (0 Bft) W 269 4,8 C 6,3 km/h (2 Bft) 100 %
17.02.2017 19:23 5,2 C 97 % 1024,1 hPa 0,0 l/m 2,5 km/h (1 Bft) W-NW 283 4,8 C 3,1 km/h (1 Bft) 100 %
17.02.2017 19:24 5,2 C 97 % 1024,1 hPa 0,0 l/m 0,8 km/h (0 Bft) W-NW 284 4,8 C 3,1 km/h (1 Bft) 100 %
17.02.2017 19:25 5,2 C 97 % 1024,1 hPa 0,0 l/m 2,4 km/h (1 Bft) W-NW 288 4,8 C 3,1 km/h (1 Bft) 100 %
17.02.2017 19:27 5,2 C 97 % 1024,1 hPa 0,0 l/m 3,7 km/h (1 Bft) W-SW 241 4,8 C 6,3 km/h (2 Bft) 100 %
17.02.2017 19:28 5,2 C 97 % 1024,1 hPa 0,0 l/m 0,3 km/h (0 Bft) NW 326 4,8 C 3,1 km/h (1 Bft) 100 %
17.02.2017 19:29 5,3 C 97 % 1024,1 hPa 0,0 l/m 2,0 km/h (1 Bft) W 259 4,9 C 6,3 km/h (2 Bft) 100 %
17.02.2017 19:30 5,3 C 97 % 1024,1 hPa 0,0 l/m 0,3 km/h (0 Bft) W-NW 298 4,9 C 3,1 km/h (1 Bft) 100 %
17.02.2017 19:32 5,3 C 97 % 1024,1 hPa 0,0 l/m 2,3 km/h (1 Bft) W-NW 283 4,9 C 6,3 km/h (2 Bft) 100 %
17.02.2017 19:33 5,3 C 97 % 1024,1 hPa 0,0 l/m 2,5 km/h (1 Bft) W-NW 288 4,9 C 6,3 km/h (2 Bft) 100 %
17.02.2017 19:34 5,3 C 97 % 1024,1 hPa 0,0 l/m 1,1 km/h (1 Bft) W-NW 290 4,9 C 3,1 km/h (1 Bft) 100 %
17.02.2017 19:35 5,3 C 97 % 1024,1 hPa 0,0 l/m 1,6 km/h (1 Bft) NW 317 4,9 C 6,3 km/h (2 Bft) 100 %
17.02.2017 19:37 5,3 C 97 % 1024,1 hPa 0,0 l/m 3,8 km/h (1 Bft) W-NW 289 4,9 C 9,4 km/h (2 Bft) 100 %
17.02.2017 19:38 5,3 C 97 % 1024,1 hPa 0,0 l/m 1,8 km/h (1 Bft) W-NW 293 4,9 C 3,1 km/h (1 Bft) 100 %
17.02.2017 19:39 5,3 C 97 % 1024,1 hPa 0,0 l/m 2,2 km/h (1 Bft) W-NW 299 4,9 C 6,3 km/h (2 Bft) 100 %
17.02.2017 19:40 5,3 C 97 % 1024,1 hPa 0,0 l/m 0,8 km/h (0 Bft) W 264 4,9 C 3,1 km/h (1 Bft) 100 %
17.02.2017 19:42 5,3 C 97 % 1024,2 hPa 0,0 l/m 2,3 km/h (1 Bft) W-SW 245 4,9 C 6,3 km/h (2 Bft) 100 %
17.02.2017 19:43 5,4 C 97 % 1024,2 hPa 0,0 l/m 0,3 km/h (0 Bft) W-SW 246 5,0 C 3,1 km/h (1 Bft) 100 %
17.02.2017 19:44 5,3 C 97 % 1024,2 hPa 0,0 l/m 2,4 km/h (1 Bft) W-NW 286 4,9 C 6,3 km/h (2 Bft) 100 %
17.02.2017 19:45 5,3 C 97 % 1024,2 hPa 0,0 l/m 2,7 km/h (1 Bft) W-NW 298 4,9 C 3,1 km/h (1 Bft) 100 %
17.02.2017 19:46 5,3 C 96 % 1024,2 hPa 0,0 l/m 2,8 km/h (1 Bft) W-NW 291 4,7 C 3,1 km/h (1 Bft) 100 %
17.02.2017 19:47 5,3 C 96 % 1024,2 hPa 0,0 l/m 3,5 km/h (1 Bft) W 273 4,7 C 6,3 km/h (2 Bft) 100 %
17.02.2017 19:48 5,3 C 96 % 1024,2 hPa 0,0 l/m 2,8 km/h (1 Bft) W-SW 245 4,7 C 6,3 km/h (2 Bft) 100 %
17.02.2017 19:49 5,3 C 96 % 1024,2 hPa 0,0 l/m 3,0 km/h (1 Bft) W-NW 290 4,7 C 3,1 km/h (1 Bft) 100 %
17.02.2017 19:50 5,3 C 96 % 1024,2 hPa 0,0 l/m 1,9 km/h (1 Bft) W-NW 284 4,7 C 3,1 km/h (1 Bft) 100 %
17.02.2017 19:51 5,3 C 96 % 1024,2 hPa 0,0 l/m 4,7 km/h (1 Bft) W-NW 284 4,7 C 9,4 km/h (2 Bft) 100 %
17.02.2017 19:52 5,3 C 96 % 1024,2 hPa 0,0 l/m 1,6 km/h (1 Bft) NW 315 4,7 C 3,1 km/h (1 Bft) 100 %
17.02.2017 19:53 5,3 C 96 % 1024,2 hPa 0,0 l/m 1,0 km/h (0 Bft) W-NW 296 4,7 C 6,3 km/h (2 Bft) 100 %
17.02.2017 19:54 5,3 C 96 % 1024,2 hPa 0,0 l/m 2,1 km/h (1 Bft) W 281 4,7 C 6,3 km/h (2 Bft) 100 %
17.02.2017 19:55 5,3 C 96 % 1024,2 hPa 0,0 l/m 0,3 km/h (0 Bft) W 272 4,7 C 3,1 km/h (1 Bft) 100 %
17.02.2017 19:57 5,3 C 96 % 1024,2 hPa 0,0 l/m 0,1 km/h (0 Bft) W 276 4,7 C 3,1 km/h (1 Bft) 97 %
17.02.2017 19:58 5,3 C 96 % 1024,2 hPa 0,0 l/m 0,0 km/h (0 Bft) W 276 4,7 C 0,0 km/h (0 Bft) 100 %
17.02.2017 19:59 5,3 C 96 % 1024,3 hPa 0,0 l/m 1,4 km/h (1 Bft) W-NW 284 4,7 C 3,1 km/h (1 Bft) 97 %
17.02.2017 20:00 5,3 C 96 % 1024,3 hPa 0,0 l/m 0,2 km/h (0 Bft) W-NW 296 4,7 C 3,1 km/h (1 Bft) 96 %
17.02.2017 20:02 5,3 C 96 % 1024,2 hPa 0,0 l/m 0,1 km/h (0 Bft) NW 314 4,7 C 3,1 km/h (1 Bft) 97 %
17.02.2017 20:03 5,3 C 96 % 1024,2 hPa 0,0 l/m 1,8 km/h (1 Bft) W 276 4,7 C 3,1 km/h (1 Bft) 100 %
17.02.2017 20:04 5,3 C 96 % 1024,3 hPa 0,0 l/m 0,2 km/h (0 Bft) W-NW 285 4,7 C 3,1 km/h (1 Bft) 96 %
17.02.2017 20:05 5,3 C 96 % 1024,2 hPa 0,0 l/m 3,8 km/h (1 Bft) NW 321 4,7 C 9,4 km/h (2 Bft) 100 %
17.02.2017 20:07 5,3 C 96 % 1024,3 hPa 0,0 l/m 4,9 km/h (1 Bft) W-NW 283 4,7 C 12,6 km/h (3 Bft) 98 %
17.02.2017 20:08 5,3 C 96 % 1024,3 hPa 0,0 l/m 4,4 km/h (1 Bft) N-NW 338 4,7 C 6,3 km/h (2 Bft) 99 %
17.02.2017 20:09 5,3 C 96 % 1024,3 hPa 0,0 l/m 4,4 km/h (1 Bft) W-NW 288 4,7 C 9,4 km/h (2 Bft) 97 %
17.02.2017 20:10 5,3 C 96 % 1024,3 hPa 0,0 l/m 3,8 km/h (1 Bft) W-NW 290 4,7 C 6,3 km/h (2 Bft) 96 %
17.02.2017 20:11 5,3 C 96 % 1024,3 hPa 0,0 l/m 2,2 km/h (1 Bft) W-NW 293 4,7 C 6,3 km/h (2 Bft) 96 %
17.02.2017 20:12 5,3 C 96 % 1024,3 hPa 0,0 l/m 2,2 km/h (1 Bft) W-NW 285 4,7 C 6,3 km/h (2 Bft) 100 %
17.02.2017 20:13 5,3 C 96 % 1024,3 hPa 0,0 l/m 4,2 km/h (1 Bft) W-SW 255 4,7 C 12,6 km/h (3 Bft) 96 %
17.02.2017 20:14 5,3 C 96 % 1024,3 hPa 0,0 l/m 2,3 km/h (1 Bft) W-NW 293 4,7 C 6,3 km/h (2 Bft) 100 %
17.02.2017 20:15 5,3 C 96 % 1024,3 hPa 0,0 l/m 2,0 km/h (1 Bft) W-NW 302 4,7 C 6,3 km/h (2 Bft) 97 %
17.02.2017 20:16 5,4 C 96 % 1024,3 hPa 0,0 l/m 3,6 km/h (1 Bft) W-NW 295 4,8 C 6,3 km/h (2 Bft) 100 %
17.02.2017 20:17 5,4 C 96 % 1024,3 hPa 0,0 l/m 3,0 km/h (1 Bft) W 274 4,8 C 6,3 km/h (2 Bft) 96 %
17.02.2017 20:18 5,4 C 96 % 1024,3 hPa 0,0 l/m 2,0 km/h (1 Bft) NW 305 4,8 C 3,1 km/h (1 Bft) 100 %
17.02.2017 20:19 5,4 C 96 % 1024,3 hPa 0,0 l/m 2,8 km/h (1 Bft) NW 304 4,8 C 6,3 km/h (2 Bft) 96 %
17.02.2017 20:20 5,4 C 96 % 1024,3 hPa 0,0 l/m 7,2 km/h (2 Bft) NW 310 4,8 C 12,6 km/h (3 Bft) 96 %
17.02.2017 20:21 5,4 C 96 % 1024,4 hPa 0,0 l/m 3,3 km/h (1 Bft) W 280 4,8 C 9,4 km/h (2 Bft) 100 %
17.02.2017 20:22 5,4 C 96 % 1024,4 hPa 0,0 l/m 0,9 km/h (0 Bft) W 277 4,8 C 6,3 km/h (2 Bft) 92 %
17.02.2017 20:23 5,4 C 96 % 1024,4 hPa 0,0 l/m 2,0 km/h (1 Bft) NW 310 4,8 C 6,3 km/h (2 Bft) 100 %
17.02.2017 20:24 5,4 C 96 % 1024,4 hPa 0,0 l/m 1,8 km/h (1 Bft) W-NW 297 4,8 C 6,3 km/h (2 Bft) 96 %
17.02.2017 20:25 5,4 C 96 % 1024,4 hPa 0,0 l/m 2,7 km/h (1 Bft) NW 311 4,8 C 6,3 km/h (2 Bft) 100 %
17.02.2017 20:27 5,3 C 96 % 1024,4 hPa 0,0 l/m 4,2 km/h (1 Bft) W-NW 295 4,7 C 12,6 km/h (3 Bft) 96 %
17.02.2017 20:28 5,3 C 96 % 1024,4 hPa 0,0 l/m 1,6 km/h (1 Bft) W-NW 295 4,7 C 6,3 km/h (2 Bft) 100 %
17.02.2017 20:29 5,3 C 96 % 1024,4 hPa 0,0 l/m 2,4 km/h (1 Bft) NW 310 4,7 C 6,3 km/h (2 Bft) 100 %
17.02.2017 20:30 5,3 C 96 % 1024,4 hPa 0,0 l/m 3,8 km/h (1 Bft) W-NW 301 4,7 C 6,3 km/h (2 Bft) 100 %
17.02.2017 20:32 5,3 C 96 % 1024,4 hPa 0,0 l/m 3,5 km/h (1 Bft) W 271 4,7 C 6,3 km/h (2 Bft) 100 %
17.02.2017 20:33 5,3 C 96 % 1024,5 hPa 0,0 l/m 5,5 km/h (1 Bft) NW 304 4,7 C 6,3 km/h (2 Bft) 100 %
17.02.2017 20:34 5,4 C 96 % 1024,5 hPa 0,0 l/m 4,8 km/h (1 Bft) W-NW 283 4,8 C 9,4 km/h (2 Bft) 100 %
17.02.2017 20:35 5,4 C 96 % 1024,5 hPa 0,0 l/m 5,3 km/h (1 Bft) W 273 4,8 C 9,4 km/h (2 Bft) 100 %
17.02.2017 20:36 5,4 C 96 % 1024,5 hPa 0,0 l/m 3,1 km/h (1 Bft) W-NW 297 4,8 C 6,3 km/h (2 Bft) 100 %
17.02.2017 20:37 5,4 C 96 % 1024,5 hPa 0,0 l/m 1,0 km/h (0 Bft) W-NW 284 4,8 C 3,1 km/h (1 Bft) 100 %
17.02.2017 20:38 5,4 C 96 % 1024,5 hPa 0,0 l/m 1,2 km/h (1 Bft) W-NW 295 4,8 C 3,1 km/h (1 Bft) 100 %
17.02.2017 20:39 5,3 C 96 % 1024,5 hPa 0,0 l/m 3,9 km/h (1 Bft) W 281 4,7 C 6,3 km/h (2 Bft) 100 %
17.02.2017 20:40 5,3 C 96 % 1024,5 hPa 0,0 l/m 1,3 km/h (1 Bft) W 267 4,7 C 3,1 km/h (1 Bft) 100 %
17.02.2017 20:42 5,3 C 96 % 1024,6 hPa 0,0 l/m 4,4 km/h (1 Bft) W-NW 297 4,7 C 9,4 km/h (2 Bft) 100 %
17.02.2017 20:43 5,4 C 96 % 1024,6 hPa 0,0 l/m 1,8 km/h (1 Bft) W 281 4,8 C 3,1 km/h (1 Bft) 100 %
17.02.2017 20:44 5,4 C 96 % 1024,6 hPa 0,0 l/m 1,5 km/h (1 Bft) W-NW 303 4,8 C 3,1 km/h (1 Bft) 100 %
17.02.2017 20:45 5,4 C 96 % 1024,6 hPa 0,0 l/m 1,9 km/h (1 Bft) W-NW 299 4,8 C 3,1 km/h (1 Bft) 100 %
17.02.2017 20:46 5,4 C 96 % 1024,6 hPa 0,0 l/m 1,2 km/h (1 Bft) W-NW 297 4,8 C 3,1 km/h (1 Bft) 100 %
17.02.2017 20:47 5,4 C 96 % 1024,6 hPa 0,0 l/m 2,7 km/h (1 Bft) W-SW 258 4,8 C 6,3 km/h (2 Bft) 100 %
17.02.2017 20:48 5,4 C 96 % 1024,6 hPa 0,0 l/m 3,8 km/h (1 Bft) NW 316 4,8 C 9,4 km/h (2 Bft) 100 %
17.02.2017 20:49 5,4 C 96 % 1024,6 hPa 0,0 l/m 2,7 km/h (1 Bft) W-NW 293 4,8 C 6,3 km/h (2 Bft) 96 %
17.02.2017 20:50 5,4 C 96 % 1024,7 hPa 0,0 l/m 1,6 km/h (1 Bft) NW 305 4,8 C 3,1 km/h (1 Bft) 100 %
17.02.2017 20:52 5,3 C 96 % 1024,7 hPa 0,0 l/m 4,7 km/h (1 Bft) W-NW 290 4,7 C 9,4 km/h (2 Bft) 100 %
17.02.2017 20:53 5,4 C 96 % 1024,7 hPa 0,0 l/m 4,9 km/h (1 Bft) W-NW 293 4,8 C 9,4 km/h (2 Bft) 100 %
17.02.2017 20:54 5,3 C 96 % 1024,7 hPa 0,0 l/m 1,2 km/h (1 Bft) N-NW 333 4,7 C 3,1 km/h (1 Bft) 100 %
17.02.2017 20:55 5,4 C 96 % 1024,8 hPa 0,0 l/m 3,3 km/h (1 Bft) W-NW 300 4,8 C 9,4 km/h (2 Bft) 100 %
17.02.2017 20:56 5,4 C 96 % 1024,7 hPa 0,0 l/m 5,2 km/h (1 Bft) W 262 4,8 C 9,4 km/h (2 Bft) 100 %
17.02.2017 20:57 5,4 C 96 % 1024,7 hPa 0,0 l/m 0,7 km/h (0 Bft) W-NW 296 4,8 C 3,1 km/h (1 Bft) 100 %
17.02.2017 20:58 5,4 C 96 % 1024,7 hPa 0,0 l/m 2,0 km/h (1 Bft) NW 316 4,8 C 9,4 km/h (2 Bft) 100 %
17.02.2017 20:59 5,4 C 96 % 1024,8 hPa 0,0 l/m 4,6 km/h (1 Bft) W-NW 300 4,8 C 6,3 km/h (2 Bft) 100 %
17.02.2017 21:00 5,4 C 96 % 1024,8 hPa 0,0 l/m 1,0 km/h (0 Bft) W 270 4,8 C 3,1 km/h (1 Bft) 100 %
17.02.2017 21:01 5,4 C 96 % 1024,7 hPa 0,0 l/m 1,6 km/h (1 Bft) W 268 4,8 C 9,4 km/h (2 Bft) 100 %
17.02.2017 21:02 5,4 C 96 % 1024,7 hPa 0,0 l/m 4,1 km/h (1 Bft) W-NW 296 4,8 C 9,4 km/h (2 Bft) 100 %
17.02.2017 21:03 5,4 C 96 % 1024,8 hPa 0,0 l/m 2,7 km/h (1 Bft) W-NW 295 4,8 C 6,3 km/h (2 Bft) 100 %
17.02.2017 21:04 5,4 C 96 % 1024,8 hPa 0,0 l/m 3,4 km/h (1 Bft) W-NW 289 4,8 C 6,3 km/h (2 Bft) 100 %
17.02.2017 21:05 5,3 C 96 % 1024,9 hPa 0,0 l/m 1,2 km/h (1 Bft) W 266 4,7 C 6,3 km/h (2 Bft) 100 %
17.02.2017 21:06 5,4 C 96 % 1024,8 hPa 0,0 l/m 7,0 km/h (2 Bft) W-NW 285 4,8 C 9,4 km/h (2 Bft) 100 %
17.02.2017 21:07 5,4 C 96 % 1024,8 hPa 0,0 l/m 4,2 km/h (1 Bft) W-NW 285 4,8 C 6,3 km/h (2 Bft) 100 %
17.02.2017 21:08 5,3 C 96 % 1024,9 hPa 0,0 l/m 4,4 km/h (1 Bft) W 264 4,7 C 12,6 km/h (3 Bft) 100 %
17.02.2017 21:09 5,3 C 96 % 1024,9 hPa 0,0 l/m 4,5 km/h (1 Bft) W-NW 284 4,7 C 9,4 km/h (2 Bft) 100 %
17.02.2017 21:10 5,3 C 96 % 1024,9 hPa 0,0 l/m 2,6 km/h (1 Bft) W-NW 288 4,7 C 6,3 km/h (2 Bft) 100 %
17.02.2017 21:11 5,3 C 96 % 1024,9 hPa 0,0 l/m 3,3 km/h (1 Bft) NW 312 4,7 C 9,4 km/h (2 Bft) 100 %
17.02.2017 21:12 5,3 C 96 % 1024,9 hPa 0,0 l/m 3,6 km/h (1 Bft) W-NW 291 4,7 C 6,3 km/h (2 Bft) 100 %
17.02.2017 21:13 5,3 C 96 % 1024,9 hPa 0,0 l/m 3,9 km/h (1 Bft) W-NW 302 4,7 C 9,4 km/h (2 Bft) 100 %
17.02.2017 21:14 5,3 C 96 % 1025,0 hPa 0,0 l/m 1,7 km/h (1 Bft) NW 304 4,7 C 6,3 km/h (2 Bft) 100 %
17.02.2017 21:15 5,3 C 96 % 1025,0 hPa 0,0 l/m 2,0 km/h (1 Bft) W-NW 297 4,7 C 3,1 km/h (1 Bft) 100 %
17.02.2017 21:16 5,3 C 96 % 1025,0 hPa 0,0 l/m 5,3 km/h (1 Bft) W-NW 293 4,7 C 9,4 km/h (2 Bft) 100 %
17.02.2017 21:17 5,3 C 96 % 1025,0 hPa 0,0 l/m 2,5 km/h (1 Bft) W-NW 283 4,7 C 6,3 km/h (2 Bft) 100 %
17.02.2017 21:18 5,3 C 96 % 1025,1 hPa 0,0 l/m 1,4 km/h (1 Bft) SW 236 4,7 C 6,3 km/h (2 Bft) 100 %
17.02.2017 21:19 5,3 C 96 % 1025,0 hPa 0,0 l/m 6,8 km/h (2 Bft) NW 304 4,7 C 12,6 km/h (3 Bft) 100 %
17.02.2017 21:20 5,3 C 96 % 1025,0 hPa 0,0 l/m 1,5 km/h (1 Bft) W 262 4,7 C 3,1 km/h (1 Bft) 100 %
17.02.2017 21:21 5,3 C 96 % 1025,1 hPa 0,0 l/m 5,7 km/h (1 Bft) W-NW 282 4,7 C 9,4 km/h (2 Bft) 100 %
17.02.2017 21:22 5,3 C 96 % 1025,1 hPa 0,0 l/m 3,3 km/h (1 Bft) W-SW 250 4,7 C 12,6 km/h (3 Bft) 100 %
17.02.2017 21:23 5,3 C 96 % 1025,0 hPa 0,0 l/m 9,6 km/h (2 Bft) W-NW 302 4,7 C 12,6 km/h (3 Bft) 100 %
17.02.2017 21:24 5,3 C 96 % 1025,0 hPa 0,0 l/m 6,6 km/h (2 Bft) N-NW 335 4,7 C 9,4 km/h (2 Bft) 100 %
17.02.2017 21:25 5,3 C 96 % 1025,1 hPa 0,0 l/m 7,5 km/h (2 Bft) W 266 4,7 C 12,6 km/h (3 Bft) 100 %
17.02.2017 21:26 5,3 C 96 % 1025,0 hPa 0,0 l/m 4,3 km/h (1 Bft) NW 313 4,7 C 12,6 km/h (3 Bft) 99 %
17.02.2017 21:27 5,3 C 96 % 1025,0 hPa 0,0 l/m 8,0 km/h (2 Bft) NW 305 4,7 C 12,6 km/h (3 Bft) 100 %
17.02.2017 21:28 5,3 C 96 % 1025,1 hPa 0,0 l/m 10,5 km/h (2 Bft) NW 316 4,7 C 18,8 km/h (3 Bft) 100 %
17.02.2017 21:29 5,3 C 96 % 1025,1 hPa 0,0 l/m 4,1 km/h (1 Bft) W-NW 287 4,7 C 6,3 km/h (2 Bft) 100 %
17.02.2017 21:30 5,3 C 95 % 1025,1 hPa 0,0 l/m 5,0 km/h (1 Bft) W 262 4,6 C 9,4 km/h (2 Bft) 100 %
17.02.2017 21:31 5,3 C 95 % 1025,2 hPa 0,0 l/m 4,9 km/h (1 Bft) W-NW 300 4,6 C 12,6 km/h (3 Bft) 100 %
17.02.2017 21:32 5,3 C 95 % 1025,2 hPa 0,0 l/m 5,5 km/h (1 Bft) W-NW 290 4,6 C 9,4 km/h (2 Bft) 100 %
17.02.2017 21:33 5,3 C 95 % 1025,2 hPa 0,0 l/m 4,2 km/h (1 Bft) W-NW 301 4,6 C 9,4 km/h (2 Bft) 100 %
17.02.2017 21:34 5,3 C 95 % 1025,2 hPa 0,0 l/m 6,8 km/h (2 Bft) W-NW 288 4,6 C 18,8 km/h (3 Bft) 100 %
17.02.2017 21:35 5,3 C 95 % 1025,2 hPa 0,0 l/m 3,7 km/h (1 Bft) NW 305 4,6 C 9,4 km/h (2 Bft) 100 %
17.02.2017 21:36 5,3 C 95 % 1025,2 hPa 0,0 l/m 1,7 km/h (1 Bft) W-NW 283 4,6 C 6,3 km/h (2 Bft) 100 %
17.02.2017 21:37 5,3 C 95 % 1025,2 hPa 0,0 l/m 3,0 km/h (1 Bft) W-NW 282 4,6 C 6,3 km/h (2 Bft) 100 %
17.02.2017 21:38 5,3 C 95 % 1025,2 hPa 0,0 l/m 4,4 km/h (1 Bft) W 273 4,6 C 9,4 km/h (2 Bft) 100 %
17.02.2017 21:39 5,3 C 95 % 1025,2 hPa 0,0 l/m 3,8 km/h (1 Bft) NW 306 4,6 C 6,3 km/h (2 Bft) 100 %
17.02.2017 21:40 5,2 C 95 % 1025,2 hPa 0,0 l/m 1,4 km/h (1 Bft) NW 311 4,5 C 3,1 km/h (1 Bft) 100 %
17.02.2017 21:41 5,2 C 95 % 1025,2 hPa 0,0 l/m 3,7 km/h (1 Bft) W-NW 283 4,5 C 9,4 km/h (2 Bft) 100 %
17.02.2017 21:42 5,2 C 95 % 1025,2 hPa 0,0 l/m 2,2 km/h (1 Bft) W-NW 299 4,5 C 6,3 km/h (2 Bft) 100 %
17.02.2017 21:43 5,2 C 95 % 1025,2 hPa 0,0 l/m 3,5 km/h (1 Bft) W 271 4,5 C 9,4 km/h (2 Bft) 100 %
17.02.2017 21:44 5,2 C 95 % 1025,3 hPa 0,0 l/m 6,7 km/h (2 Bft) W-SW 256 4,5 C 12,6 km/h (3 Bft) 100 %
17.02.2017 21:45 5,2 C 95 % 1025,2 hPa 0,0 l/m 1,1 km/h (1 Bft) W-NW 287 4,5 C 3,1 km/h (1 Bft) 100 %
17.02.2017 21:46 5,2 C 95 % 1025,2 hPa 0,0 l/m 2,1 km/h (1 Bft) W-NW 299 4,5 C 6,3 km/h (2 Bft) 100 %
17.02.2017 21:47 5,2 C 95 % 1025,2 hPa 0,0 l/m 0,3 km/h (0 Bft) W 278 4,5 C 3,1 km/h (1 Bft) 100 %
17.02.2017 21:48 5,2 C 95 % 1025,3 hPa 0,0 l/m 3,4 km/h (1 Bft) W-SW 255 4,5 C 9,4 km/h (2 Bft) 100 %
17.02.2017 21:49 5,1 C 95 % 1025,2 hPa 0,0 l/m 1,6 km/h (1 Bft) W-NW 285 4,4 C 6,3 km/h (2 Bft) 100 %
17.02.2017 21:50 5,1 C 95 % 1025,2 hPa 0,0 l/m 2,0 km/h (1 Bft) NW 314 4,4 C 6,3 km/h (2 Bft) 100 %
17.02.2017 21:51 5,1 C 95 % 1025,3 hPa 0,0 l/m 0,8 km/h (0 Bft) NW 309 4,4 C 3,1 km/h (1 Bft) 100 %
17.02.2017 21:52 5,1 C 95 % 1025,3 hPa 0,0 l/m 6,1 km/h (2 Bft) W-NW 293 4,4 C 12,6 km/h (3 Bft) 100 %
17.02.2017 21:53 5,1 C 95 % 1025,3 hPa 0,0 l/m 2,7 km/h (1 Bft) NW 309 4,4 C 6,3 km/h (2 Bft) 100 %
17.02.2017 21:54 5,1 C 95 % 1025,3 hPa 0,0 l/m 6,7 km/h (2 Bft) W 266 4,4 C 9,4 km/h (2 Bft) 100 %
17.02.2017 21:55 5,1 C 95 % 1025,4 hPa 0,0 l/m 5,2 km/h (1 Bft) NW 304 4,4 C 9,4 km/h (2 Bft) 100 %
17.02.2017 21:56 5,1 C 95 % 1025,4 hPa 0,0 l/m 0,5 km/h (0 Bft) NW 304 4,4 C 3,1 km/h (1 Bft) 100 %
17.02.2017 21:57 5,1 C 95 % 1025,3 hPa 0,0 l/m 1,3 km/h (1 Bft) W-NW 302 4,4 C 3,1 km/h (1 Bft) 100 %
17.02.2017 21:58 5,1 C 95 % 1025,3 hPa 0,0 l/m 1,8 km/h (1 Bft) W 268 4,4 C 3,1 km/h (1 Bft) 100 %
17.02.2017 21:59 5,1 C 95 % 1025,3 hPa 0,0 l/m 3,1 km/h (1 Bft) W-NW 285 4,4 C 6,3 km/h (2 Bft) 100 %
17.02.2017 22:00 5,1 C 95 % 1025,3 hPa 0,0 l/m 4,1 km/h (1 Bft) NW 310 4,4 C 9,4 km/h (2 Bft) 100 %
17.02.2017 22:01 5,1 C 95 % 1025,3 hPa 0,0 l/m 5,6 km/h (1 Bft) NW 310 4,4 C 9,4 km/h (2 Bft) 100 %
17.02.2017 22:02 5,1 C 95 % 1025,3 hPa 0,0 l/m 2,4 km/h (1 Bft) NW 309 4,4 C 6,3 km/h (2 Bft) 100 %
17.02.2017 22:03 5,1 C 95 % 1025,3 hPa 0,0 l/m 2,4 km/h (1 Bft) NW 307 4,4 C 6,3 km/h (2 Bft) 100 %
17.02.2017 22:04 5,0 C 95 % 1025,3 hPa 0,0 l/m 3,1 km/h (1 Bft) W-NW 286 4,3 C 3,1 km/h (1 Bft) 99 %
17.02.2017 22:05 5,1 C 95 % 1025,3 hPa 0,0 l/m 2,3 km/h (1 Bft) W 276 4,4 C 6,3 km/h (2 Bft) 100 %
17.02.2017 22:06 5,1 C 95 % 1025,3 hPa 0,0 l/m 1,3 km/h (1 Bft) W-NW 284 4,4 C 6,3 km/h (2 Bft) 100 %
17.02.2017 22:07 5,0 C 95 % 1025,3 hPa 0,0 l/m 3,4 km/h (1 Bft) W-NW 302 4,3 C 9,4 km/h (2 Bft) 100 %
17.02.2017 22:08 5,0 C 95 % 1025,3 hPa 0,0 l/m 2,6 km/h (1 Bft) W-NW 285 4,3 C 6,3 km/h (2 Bft) 100 %
17.02.2017 22:09 5,0 C 95 % 1025,3 hPa 0,0 l/m 3,0 km/h (1 Bft) W-NW 285 4,3 C 6,3 km/h (2 Bft) 100 %
17.02.2017 22:10 5,1 C 95 % 1025,3 hPa 0,0 l/m 0,0 km/h (0 Bft) W-NW 298 4,4 C 0,0 km/h (0 Bft) 100 %
17.02.2017 22:11 5,0 C 95 % 1025,3 hPa 0,0 l/m 3,7 km/h (1 Bft) W-NW 291 4,3 C 6,3 km/h (2 Bft) 100 %
17.02.2017 22:12 5,1 C 95 % 1025,3 hPa 0,2 l/m 1,5 km/h (1 Bft) W-NW 296 4,4 C 3,1 km/h (1 Bft) 100 %
17.02.2017 22:13 5,1 C 95 % 1025,3 hPa 0,0 l/m 2,1 km/h (1 Bft) W-NW 297 4,4 C 3,1 km/h (1 Bft) 100 %
17.02.2017 22:14 5,0 C 95 % 1025,3 hPa 0,0 l/m 1,9 km/h (1 Bft) NW 309 4,3 C 6,3 km/h (2 Bft) 96 %
17.02.2017 22:15 5,1 C 95 % 1025,3 hPa 0,0 l/m 0,0 km/h (0 Bft) W-NW 290 4,4 C 0,0 km/h (0 Bft) 100 %
17.02.2017 22:16 5,1 C 95 % 1025,3 hPa 0,0 l/m 0,3 km/h (0 Bft) W 269 4,4 C 3,1 km/h (1 Bft) 96 %
17.02.2017 22:17 5,1 C 95 % 1025,3 hPa 0,0 l/m 0,5 km/h (0 Bft) W-NW 290 4,4 C 3,1 km/h (1 Bft) 96 %
17.02.2017 22:18 5,1 C 95 % 1025,3 hPa 0,0 l/m 3,3 km/h (1 Bft) W-NW 284 4,4 C 6,3 km/h (2 Bft) 100 %
17.02.2017 22:19 5,0 C 95 % 1025,3 hPa 0,0 l/m 1,9 km/h (1 Bft) W-NW 287 4,3 C 6,3 km/h (2 Bft) 100 %
17.02.2017 22:20 5,1 C 95 % 1025,3 hPa 0,0 l/m 0,4 km/h (0 Bft) W 278 4,4 C 3,1 km/h (1 Bft) 100 %
17.02.2017 22:21 5,0 C 95 % 1025,2 hPa 0,0 l/m 0,8 km/h (0 Bft) W-NW 288 4,3 C 3,1 km/h (1 Bft) 96 %
17.02.2017 22:22 5,0 C 95 % 1025,2 hPa 0,0 l/m 0,1 km/h (0 Bft) W-NW 299 4,3 C 3,1 km/h (1 Bft) 100 %
17.02.2017 22:23 5,0 C 95 % 1025,2 hPa 0,0 l/m 0,0 km/h (0 Bft) W-SW 254 4,3 C 0,0 km/h (0 Bft) 100 %
17.02.2017 22:24 5,0 C 95 % 1025,2 hPa 0,0 l/m 0,0 km/h (0 Bft) W-SW 254 4,3 C 0,0 km/h (0 Bft) 94 %
17.02.2017 22:25 5,0 C 95 % 1025,2 hPa 0,0 l/m 0,3 km/h (0 Bft) W-NW 288 4,3 C 3,1 km/h (1 Bft) 100 %
17.02.2017 22:26 5,0 C 95 % 1025,2 hPa 0,0 l/m 0,4 km/h (0 Bft) NW 306 4,3 C 3,1 km/h (1 Bft) 97 %
17.02.2017 22:27 5,0 C 95 % 1025,2 hPa 0,0 l/m 0,0 km/h (0 Bft) NW 306 4,3 C 0,0 km/h (0 Bft) 100 %
17.02.2017 22:28 5,0 C 95 % 1025,2 hPa 0,0 l/m 0,0 km/h (0 Bft) NW 305 4,3 C 0,0 km/h (0 Bft) 96 %
17.02.2017 22:29 5,0 C 95 % 1025,2 hPa 0,0 l/m 0,7 km/h (0 Bft) W 265 4,3 C 6,3 km/h (2 Bft) 100 %
17.02.2017 22:30 5,0 C 95 % 1025,2 hPa 0,0 l/m 1,1 km/h (1 Bft) NW 316 4,3 C 3,1 km/h (1 Bft) 94 %
17.02.2017 22:31 5,0 C 95 % 1025,2 hPa 0,0 l/m 1,2 km/h (1 Bft) W-NW 288 4,3 C 3,1 km/h (1 Bft) 100 %
17.02.2017 22:32 5,0 C 95 % 1025,2 hPa 0,0 l/m 0,0 km/h (0 Bft) W-NW 297 4,3 C 0,0 km/h (0 Bft) 96 %
17.02.2017 22:33 5,0 C 95 % 1025,2 hPa 0,0 l/m 1,3 km/h (1 Bft) W-NW 297 4,3 C 6,3 km/h (2 Bft) 96 %
17.02.2017 22:34 5,0 C 95 % 1025,2 hPa 0,0 l/m 2,2 km/h (1 Bft) W 269 4,3 C 6,3 km/h (2 Bft) 100 %
17.02.2017 22:35 5,0 C 95 % 1025,2 hPa 0,0 l/m 0,5 km/h (0 Bft) W 271 4,3 C 3,1 km/h (1 Bft) 96 %
17.02.2017 22:36 5,0 C 95 % 1025,2 hPa 0,0 l/m 0,1 km/h (0 Bft) W 271 4,3 C 3,1 km/h (1 Bft) 100 %
17.02.2017 22:37 5,0 C 95 % 1025,2 hPa 0,0 l/m 0,1 km/h (0 Bft) W 273 4,3 C 3,1 km/h (1 Bft) 96 %
17.02.2017 22:38 4,9 C 95 % 1025,2 hPa 0,0 l/m 0,0 km/h (0 Bft) W 273 4,2 C 0,0 km/h (0 Bft) 100 %
17.02.2017 22:39 4,9 C 95 % 1025,3 hPa 0,0 l/m 0,0 km/h (0 Bft) W 273 4,2 C 0,0 km/h (0 Bft) 98 %
17.02.2017 22:40 4,9 C 95 % 1025,2 hPa 0,0 l/m 0,1 km/h (0 Bft) W 273 4,2 C 3,1 km/h (1 Bft) 95 %
17.02.2017 22:41 4,9 C 95 % 1025,2 hPa 0,0 l/m 0,5 km/h (0 Bft) W-NW 288 4,2 C 3,1 km/h (1 Bft) 100 %
17.02.2017 22:42 4,9 C 95 % 1025,2 hPa 0,0 l/m 0,0 km/h (0 Bft) W-NW 288 4,2 C 0,0 km/h (0 Bft) 96 %
17.02.2017 22:43 4,9 C 95 % 1025,2 hPa 0,0 l/m 1,4 km/h (1 Bft) W-NW 296 4,2 C 3,1 km/h (1 Bft) 100 %
17.02.2017 22:44 4,9 C 95 % 1025,3 hPa 0,0 l/m 0,0 km/h (0 Bft) W-NW 297 4,2 C 0,0 km/h (0 Bft) 96 %
17.02.2017 22:45 4,9 C 95 % 1025,3 hPa 0,0 l/m 1,2 km/h (1 Bft) W-NW 288 4,2 C 3,1 km/h (1 Bft) 96 %
17.02.2017 22:46 4,9 C 95 % 1025,3 hPa 0,0 l/m 0,0 km/h (0 Bft) W-NW 288 4,2 C 0,0 km/h (0 Bft) 100 %
17.02.2017 22:47 4,9 C 95 % 1025,3 hPa 0,0 l/m 0,0 km/h (0 Bft) W-NW 288 4,2 C 0,0 km/h (0 Bft) 100 %
17.02.2017 22:48 4,9 C 95 % 1025,3 hPa 0,0 l/m 0,1 km/h (0 Bft) W-NW 288 4,2 C 3,1 km/h (1 Bft) 96 %
17.02.2017 22:49 4,9 C 95 % 1025,3 hPa 0,0 l/m 0,1 km/h (0 Bft) W-NW 287 4,2 C 3,1 km/h (1 Bft) 100 %
17.02.2017 22:50 4,9 C 95 % 1025,3 hPa 0,0 l/m 0,0 km/h (0 Bft) W-NW 287 4,2 C 0,0 km/h (0 Bft) 100 %
17.02.2017 22:51 4,9 C 95 % 1025,3 hPa 0,0 l/m 0,0 km/h (0 Bft) W-NW 287 4,2 C 0,0 km/h (0 Bft) 100 %
17.02.2017 22:52 4,9 C 95 % 1025,3 hPa 0,0 l/m 0,0 km/h (0 Bft) W-NW 287 4,2 C 0,0 km/h (0 Bft) 100 %
17.02.2017 22:53 4,9 C 95 % 1025,3 hPa 0,0 l/m 0,0 km/h (0 Bft) W-NW 287 4,2 C 0,0 km/h (0 Bft) 100 %
17.02.2017 22:54 4,9 C 95 % 1025,4 hPa 0,0 l/m 0,0 km/h (0 Bft) W-NW 287 4,2 C 0,0 km/h (0 Bft) 100 %
17.02.2017 22:55 4,9 C 95 % 1025,3 hPa 0,0 l/m 0,0 km/h (0 Bft) W-NW 287 4,2 C 0,0 km/h (0 Bft) 100 %
17.02.2017 22:56 4,9 C 95 % 1025,3 hPa 0,0 l/m 0,0 km/h (0 Bft) W-NW 287 4,2 C 0,0 km/h (0 Bft) 100 %
17.02.2017 22:57 4,9 C 95 % 1025,3 hPa 0,0 l/m 0,0 km/h (0 Bft) W-NW 287 4,2 C 0,0 km/h (0 Bft) 100 %
17.02.2017 22:58 4,9 C 95 % 1025,4 hPa 0,0 l/m 0,0 km/h (0 Bft) W-NW 287 4,2 C 0,0 km/h (0 Bft) 100 %
17.02.2017 22:59 4,9 C 95 % 1025,4 hPa 0,0 l/m 0,0 km/h (0 Bft) W-NW 287 4,2 C 0,0 km/h (0 Bft) 100 %
17.02.2017 23:00 4,9 C 95 % 1025,4 hPa 0,0 l/m 0,1 km/h (0 Bft) W-NW 287 4,2 C 3,1 km/h (1 Bft) 100 %
17.02.2017 23:01 4,9 C 95 % 1025,4 hPa 0,0 l/m 0,0 km/h (0 Bft) W-NW 287 4,2 C 0,0 km/h (0 Bft) 100 %
17.02.2017 23:02 4,9 C 95 % 1025,4 hPa 0,0 l/m 0,0 km/h (0 Bft) W-NW 287 4,2 C 0,0 km/h (0 Bft) 100 %
17.02.2017 23:03 4,9 C 95 % 1025,4 hPa 0,0 l/m 0,0 km/h (0 Bft) W-NW 287 4,2 C 0,0 km/h (0 Bft) 100 %
17.02.2017 23:04 4,9 C 95 % 1025,4 hPa 0,0 l/m 0,0 km/h (0 Bft) W-NW 287 4,2 C 0,0 km/h (0 Bft) 100 %
17.02.2017 23:05 4,9 C 95 % 1025,4 hPa 0,0 l/m 0,0 km/h (0 Bft) W-NW 287 4,2 C 0,0 km/h (0 Bft) 100 %
17.02.2017 23:06 4,9 C 96 % 1025,4 hPa 0,0 l/m 0,0 km/h (0 Bft) W-NW 287 4,3 C 0,0 km/h (0 Bft) 100 %
17.02.2017 23:07 4,9 C 96 % 1025,4 hPa 0,0 l/m 0,0 km/h (0 Bft) W-NW 287 4,3 C 0,0 km/h (0 Bft) 100 %
17.02.2017 23:08 4,9 C 96 % 1025,4 hPa 0,0 l/m 0,0 km/h (0 Bft) W-NW 287 4,3 C 0,0 km/h (0 Bft) 100 %
17.02.2017 23:09 4,9 C 96 % 1025,3 hPa 0,0 l/m 0,0 km/h (0 Bft) W-NW 287 4,3 C 0,0 km/h (0 Bft) 100 %
17.02.2017 23:10 4,9 C 96 % 1025,3 hPa 0,0 l/m 0,0 km/h (0 Bft) W-NW 287 4,3 C 0,0 km/h (0 Bft) 100 %
17.02.2017 23:11 4,9 C 96 % 1025,3 hPa 0,0 l/m 0,0 km/h (0 Bft) W 269 4,3 C 0,0 km/h (0 Bft) 100 %
17.02.2017 23:12 4,9 C 96 % 1025,3 hPa 0,0 l/m 0,1 km/h (0 Bft) W 269 4,3 C 3,1 km/h (1 Bft) 100 %
17.02.2017 23:13 4,9 C 96 % 1025,4 hPa 0,0 l/m 0,1 km/h (0 Bft) W 269 4,3 C 3,1 km/h (1 Bft) 100 %
17.02.2017 23:14 4,9 C 96 % 1025,3 hPa 0,0 l/m 0,0 km/h (0 Bft) W 269 4,3 C 0,0 km/h (0 Bft) 100 %
17.02.2017 23:15 4,9 C 96 % 1025,4 hPa 0,0 l/m 0,0 km/h (0 Bft) W 269 4,3 C 0,0 km/h (0 Bft) 100 %
17.02.2017 23:16 4,9 C 96 % 1025,3 hPa 0,0 l/m 0,0 km/h (0 Bft) W 269 4,3 C 0,0 km/h (0 Bft) 100 %
17.02.2017 23:17 4,9 C 96 % 1025,3 hPa 0,0 l/m 0,0 km/h (0 Bft) W 269 4,3 C 0,0 km/h (0 Bft) 100 %
17.02.2017 23:18 4,9 C 96 % 1025,3 hPa 0,0 l/m 0,0 km/h (0 Bft) W 269 4,3 C 0,0 km/h (0 Bft) 100 %
17.02.2017 23:19 4,9 C 96 % 1025,3 hPa 0,0 l/m 0,0 km/h (0 Bft) W 269 4,3 C 0,0 km/h (0 Bft) 100 %
17.02.2017 23:20 4,9 C 96 % 1025,4 hPa 0,0 l/m 0,0 km/h (0 Bft) W 269 4,3 C 0,0 km/h (0 Bft) 99 %
17.02.2017 23:21 4,9 C 96 % 1025,3 hPa 0,0 l/m 0,1 km/h (0 Bft) W 269 4,3 C 3,1 km/h (1 Bft) 100 %
17.02.2017 23:22 4,8 C 96 % 1025,4 hPa 0,0 l/m 0,0 km/h (0 Bft) W 269 4,2 C 0,0 km/h (0 Bft) 100 %
17.02.2017 23:23 4,8 C 96 % 1025,4 hPa 0,0 l/m 0,0 km/h (0 Bft) W 269 4,2 C 0,0 km/h (0 Bft) 100 %
17.02.2017 23:24 4,8 C 96 % 1025,4 hPa 0,0 l/m 0,1 km/h (0 Bft) W 269 4,2 C 3,1 km/h (1 Bft) 100 %
17.02.2017 23:25 4,8 C 96 % 1025,3 hPa 0,0 l/m 0,0 km/h (0 Bft) W 269 4,2 C 0,0 km/h (0 Bft) 100 %
17.02.2017 23:26 4,8 C 96 % 1025,4 hPa 0,0 l/m 0,2 km/h (0 Bft) W 269 4,2 C 3,1 km/h (1 Bft) 100 %
17.02.2017 23:27 4,8 C 96 % 1025,4 hPa 0,0 l/m 0,0 km/h (0 Bft) W 269 4,2 C 0,0 km/h (0 Bft) 100 %
17.02.2017 23:28 4,8 C 96 % 1025,4 hPa 0,0 l/m 0,0 km/h (0 Bft) W 269 4,2 C 0,0 km/h (0 Bft) 100 %
17.02.2017 23:29 4,8 C 96 % 1025,4 hPa 0,0 l/m 0,0 km/h (0 Bft) W 269 4,2 C 0,0 km/h (0 Bft) 100 %
17.02.2017 23:30 4,8 C 96 % 1025,4 hPa 0,0 l/m 0,1 km/h (0 Bft) W 259 4,2 C 3,1 km/h (1 Bft) 100 %
17.02.2017 23:31 4,8 C 96 % 1025,4 hPa 0,0 l/m 0,0 km/h (0 Bft) W 259 4,2 C 0,0 km/h (0 Bft) 100 %
17.02.2017 23:32 4,8 C 96 % 1025,4 hPa 0,0 l/m 0,0 km/h (0 Bft) W 259 4,2 C 0,0 km/h (0 Bft) 100 %
17.02.2017 23:33 4,8 C 96 % 1025,3 hPa 0,0 l/m 0,0 km/h (0 Bft) W 259 4,2 C 0,0 km/h (0 Bft) 100 %
17.02.2017 23:34 4,8 C 96 % 1025,3 hPa 0,0 l/m 0,0 km/h (0 Bft) W 259 4,2 C 0,0 km/h (0 Bft) 100 %
17.02.2017 23:35 4,8 C 96 % 1025,3 hPa 0,0 l/m 0,0 km/h (0 Bft) W 259 4,2 C 0,0 km/h (0 Bft) 100 %
17.02.2017 23:36 4,8 C 96 % 1025,3 hPa 0,0 l/m 0,0 km/h (0 Bft) W 259 4,2 C 0,0 km/h (0 Bft) 100 %
17.02.2017 23:37 4,8 C 96 % 1025,3 hPa 0,0 l/m 0,0 km/h (0 Bft) W 259 4,2 C 0,0 km/h (0 Bft) 100 %
17.02.2017 23:38 4,8 C 96 % 1025,3 hPa 0,0 l/m 0,0 km/h (0 Bft) W 259 4,2 C 0,0 km/h (0 Bft) 100 %
17.02.2017 23:39 4,8 C 97 % 1025,3 hPa 0,0 l/m 0,0 km/h (0 Bft) W 259 4,4 C 0,0 km/h (0 Bft) 100 %
17.02.2017 23:40 4,7 C 97 % 1025,3 hPa 0,0 l/m 0,0 km/h (0 Bft) W 259 4,3 C 0,0 km/h (0 Bft) 100 %
17.02.2017 23:41 4,7 C 97 % 1025,4 hPa 0,0 l/m 0,0 km/h (0 Bft) W 259 4,3 C 0,0 km/h (0 Bft) 100 %
17.02.2017 23:42 4,7 C 97 % 1025,4 hPa 0,0 l/m 0,0 km/h (0 Bft) W 259 4,3 C 0,0 km/h (0 Bft) 100 %
17.02.2017 23:43 4,7 C 97 % 1025,4 hPa 0,0 l/m 0,0 km/h (0 Bft) W 259 4,3 C 0,0 km/h (0 Bft) 100 %
17.02.2017 23:44 4,7 C 97 % 1025,4 hPa 0,0 l/m 0,0 km/h (0 Bft) W 259 4,3 C 0,0 km/h (0 Bft) 100 %
17.02.2017 23:45 4,7 C 97 % 1025,3 hPa 0,0 l/m 0,0 km/h (0 Bft) W 259 4,3 C 0,0 km/h (0 Bft) 100 %
17.02.2017 23:46 4,7 C 97 % 1025,4 hPa 0,0 l/m 0,1 km/h (0 Bft) W 259 4,3 C 3,1 km/h (1 Bft) 100 %
17.02.2017 23:47 4,7 C 97 % 1025,4 hPa 0,0 l/m 0,0 km/h (0 Bft) W 259 4,3 C 0,0 km/h (0 Bft) 100 %
17.02.2017 23:48 4,7 C 97 % 1025,4 hPa 0,0 l/m 0,0 km/h (0 Bft) W 259 4,3 C 0,0 km/h (0 Bft) 100 %
17.02.2017 23:49 4,7 C 97 % 1025,4 hPa 0,0 l/m 0,2 km/h (0 Bft) W 263 4,3 C 3,1 km/h (1 Bft) 100 %
17.02.2017 23:50 4,7 C 97 % 1025,4 hPa 0,0 l/m 0,0 km/h (0 Bft) W 263 4,3 C 0,0 km/h (0 Bft) 100 %
17.02.2017 23:51 4,7 C 97 % 1025,4 hPa 0,0 l/m 0,0 km/h (0 Bft) W 263 4,3 C 0,0 km/h (0 Bft) 100 %
17.02.2017 23:52 4,7 C 97 % 1025,4 hPa 0,0 l/m 0,0 km/h (0 Bft) W 263 4,3 C 0,0 km/h (0 Bft) 100 %
17.02.2017 23:53 4,7 C 97 % 1025,4 hPa 0,0 l/m 0,1 km/h (0 Bft) W 263 4,3 C 3,1 km/h (1 Bft) 100 %
17.02.2017 23:54 4,7 C 97 % 1025,4 hPa 0,0 l/m 0,0 km/h (0 Bft) W 263 4,3 C 0,0 km/h (0 Bft) 100 %
17.02.2017 23:55 4,7 C 97 % 1025,4 hPa 0,0 l/m 0,1 km/h (0 Bft) W 263 4,3 C 3,1 km/h (1 Bft) 100 %
17.02.2017 23:56 4,7 C 97 % 1025,4 hPa 0,0 l/m 0,0 km/h (0 Bft) W 263 4,3 C 0,0 km/h (0 Bft) 100 %
17.02.2017 23:57 4,7 C 97 % 1025,4 hPa 0,0 l/m 0,0 km/h (0 Bft) W 263 4,3 C 0,0 km/h (0 Bft) 100 %
17.02.2017 23:58 4,7 C 97 % 1025,4 hPa 0,0 l/m 0,0 km/h (0 Bft) W 263 4,3 C 0,0 km/h (0 Bft) 100 %
17.02.2017 23:59 4,7 C 97 % 1025,4 hPa 0,0 l/m 2,5 km/h (1 Bft) W-NW 293 4,3 C 3,1 km/h (1 Bft) 100 %
_ Min-Zeit 04:03 13:08 09:07 - 00:00 - - 04:03 00:00 06:51
Minimum _ 2,7 C 93 % 1022,2 hPa - 0,0 km/h (0 Bft) - - 2,1 C 0,0 km/h (0 Bft) 83 %
_ Max-Zeit 13:57 00:23 00:09 00:04 13:39 - - 14:14 11:56 00:00
Maximum _ 6,2 C 98 % 1025,5 hPa 0,2 l/m 14,3 km/h
W-NW (3 Bft)
- - 5,4 C 25,1 km/h
NW (4 Bft)
100 %
Durchschnitt _ 4,6 C 96 % 1023,5 hPa #3,2 l/m 2,3 km/h (1 Bft) W-NW - 4,1 C 5,5 km/h (1 Bft) 99 %